[[{"header":{"parameterUnit":"m.s-1","parameterCategory":1,"la1":31.0,"la2":29.5877,"lo1":-88.7671,"lo2":-86.6584,"dy":0.0162,"dx":0.0185,"nx":115,"ny":88,"refTime":"2026-03-20T12:00:00:Z","depth":0,"parameterNumber":2,"parameterNumberName":"U-component_of_WINDS"},"data":[0.0,0.0,0.0,0.0,0.0,0.0,0.0,0.0,0.0,0.0,0.0,0.0,0.0,0.0,0.0,0.0,0.0,0.0,0.0,0.0,0.0,0.0,0.0,0.0,0.0,0.0,0.0,0.0,0.0,0.0,0.0,0.0,0.0,0.0,0.0,0.0,0.0,0.0,0.0,0.0,0.0,0.0,0.0,0.0,0.0,0.0,0.0,0.0,0.0,0.0,0.0,0.0,0.0,0.0,0.0,0.0,0.0,0.0,0.0,0.0,0.0,0.0,0.0,0.0,0.0,0.0,0.0,0.0,0.0,0.0,0.0,0.0,0.0,0.0,0.0,0.0,0.0,0.0,0.0,0.0,0.0,0.0,0.0,0.0,0.0,0.0,0.0,0.0,0.0,0.0,0.0,0.0,0.0,0.0,0.0,0.0,0.0,0.0,0.0,0.0,0.0,0.0,0.0,0.0,0.0,0.0,0.0,0.0,0.0,0.0,0.0,0.0,0.0,0.0,0.0,0.0,0.0,0.0,0.0,0.0,0.0,0.0,0.0,0.0,0.0,0.0,0.0,0.0,0.0,0.0,0.0,0.0,0.0,0.0,0.0,0.0,0.0,0.0,0.0,0.0,0.0,0.0,0.0,0.0,0.0,0.0,0.0,0.0,0.0,0.0,0.0,0.0,0.0,0.0,0.0,0.0,0.0,0.0,0.0,0.0,0.0,0.0,0.0,0.0,0.0,0.0,0.0,0.0,0.0,0.0,0.0,0.0,0.0,0.0,0.0,0.0,0.0,0.0,0.0,0.0,0.0,0.0,0.0,0.0,0.0,0.0,0.0,0.0,0.0,0.0,0.0,0.0,0.0,0.0,0.0,0.0,0.0,0.0,0.0,0.0,0.0,0.0,0.0,0.0,0.0,0.0,0.0,0.0,0.0,0.0,0.0,0.0,0.0,0.0,0.0,0.0,0.0,0.0,0.0,0.0,0.0,0.0,0.0,0.0,0.0,0.0,0.0,0.0,0.0,0.0,0.0,0.0,0.0,0.0,0.0,0.0,0.0,0.0,0.0,0.0,0.0,0.0,0.0,0.0,0.0,0.0,0.0,0.0,0.0,0.0,0.0,0.0,0.0,0.0,0.0,0.0,0.0,0.0,0.0,0.0,0.0,0.0,0.0,0.0,0.0,0.0,0.0,0.0,0.0,0.0,0.0,0.0,0.0,0.0,0.0,0.0,0.0,0.0,0.0,0.0,0.0,0.0,0.0,0.0,0.0,0.0,0.0,0.0,0.0,0.0,0.0,0.0,0.0,0.0,0.0,0.0,0.0,0.0,0.0,0.0,0.0,0.0,0.0,0.0,0.0,0.0,0.0,0.0,0.0,0.0,0.0,0.0,0.0,0.0,0.0,0.0,0.0,0.0,0.0,0.0,0.0,0.0,0.0,0.0,0.0,0.0,0.0,0.0,0.0,0.0,0.0,0.0,0.0,0.0,0.0,0.0,0.0,0.0,0.0,0.0,0.0,0.0,0.0,0.0,0.0,0.0,0.0,0.0,0.0,0.0,0.0,0.0,0.0,0.0,0.0,0.0,0.0,0.0,0.0,0.0,0.0,0.0,0.0,0.0,0.0,0.0,0.0,0.0,0.0,0.0,0.0,0.0,0.0,0.0,0.0,0.0,0.0,0.0,0.0,0.0,0.0,0.0,0.0,0.0,0.0,0.0,0.0,0.0,0.0,0.0,0.0,0.0,0.0,0.0,0.0,0.0,0.0,0.0,0.0,0.0,0.0,0.0,0.0,0.0,0.0,0.0,0.0,0.0,0.0,0.0,0.0,0.0,0.0,0.0,0.0,0.0,0.0,0.0,0.0,0.0,0.0,0.0,0.0,0.0,0.0,0.0,0.0,0.0,0.0,0.0,0.0,0.0,0.0,0.0,0.0,0.0,0.0,0.0,0.0,0.0,0.0,0.0,0.0,0.0,0.0,0.0,0.0,0.0,0.0,0.0,0.0,0.0,0.0,0.0,0.0,0.0,0.0,0.0,0.0,0.0,0.0,0.0,0.0,0.0,0.0,0.0,0.0,0.0,0.0,0.0,0.0,0.0,0.0,0.0,0.0,0.0,0.0,0.0,0.0,0.0,0.0,0.0,0.0,0.0,0.0,0.0,0.0,0.0,0.0,0.0,0.0,0.0,0.0,0.0,0.0,0.0,0.0,0.0,0.0,0.0,0.0,0.0,0.0,0.0,0.0,0.0,0.0,0.0,0.0,0.0,0.0,0.0,0.0,0.0,0.0,0.0,0.0,0.0,0.0,0.0,0.0,0.0,0.0,0.0,0.0,0.0,0.0,0.0,0.0,0.0,0.0,0.0,0.0,0.0,0.0,0.0,0.0,0.0,0.0,0.0,0.0,0.0,0.0,0.0,0.0,0.0,0.0,0.0,0.0,0.0,0.0,0.0,0.0,0.0,0.0,0.0,0.0,0.0,0.0,0.0,0.0,0.0,0.0,0.0,0.0,0.0,0.0,0.0,0.0,0.0,0.0,0.0,0.0,0.0,0.0,0.0,0.0,0.0,0.0,0.0,0.0,0.0,0.0,0.0,0.0,0.0,0.0,0.0,0.0,0.0,0.0,0.0,0.0,0.0,0.0,0.0,0.0,0.0,0.0,0.0,0.0,0.0,0.0,0.0,0.0,0.0,0.0,0.0,0.0,0.0,0.0,0.0,0.0,0.0,0.0,0.0,0.0,0.0,0.0,0.0,0.0,0.0,0.0,0.0,0.0,0.0,0.0,0.0,0.0,0.0,0.0,0.0,0.0,0.0,0.0,0.0,0.0,0.0,0.0,0.0,0.0,0.0,0.0,0.0,0.0,0.0,0.0,0.0,0.0,0.0,0.0,0.0,0.0,0.0,0.0,0.0,0.0,0.0,0.0,0.0,0.0,0.0,0.0,0.0,0.0,0.0,0.0,0.0,0.0,0.0,0.0,0.0,0.0,0.0,0.0,0.0,0.0,0.0,0.0,0.0,0.0,0.0,0.0,0.0,0.0,0.0,0.0,0.0,0.0,0.0,0.0,0.0,0.0,0.0,0.0,0.0,0.0,0.0,0.0,0.0,0.0,0.0,0.0,0.0,0.0,0.0,0.0,0.0,0.0,0.0,0.0,0.0,0.0,0.0,0.0,0.0,0.0,0.0,0.0,0.0,0.0,0.0,0.0,0.0,0.0,0.0,0.0,0.0,0.0,0.0,0.0,0.0,0.0,0.0,0.0,0.0,0.0,0.0,0.0,0.0,0.0,0.0,0.0,0.0,0.0,0.0,0.0,0.0,0.0,0.0,0.0,0.0,0.0,0.0,0.0,0.0,0.0,0.0,0.0,0.0,0.0,0.0,0.0,0.0,0.0,0.0,0.0,0.0,0.0,0.0,0.0,0.0,0.0,0.0,0.0,0.0,0.0,0.0,0.0,0.0,0.0,0.0,0.0,0.0,0.0,0.0,0.0,0.0,0.0,0.0,0.0,0.0,0.0,0.0,0.0,0.0,0.0,0.0,0.0,0.0,0.0,0.0,0.0,0.0,0.0,0.0,0.0,0.0,0.0,0.0,0.0,0.0,0.0,0.0,0.0,0.0,0.0,0.0,0.0,0.0,0.0,0.0,0.0,0.0,0.0,0.0,0.0,0.0,0.0,0.0,0.0,0.0,0.0,0.0,0.0,0.0,0.0,0.0,0.0,0.0,0.0,0.0,0.0,0.0,0.0,0.0,0.0,0.0,0.0,0.0,0.0,0.0,0.0,0.0,0.0,0.0,0.0,0.0,0.0,0.0,0.0,0.0,0.0,0.0,0.0,0.0,0.0,0.0,0.0,0.0,0.0,0.0,0.0,0.0,0.0,0.0,0.0,0.0,0.0,0.0,0.0,0.0,0.0,0.0,0.0,0.0,0.0,0.0,0.0,0.0,0.0,0.0,0.0,0.0,0.0,0.0,0.0,0.0,0.0,0.0,0.0,0.0,0.0,0.0,0.0,0.0,0.0,0.0,0.0,0.0,0.0,0.0,0.0,0.0,0.0,0.0,0.0,0.0,0.0,0.0,0.0,0.0,0.0,0.0,0.0,0.0,0.0,0.0,0.0,0.0,0.0,0.0,0.0,0.0,0.0,0.0,0.0,0.0,0.0,0.0,0.0,0.0,0.0,0.0,0.0,0.0,0.0,0.0,0.0,0.0,0.0,0.0,0.0,0.0,0.0,0.0,0.0,0.0,0.0,0.0,0.0,0.0,0.0,0.0,0.0,0.0,-1.2682,0.0,0.0,0.0,0.0,0.0,0.0,0.0,0.0,0.0,0.0,0.0,0.0,0.0,0.0,0.0,0.0,0.0,0.0,0.0,0.0,0.0,0.0,0.0,0.0,0.0,0.0,0.0,0.0,0.0,0.0,0.0,0.0,0.0,0.0,0.0,0.0,0.0,0.0,0.0,0.0,0.0,0.0,0.0,0.0,0.0,0.0,0.0,0.0,0.0,0.0,0.0,0.0,0.0,0.0,0.0,0.0,0.0,0.0,0.0,0.0,0.0,0.0,0.0,0.0,0.0,0.0,0.0,0.0,0.0,0.0,0.0,0.0,0.0,0.0,0.0,0.0,0.0,0.0,0.0,0.0,0.0,0.0,0.0,0.0,0.0,0.0,0.0,0.0,0.0,0.0,0.0,0.0,0.0,0.0,0.0,0.0,0.0,0.0,0.0,0.0,0.0,0.0,0.0,0.0,0.0,0.0,0.0,0.0,0.0,0.0,-1.2385,-1.198,-1.3176,-1.3455,-1.2691,0.0,0.0,0.0,0.0,0.0,0.0,0.0,0.0,0.0,0.0,0.0,0.0,0.0,0.0,0.0,0.0,0.0,0.0,0.0,0.0,0.0,0.0,0.0,0.0,0.0,0.0,0.0,0.0,0.0,0.0,0.0,0.0,0.0,0.0,0.0,0.0,0.0,0.0,0.0,0.0,0.0,0.0,0.0,0.0,0.0,0.0,0.0,0.0,0.0,0.0,0.0,0.0,0.0,0.0,0.0,0.0,0.0,0.0,0.0,0.0,0.0,0.0,0.0,0.0,0.0,0.0,0.0,0.0,0.0,0.0,0.0,0.0,0.0,0.0,0.0,0.0,0.0,0.0,0.0,0.0,0.0,0.0,0.0,0.0,0.0,0.0,0.0,0.0,0.0,0.0,0.0,0.0,0.0,0.0,0.0,0.0,0.0,0.0,0.0,0.0,0.0,0.0,0.0,0.0,0.0,0.0,0.0,0.0,0.0,0.0,0.0,0.0,-1.3303,-1.3764,-1.3538,0.0,0.0,0.0,0.0,0.0,0.0,0.0,0.0,0.0,0.0,0.0,0.0,0.0,0.0,0.0,0.0,0.0,0.0,0.0,0.0,0.0,0.0,0.0,0.0,0.0,0.0,0.0,0.0,0.0,0.0,0.0,0.0,0.0,0.0,0.0,0.0,0.0,0.0,0.0,0.0,0.0,0.0,0.0,0.0,0.0,0.0,0.0,0.0,0.0,0.0,0.0,0.0,0.0,0.0,0.0,0.0,0.0,0.0,0.0,0.0,0.0,0.0,0.0,0.0,0.0,0.0,0.0,0.0,0.0,0.0,0.0,0.0,0.0,0.0,0.0,0.0,0.0,0.0,0.0,0.0,0.0,0.0,0.0,0.0,0.0,0.0,0.0,0.0,0.0,0.0,0.0,0.0,0.0,0.0,0.0,0.0,0.0,0.0,0.0,0.0,0.0,0.0,0.0,0.0,0.0,0.0,0.0,0.0,0.0,0.0,-1.2582,-1.4772,-1.4224,0.0,-1.5952,0.0,0.0,0.0,0.0,0.0,0.0,0.0,0.0,0.0,0.0,0.0,0.0,0.0,0.0,0.0,0.0,0.0,0.0,0.0,0.0,0.0,0.0,0.0,0.0,0.0,0.0,0.0,0.0,0.0,0.0,0.0,0.0,0.0,0.0,0.0,0.0,0.0,0.0,0.0,0.0,0.0,0.0,0.0,0.0,0.0,0.0,0.0,0.0,0.0,0.0,0.0,0.0,0.0,0.0,0.0,0.0,0.0,0.0,0.0,0.0,0.0,0.0,0.0,0.0,0.0,0.0,0.0,0.0,0.0,0.0,0.0,0.0,0.0,0.0,0.0,0.0,0.0,0.0,0.0,0.0,0.0,0.0,0.0,0.0,0.0,0.0,0.0,0.0,0.0,0.0,0.0,0.0,0.0,0.0,0.0,0.0,0.0,0.0,0.0,0.0,0.0,0.0,0.0,0.0,0.0,0.0,0.0,0.0,0.0,0.0,-1.2817,-1.4392,-1.4546,-1.5167,0.0,0.0,0.0,0.0,0.0,0.0,0.0,0.0,0.0,0.0,0.0,0.0,0.0,0.0,0.0,0.0,0.0,0.0,0.0,0.0,0.0,0.0,0.0,0.0,0.0,0.0,0.0,0.0,0.0,0.0,0.0,0.0,0.0,0.0,0.0,0.0,0.0,0.0,0.0,0.0,0.0,0.0,0.0,0.0,0.0,0.0,0.0,0.0,0.0,0.0,0.0,0.0,0.0,0.0,0.0,0.0,0.0,0.0,0.0,0.0,0.0,0.0,0.0,0.0,0.0,0.0,0.0,0.0,0.0,0.0,0.0,0.0,0.0,0.0,0.0,0.0,0.0,0.0,0.0,0.0,0.0,0.0,0.0,0.0,0.0,0.0,0.0,0.0,0.0,0.0,0.0,0.0,0.0,0.0,0.0,0.0,0.0,0.0,0.0,0.0,0.0,0.0,0.0,0.0,0.0,0.0,0.0,0.0,0.0,0.0,-1.2957,-1.3151,-1.3832,-1.4879,-1.5608,-1.5994,0.0,0.0,0.0,0.0,0.0,0.0,0.0,0.0,0.0,0.0,0.0,0.0,0.0,0.0,0.0,0.0,0.0,0.0,0.0,0.0,0.0,0.0,0.0,0.0,0.0,0.0,0.0,0.0,0.0,0.0,0.0,0.0,0.0,0.0,0.0,0.0,0.0,0.0,0.0,0.0,0.0,0.0,0.0,0.0,0.0,0.0,0.0,0.0,0.0,0.0,0.0,0.0,0.0,0.0,0.0,0.0,0.0,0.0,0.0,0.0,0.0,0.0,0.0,0.0,0.0,0.0,0.0,0.0,0.0,0.0,0.0,0.0,0.0,0.0,0.0,0.0,0.0,0.0,0.0,0.0,0.0,0.0,0.0,0.0,0.0,0.0,0.0,0.0,0.0,0.0,0.0,0.0,0.0,0.0,0.0,0.0,0.0,0.0,0.0,0.0,0.0,0.0,0.0,0.0,0.0,0.0,0.0,0.0,0.0,-1.4081,-1.3656,-1.3772,-1.5346,-1.5883,0.0,0.0,0.0,0.0,0.0,0.0,0.0,0.0,0.0,0.0,0.0,0.0,0.0,0.0,0.0,0.0,0.0,0.0,0.0,0.0,0.0,0.0,0.0,0.0,0.0,0.0,0.0,0.0,0.0,0.0,0.0,0.0,0.0,0.0,0.0,0.0,0.0,0.0,0.0,0.0,0.0,0.0,0.0,0.0,0.0,0.0,0.0,0.0,0.0,0.0,0.0,0.0,0.0,0.0,0.0,0.0,0.0,0.0,0.0,0.0,0.0,0.0,0.0,0.0,0.0,0.0,0.0,0.0,0.0,0.0,0.0,0.0,0.0,0.0,0.0,0.0,0.0,0.0,0.0,0.0,0.0,0.0,0.0,0.0,0.0,0.0,0.0,0.0,0.0,0.0,0.0,0.0,0.0,0.0,0.0,0.0,0.0,0.0,0.0,0.0,0.0,0.0,0.0,0.0,0.0,0.0,0.0,0.0,0.0,-1.486,-1.4554,-1.4422,-1.4426,-1.4511,-1.4429,0.0,0.0,0.0,0.0,0.0,0.0,0.0,0.0,0.0,0.0,0.0,0.0,0.0,0.0,0.0,0.0,0.0,0.0,0.0,0.0,0.0,0.0,0.0,0.0,0.0,0.0,0.0,0.0,0.0,0.0,0.0,0.0,0.0,0.0,0.0,0.0,0.0,0.0,0.0,0.0,0.0,0.0,0.0,0.0,0.0,0.0,0.0,0.0,0.0,0.0,0.0,0.0,0.0,0.0,0.0,0.0,0.0,0.0,0.0,0.0,0.0,0.0,0.0,0.0,0.0,0.0,0.0,0.0,0.0,0.0,0.0,0.0,0.0,0.0,0.0,0.0,0.0,0.0,0.0,0.0,0.0,0.0,0.0,0.0,0.0,0.0,0.0,0.0,0.0,0.0,0.0,0.0,0.0,0.0,0.0,0.0,0.0,0.0,0.0,0.0,0.0,0.0,0.0,0.0,0.0,0.0,0.0,0.0,0.0,-1.4822,0.0,-1.4509,0.0,-1.371,-1.3549,0.0,0.0,0.0,0.0,0.0,0.0,0.0,0.0,0.0,0.0,0.0,0.0,0.0,0.0,0.0,0.0,0.0,0.0,0.0,0.0,0.0,0.0,0.0,0.0,0.0,0.0,0.0,0.0,0.0,0.0,0.0,0.0,0.0,0.0,0.0,0.0,0.0,0.0,0.0,0.0,0.0,0.0,0.0,0.0,0.0,0.0,0.0,0.0,0.0,0.0,0.0,0.0,0.0,0.0,0.0,0.0,0.0,0.0,0.0,0.0,0.0,0.0,0.0,0.0,0.0,0.0,0.0,0.0,0.0,0.0,0.0,0.0,0.0,0.0,0.0,0.0,0.0,0.0,0.0,0.0,0.0,0.0,0.0,0.0,0.0,0.0,0.0,0.0,0.0,0.0,0.0,0.0,0.0,0.0,0.0,0.0,0.0,0.0,0.0,0.0,0.0,0.0,0.0,0.0,0.0,0.0,0.0,0.0,-1.57,-1.4864,-1.4748,-1.394,-1.2307,-1.3012,-1.3426,0.0,0.0,0.0,0.0,0.0,0.0,0.0,0.0,0.0,0.0,0.0,0.0,0.0,0.0,0.0,0.0,0.0,0.0,0.0,0.0,0.0,0.0,0.0,0.0,0.0,0.0,0.0,0.0,0.0,0.0,0.0,0.0,0.0,0.0,0.0,0.0,0.0,0.0,0.0,0.0,0.0,0.0,0.0,0.0,0.0,0.0,0.0,0.0,0.0,0.0,0.0,0.0,0.0,0.0,0.0,0.0,0.0,0.0,0.0,0.0,0.0,0.0,0.0,0.0,0.0,0.0,0.0,0.0,0.0,0.0,0.0,0.0,0.0,0.0,0.0,0.0,0.0,0.0,0.0,0.0,0.0,0.0,0.0,0.0,0.0,0.0,0.0,0.0,0.0,0.0,0.0,0.0,0.0,0.0,0.0,0.0,0.0,0.0,0.0,0.0,0.0,0.0,0.0,0.0,0.0,0.0,0.0,0.0,0.0,-1.5575,-1.4856,-1.3725,-1.2163,-1.2335,-1.2179,0.0,0.0,0.0,0.0,0.0,0.0,0.0,0.0,0.0,0.0,0.0,0.0,0.0,0.0,0.0,0.0,0.0,0.0,0.0,0.0,0.0,0.0,0.0,0.0,0.0,0.0,0.0,0.0,0.0,0.0,0.0,0.0,0.0,0.0,0.0,0.0,0.0,0.0,0.0,0.0,0.0,0.0,0.0,0.0,0.0,0.0,0.0,0.0,0.0,0.0,0.0,0.0,0.0,0.0,0.0,0.0,0.0,0.0,0.0,0.0,0.0,0.0,0.0,0.0,0.0,0.0,0.0,0.0,0.0,0.0,0.0,0.0,0.0,0.0,0.0,0.0,0.0,0.0,0.0,0.0,0.0,0.0,0.0,0.0,0.0,0.0,0.0,0.0,0.0,0.0,0.0,0.0,0.0,0.0,0.0,0.0,0.0,0.0,0.0,0.0,0.0,0.0,0.0,0.0,0.0,0.0,0.0,0.0,0.0,-1.6701,-1.549,-1.4083,-1.2485,-1.2456,-1.2362,-1.2194,0.0,0.0,0.0,0.0,0.0,0.0,0.0,0.0,0.0,0.0,0.0,0.0,0.0,0.0,0.0,0.0,0.0,0.0,0.0,0.0,0.0,0.0,0.0,0.0,0.0,0.0,0.0,0.0,0.0,0.0,0.0,0.0,0.0,0.0,0.0,0.0,0.0,0.0,0.0,0.0,0.0,0.0,0.0,0.0,0.0,0.0,0.0,0.0,0.0,0.0,0.0,0.0,0.0,0.0,0.0,0.0,0.0,0.0,0.0,0.0,0.0,0.0,0.0,0.0,0.0,0.0,0.0,0.0,0.0,0.0,0.0,0.0,0.0,0.0,0.0,0.0,0.0,0.0,0.0,0.0,0.0,0.0,0.0,0.0,0.0,0.0,0.0,0.0,0.0,0.0,0.0,0.0,0.0,0.0,0.0,0.0,0.0,0.0,0.0,0.0,0.0,0.0,0.0,0.0,0.0,0.0,0.0,0.0,-1.8016,-1.6518,-1.4939,-1.333,-1.3322,-1.3673,0.0,0.0,0.0,0.0,0.0,0.0,0.0,0.0,0.0,0.0,0.0,0.0,0.0,0.0,0.0,0.0,0.0,0.0,0.0,0.0,0.0,0.0,0.0,0.0,0.0,0.0,0.0,0.0,0.0,0.0,0.0,0.0,0.0,0.0,0.0,0.0,0.0,0.0,0.0,0.0,0.0,0.0,0.0,0.0,0.0,0.0,0.0,0.0,0.0,0.0,0.0,0.0,0.0,0.0,0.0,0.0,0.0,0.0,0.0,0.0,0.0,0.0,0.0,0.0,0.0,0.0,0.0,0.0,0.0,0.0,0.0,0.0,0.0,0.0,0.0,0.0,0.0,0.0,0.0,0.0,0.0,0.0,0.0,0.0,0.0,0.0,0.0,0.0,0.0,0.0,0.0,0.0,0.0,0.0,0.0,0.0,0.0,0.0,0.0,0.0,0.0,0.0,0.0,0.0,0.0,0.0,0.0,0.0,0.0,-1.7118,-1.7235,-1.6243,-1.4126,-1.4635,-1.4508,0.0,0.0,0.0,0.0,0.0,0.0,0.0,0.0,0.0,0.0,0.0,0.0,0.0,0.0,0.0,0.0,0.0,0.0,0.0,0.0,0.0,0.0,0.0,0.0,0.0,0.0,0.0,0.0,0.0,0.0,0.0,0.0,0.0,0.0,0.0,0.0,0.0,0.0,0.0,0.0,0.0,0.0,0.0,0.0,0.0,0.0,0.0,0.0,0.0,0.0,0.0,0.0,0.0,0.0,0.0,0.0,0.0,0.0,0.0,0.0,0.0,0.0,0.0,0.0,0.0,0.0,0.0,0.0,0.0,0.0,0.0,0.0,0.0,0.0,0.0,0.0,0.0,0.0,0.0,0.0,0.0,0.0,0.0,0.0,0.0,0.0,0.0,0.0,0.0,0.0,0.0,0.0,0.0,0.0,0.0,0.0,0.0,0.0,0.0,0.0,0.0,0.0,0.0,0.0,0.0,0.0,0.0,0.0,-1.6668,-1.7297,-1.8348,-1.8081,-1.6352,-1.586,-1.5164,0.0,0.0,0.0,0.0,0.0,0.0,0.0,0.0,0.0,0.0,0.0,0.0,0.0,0.0,0.0,0.0,0.0,0.0,0.0,0.0,0.0,0.0,0.0,0.0,0.0,0.0,0.0,0.0,0.0,0.0,0.0,0.0,0.0,0.0,0.0,0.0,0.0,0.0,0.0,0.0,0.0,0.0,0.0,0.0,0.0,0.0,0.0,0.0,0.0,0.0,0.0,0.0,0.0,0.0,0.0,0.0,0.0,0.0,0.0,0.0,0.0,0.0,0.0,0.0,0.0,0.0,0.0,0.0,0.0,0.0,0.0,0.0,0.0,0.0,0.0,0.0,0.0,0.0,0.0,0.0,0.0,0.0,0.0,0.0,0.0,0.0,0.0,0.0,0.0,0.0,0.0,0.0,0.0,0.0,0.0,0.0,0.0,0.0,0.0,0.0,0.0,0.0,0.0,0.0,0.0,0.0,0.0,0.0,-1.6583,-1.8099,-1.9619,-2.0083,-1.9322,-1.7162,-1.5891,0.0,0.0,0.0,0.0,0.0,0.0,0.0,0.0,0.0,0.0,0.0,0.0,0.0,0.0,0.0,0.0,0.0,0.0,0.0,0.0,0.0,0.0,0.0,0.0,0.0,0.0,0.0,0.0,0.0,0.0,0.0,0.0,0.0,0.0,0.0,0.0,0.0,0.0,0.0,0.0,0.0,0.0,0.0,0.0,0.0,0.0,0.0,0.0,0.0,0.0,0.0,0.0,0.0,0.0,0.0,0.0,0.0,0.0,0.0,0.0,0.0,0.0,0.0,0.0,0.0,0.0,0.0,0.0,0.0,0.0,0.0,0.0,0.0,0.0,0.0,0.0,0.0,0.0,0.0,0.0,0.0,0.0,0.0,0.0,0.0,0.0,0.0,0.0,0.0,0.0,0.0,0.0,0.0,0.0,0.0,0.0,0.0,0.0,0.0,0.0,0.0,0.0,0.0,0.0,0.0,0.0,0.0,0.0,-1.7933,-1.8873,-2.0427,-2.1123,-2.0905,-1.9249,-1.7772,0.0,0.0,0.0,0.0,0.0,0.0,0.0,0.0,0.0,0.0,0.0,0.0,0.0,0.0,0.0,0.0,0.0,0.0,0.0,0.0,0.0,0.0,0.0,0.0,0.0,0.0,0.0,0.0,0.0,0.0,0.0,0.0,0.0,0.0,0.0,0.0,0.0,0.0,0.0,0.0,0.0,0.0,0.0,0.0,0.0,0.0,0.0,0.0,-1.1222,0.0,0.0,0.0,0.0,0.0,0.0,0.0,0.0,0.0,0.0,0.0,0.0,0.0,0.0,0.0,0.0,0.0,0.0,0.0,0.0,0.0,0.0,0.0,0.0,0.0,0.0,0.0,0.0,0.0,0.0,0.0,0.0,0.0,0.0,0.0,0.0,0.0,0.0,0.0,0.0,0.0,0.0,0.0,0.0,0.0,0.0,0.0,0.0,0.0,0.0,0.0,0.0,0.0,0.0,0.0,0.0,0.0,0.0,0.0,-1.8491,-1.9655,-2.1251,-2.2198,-2.2417,-2.128,-1.9696,0.0,0.0,0.0,0.0,0.0,0.0,0.0,0.0,0.0,0.0,0.0,0.0,0.0,0.0,0.0,0.0,0.0,0.0,0.0,0.0,0.0,0.0,0.0,0.0,0.0,0.0,0.0,0.0,0.0,0.0,0.0,0.0,0.0,0.0,0.0,0.0,0.0,0.0,0.0,0.0,0.0,0.0,0.0,0.0,0.0,0.0,0.0,0.0,0.0,0.0,0.0,0.0,0.0,0.0,0.0,0.0,0.0,0.0,0.0,0.0,0.0,0.0,0.0,0.0,0.0,0.0,0.0,0.0,0.0,0.0,0.0,0.0,0.0,0.0,0.0,0.0,0.0,0.0,0.0,0.0,0.0,0.0,0.0,0.0,0.0,0.0,0.0,0.0,0.0,0.0,0.0,0.0,0.0,0.0,0.0,0.0,0.0,0.0,0.0,0.0,0.0,0.0,0.0,0.0,0.0,0.0,0.0,-1.7078,-1.8975,-2.0463,-2.2019,-2.3097,-2.362,-2.2743,-2.1237,-1.9093,0.0,0.0,0.0,0.0,0.0,0.0,0.0,0.0,0.0,0.0,0.0,0.0,0.0,0.0,0.0,0.0,0.0,0.0,0.0,0.0,0.0,0.0,0.0,0.0,0.0,0.0,0.0,0.0,0.0,0.0,0.0,0.0,0.0,0.0,0.0,0.0,0.0,0.0,-0.9734,-1.1176,0.0,0.0,0.0,0.0,0.0,0.0,0.0,0.0,-1.0423,0.0,0.0,0.0,0.0,0.0,0.0,0.0,0.0,0.0,0.0,0.0,0.0,0.0,0.0,0.0,0.0,0.0,0.0,0.0,0.0,0.0,0.0,0.0,0.0,0.0,0.0,0.0,0.0,0.0,0.0,0.0,0.0,0.0,0.0,0.0,0.0,0.0,0.0,0.0,0.0,0.0,0.0,0.0,0.0,0.0,0.0,0.0,0.0,0.0,0.0,0.0,0.0,0.0,0.0,0.0,0.0,-1.6379,-1.8709,-2.0318,-2.1212,-2.2733,-2.3508,-2.3435,-2.2522,-2.1271,-1.957,0.0,0.0,0.0,0.0,0.0,0.0,0.0,0.0,0.0,0.0,0.0,0.0,0.0,0.0,0.0,0.0,0.0,0.0,0.0,0.0,0.0,0.0,0.0,0.0,0.0,0.0,0.0,0.0,0.0,0.0,0.0,0.0,0.0,0.0,0.0,0.0,0.0,0.0,0.0,-1.3067,-1.3913,0.0,0.0,0.0,0.0,0.0,0.0,0.0,0.0,-1.0556,0.0,0.0,0.0,0.0,0.0,0.0,0.0,0.0,0.0,0.0,0.0,0.0,0.0,0.0,0.0,0.0,0.0,0.0,0.0,0.0,0.0,0.0,0.0,0.0,0.0,0.0,0.0,0.0,0.0,0.0,0.0,0.0,0.0,0.0,0.0,0.0,0.0,0.0,0.0,0.0,0.0,0.0,0.0,0.0,0.0,0.0,0.0,0.0,0.0,0.0,0.0,0.0,0.0,0.0,0.0,-1.6809,-1.951,-2.1467,-2.2551,-2.325,-2.351,-2.3265,-2.1926,-2.0464,0.0,0.0,0.0,0.0,0.0,0.0,0.0,0.0,0.0,0.0,0.0,0.0,0.0,0.0,0.0,0.0,0.0,0.0,0.0,0.0,0.0,0.0,0.0,0.0,0.0,0.0,0.0,0.0,0.0,0.0,0.0,0.0,0.0,0.0,0.0,0.0,0.0,0.0,0.0,0.0,-1.4033,-1.453,-1.3988,0.0,0.0,0.0,0.0,0.0,0.0,-1.1015,-1.0771,0.0,0.0,0.0,0.0,0.0,0.0,0.0,0.0,0.0,0.0,0.0,0.0,0.0,0.0,0.0,0.0,0.0,0.0,0.0,0.0,0.0,0.0,0.0,0.0,0.0,0.0,0.0,0.0,0.0,0.0,0.0,0.0,0.0,0.0,0.0,0.0,0.0,0.0,0.0,0.0,0.0,0.0,0.0,0.0,0.0,0.0,0.0,0.0,0.0,0.0,0.0,0.0,0.0,0.0,0.0,-1.702,-1.992,-2.2136,-2.3522,-2.3624,-2.3549,-2.3312,-2.1571,-1.9838,0.0,0.0,0.0,0.0,0.0,0.0,0.0,0.0,0.0,0.0,0.0,0.0,0.0,0.0,0.0,0.0,0.0,0.0,0.0,0.0,0.0,0.0,0.0,0.0,0.0,0.0,0.0,0.0,0.0,0.0,0.0,0.0,0.0,0.0,0.0,0.0,0.0,0.0,0.0,0.0,0.0,-1.4968,-1.4659,-1.4479,0.0,0.0,0.0,0.0,-1.1539,-1.1526,0.0,0.0,0.0,0.0,0.0,0.0,0.0,0.0,0.0,0.0,0.0,0.0,0.0,0.0,0.0,0.0,0.0,0.0,0.0,0.0,0.0,0.0,0.0,0.0,0.0,0.0,0.0,0.0,0.0,0.0,0.0,0.0,0.0,0.0,0.0,0.0,0.0,0.0,0.0,0.0,0.0,0.0,0.0,0.0,0.0,0.0,0.0,0.0,0.0,0.0,0.0,0.0,0.0,0.0,0.0,0.0,-1.766,-1.9963,-2.1832,-2.3195,-2.3814,-2.4025,-2.3796,-2.2177,-2.0262,0.0,0.0,0.0,0.0,0.0,0.0,0.0,0.0,0.0,0.0,0.0,0.0,0.0,0.0,0.0,0.0,0.0,0.0,0.0,0.0,0.0,0.0,0.0,0.0,0.0,0.0,0.0,0.0,0.0,0.0,0.0,0.0,0.0,0.0,0.0,0.0,0.0,0.0,0.0,0.0,0.0,-1.5813,-1.596,-1.6127,-1.5843,0.0,0.0,-1.3291,-1.2718,-1.3053,0.0,0.0,0.0,0.0,0.0,0.0,0.0,0.0,0.0,0.0,0.0,0.0,0.0,0.0,0.0,0.0,0.0,0.0,0.0,0.0,0.0,0.0,0.0,0.0,0.0,0.0,0.0,0.0,0.0,0.0,0.0,0.0,0.0,0.0,0.0,0.0,0.0,0.0,0.0,0.0,0.0,0.0,0.0,0.0,0.0,0.0,0.0,0.0,0.0,0.0,0.0,0.0,0.0,0.0,0.0,-1.5296,-1.768,-1.9814,-2.1601,-2.297,-2.3185,-2.3218,-2.3028,-2.0998,-1.9005,0.0,0.0,0.0,0.0,0.0,0.0,0.0,0.0,0.0,0.0,0.0,0.0,0.0,0.0,0.0,0.0,0.0,0.0,0.0,0.0,0.0,0.0,0.0,0.0,0.0,0.0,0.0,0.0,0.0,0.0,0.0,0.0,0.0,0.0,0.0,0.0,0.0,0.0,0.0,0.0,0.0,0.0,-1.6171,-1.6987,0.0,0.0,0.0,-1.5344,-1.4373,0.0,0.0,0.0,0.0,0.0,0.0,0.0,0.0,0.0,0.0,0.0,0.0,0.0,0.0,0.0,0.0,0.0,0.0,0.0,0.0,0.0,0.0,0.0,0.0,0.0,0.0,0.0,0.0,0.0,0.0,0.0,0.0,0.0,0.0,0.0,0.0,0.0,0.0,0.0,0.0,0.0,0.0,0.0,0.0,0.0,0.0,0.0,0.0,0.0,0.0,0.0,0.0,0.0,0.0,0.0,0.0,0.0,-1.7799,-1.9717,-2.1475,-2.302,-2.2917,-2.2685,-2.2343,-2.0366,0.0,0.0,0.0,0.0,0.0,0.0,0.0,0.0,0.0,0.0,0.0,0.0,0.0,0.0,0.0,0.0,0.0,0.0,0.0,0.0,0.0,0.0,0.0,0.0,0.0,0.0,0.0,-0.8337,0.0,0.0,0.0,0.0,0.0,0.0,0.0,0.0,0.0,0.0,0.0,0.0,0.0,0.0,-1.6938,-1.656,-1.7725,-1.8243,0.0,0.0,-1.7069,-1.5877,-1.6059,-1.5537,0.0,0.0,0.0,0.0,0.0,0.0,0.0,0.0,0.0,0.0,0.0,0.0,0.0,0.0,0.0,0.0,0.0,0.0,0.0,0.0,0.0,0.0,0.0,0.0,0.0,0.0,0.0,0.0,0.0,0.0,0.0,0.0,0.0,0.0,0.0,0.0,0.0,0.0,0.0,0.0,0.0,0.0,0.0,0.0,0.0,0.0,0.0,0.0,0.0,0.0,0.0,0.0,0.0,0.0,0.0,-1.8364,-1.9749,-2.1462,-2.3546,-2.3511,-2.3071,-2.2318,-2.1359,-1.9466,0.0,0.0,0.0,0.0,0.0,0.0,0.0,0.0,0.0,0.0,0.0,0.0,0.0,0.0,0.0,0.0,0.0,0.0,0.0,0.0,0.0,0.0,0.0,0.0,0.0,0.0,0.0,0.0,0.0,0.0,0.0,0.0,0.0,0.0,0.0,0.0,0.0,0.0,0.0,0.0,0.0,-1.7784,-1.7606,-1.8531,-1.8966,0.0,0.0,-1.8194,-1.6989,-1.7182,-1.6688,-1.4359,0.0,0.0,0.0,0.0,0.0,0.0,0.0,0.0,0.0,0.0,0.0,0.0,0.0,0.0,0.0,0.0,0.0,0.0,0.0,0.0,0.0,0.0,0.0,0.0,0.0,0.0,0.0,0.0,0.0,0.0,0.0,0.0,0.0,0.0,0.0,0.0,0.0,0.0,0.0,0.0,0.0,0.0,0.0,0.0,0.0,0.0,0.0,0.0,0.0,0.0,0.0,0.0,0.0,-1.505,-1.7596,-1.9304,-2.1037,-2.2728,-2.2745,-2.2555,-2.224,-2.0518,-1.8601,0.0,0.0,0.0,0.0,0.0,0.0,0.0,0.0,0.0,0.0,0.0,0.0,0.0,0.0,0.0,0.0,0.0,0.0,0.0,0.0,0.0,0.0,0.0,0.0,0.0,0.0,0.0,0.0,-0.7972,-0.8217,-0.8216,0.0,0.0,0.0,0.0,0.0,0.0,0.0,0.0,0.0,0.0,-1.8399,-1.8281,-1.9747,0.0,0.0,-2.0405,-2.0201,-1.8995,-1.8579,-1.7531,-1.4959,-1.3663,0.0,0.0,0.0,0.0,0.0,0.0,0.0,0.0,0.0,0.0,0.0,0.0,0.0,0.0,0.0,0.0,0.0,0.0,0.0,0.0,0.0,0.0,0.0,0.0,0.0,0.0,0.0,0.0,0.0,0.0,0.0,0.0,0.0,0.0,0.0,0.0,0.0,0.0,0.0,0.0,0.0,0.0,0.0,0.0,0.0,0.0,0.0,0.0,0.0,0.0,0.0,0.0,-1.5237,-1.769,-1.9675,-2.1201,-2.2279,-2.2459,-2.23,-2.1818,-1.9997,-1.8302,0.0,0.0,0.0,0.0,0.0,0.0,0.0,0.0,0.0,0.0,0.0,0.0,0.0,0.0,0.0,0.0,0.0,0.0,0.0,0.0,0.0,0.0,0.0,0.0,0.0,0.0,0.0,0.0,-0.8158,-0.8391,-0.8567,0.0,0.0,0.0,0.0,0.0,0.0,0.0,0.0,0.0,0.0,-1.8768,-1.8784,-2.0343,-2.1437,-2.1155,-2.141,-2.1221,-2.003,-1.9357,-1.8192,-1.5795,0.0,0.0,0.0,0.0,0.0,0.0,0.0,0.0,0.0,0.0,0.0,0.0,0.0,0.0,0.0,0.0,0.0,0.0,0.0,0.0,0.0,0.0,0.0,0.0,0.0,0.0,0.0,0.0,0.0,0.0,0.0,0.0,0.0,0.0,0.0,0.0,0.0,0.0,0.0,0.0,0.0,0.0,0.0,0.0,0.0,0.0,0.0,0.0,0.0,0.0,0.0,0.0,0.0,-1.6212,-1.9115,-2.1181,-2.2262,-2.233,-2.2948,-2.2538,-2.1091,-2.0157,-1.8976,-1.7465,0.0,0.0,0.0,0.0,0.0,0.0,0.0,0.0,0.0,0.0,0.0,0.0,0.0,0.0,0.0,0.0,0.0,0.0,0.0,0.0,0.0,0.0,0.0,0.0,0.0,0.0,-0.8683,-0.8066,-0.7906,0.0,0.0,0.0,0.0,0.0,0.0,0.0,0.0,0.0,0.0,-1.7548,-1.8798,-1.9052,-2.015,-2.0914,-2.0609,-2.0941,-2.0842,-1.9723,-1.9395,-1.8732,0.0,0.0,0.0,0.0,0.0,0.0,0.0,0.0,0.0,0.0,0.0,0.0,0.0,0.0,0.0,0.0,0.0,0.0,0.0,0.0,0.0,0.0,0.0,0.0,0.0,0.0,0.0,-1.5368,-1.4396,0.0,0.0,0.0,0.0,0.0,0.0,0.0,0.0,0.0,0.0,0.0,-1.8725,-1.8439,0.0,0.0,0.0,0.0,0.0,0.0,0.0,0.0,0.0,0.0,0.0,0.0,-1.6907,-1.9788,-2.1956,-2.3038,-2.3038,-2.3201,-2.2567,-2.1046,-2.0154,-1.856,-1.6122,0.0,0.0,0.0,0.0,0.0,0.0,0.0,0.0,0.0,0.0,0.0,0.0,0.0,0.0,0.0,0.0,0.0,0.0,0.0,0.0,0.0,0.0,0.0,0.0,0.0,-0.9363,0.0,0.0,0.0,0.0,0.0,0.0,0.0,0.0,0.0,0.0,0.0,-1.3696,-1.5681,-1.78,-1.9332,-1.976,-2.1144,-2.2025,0.0,0.0,0.0,0.0,0.0,0.0,0.0,0.0,0.0,0.0,0.0,0.0,0.0,0.0,-1.4153,-1.3664,-1.3189,-1.2872,-1.2939,0.0,0.0,0.0,0.0,0.0,0.0,0.0,0.0,0.0,0.0,0.0,0.0,0.0,0.0,-1.7925,0.0,-1.7188,0.0,0.0,0.0,0.0,0.0,0.0,0.0,0.0,-2.3484,-2.3761,-2.2509,-2.1955,-2.1134,0.0,-2.0373,-1.9203,0.0,0.0,0.0,0.0,0.0,0.0,0.0,0.0,-1.8124,-2.0522,-2.2688,-2.3528,-2.3054,-2.3201,-2.2685,-2.1368,-2.0508,-1.8917,-1.6514,-1.6199,-1.5078,0.0,0.0,0.0,0.0,0.0,0.0,0.0,0.0,0.0,0.0,0.0,0.0,0.0,0.0,0.0,0.0,0.0,0.0,0.0,0.0,0.0,0.0,0.0,-0.9649,0.0,0.0,0.0,0.0,0.0,0.0,0.0,0.0,0.0,-1.234,-1.3171,-1.4368,-1.5981,-1.7852,-1.9404,-2.0323,0.0,0.0,0.0,0.0,0.0,0.0,0.0,-2.027,-1.9879,-1.9484,-1.9165,-1.8999,-1.8253,-1.7507,-1.7081,0.0,0.0,-1.595,-1.5242,-1.4844,-1.5121,-1.4168,-1.3217,-1.2701,-1.2277,-1.1761,0.0,0.0,0.0,0.0,0.0,0.0,0.0,0.0,-2.0715,-2.0302,0.0,-1.9608,0.0,0.0,0.0,0.0,0.0,0.0,0.0,0.0,-2.6427,-2.6937,-2.6059,-2.4574,-2.3827,-2.3727,-2.2886,-2.2476,-2.2286,-1.9041,0.0,0.0,0.0,0.0,0.0,0.0,-1.9833,-2.1247,-2.3422,-2.3816,-2.2448,-2.2998,-2.2942,-2.2099,-2.1202,-2.0083,-1.8718,-1.7966,-1.6542,-1.4422,-1.3,0.0,0.0,0.0,0.0,0.0,0.0,0.0,0.0,0.0,0.0,0.0,0.0,0.0,0.0,0.0,0.0,0.0,0.0,0.0,0.0,-0.9561,0.0,0.0,0.0,0.0,0.0,0.0,0.0,0.0,0.0,0.0,-1.3469,-1.4428,-1.5501,-1.6627,0.0,0.0,0.0,0.0,-2.2614,-2.3174,-2.3243,-2.3118,-2.2697,-2.2294,-2.1969,-2.1839,0.0,0.0,-2.0386,-2.014,-1.9742,-1.881,-1.88,-1.8632,-1.7706,-1.6746,-1.6125,-1.6221,-1.5591,-1.4709,-1.358,-1.3152,-1.2741,-2.7875,0.0,0.0,0.0,0.0,-2.2703,-2.2868,-2.317,-2.3234,-2.3095,-2.2901,-2.2996,0.0,0.0,0.0,0.0,0.0,0.0,-2.5147,-2.6745,-2.8187,-2.8472,-2.7714,-2.7283,-2.6689,-2.6049,-2.578,-2.5582,-2.542,-2.3922,-2.1436,-1.8064,0.0,0.0,0.0,0.0,-2.1047,-2.207,-2.4154,-2.4577,-2.3122,-2.3739,-2.3918,-2.3496,-2.2232,-2.109,-2.0119,-1.9392,-1.7759,-1.5148,-1.4115,0.0,0.0,0.0,0.0,0.0,0.0,0.0,0.0,0.0,0.0,0.0,0.0,0.0,0.0,0.0,0.0,0.0,0.0,0.0,-1.0679,-1.0781,-1.084,0.0,0.0,0.0,0.0,0.0,0.0,0.0,0.0,0.0,-1.5081,-1.6218,-1.7242,0.0,0.0,-2.0477,-2.1921,-2.253,-2.3177,-2.4078,0.0,0.0,0.0,-2.397,-2.4219,-2.4507,-2.4477,-2.3973,-2.2636,-2.1993,-2.1596,-2.1171,-2.0488,-1.9987,-2.0017,-1.8655,-1.7528,-1.7231,-1.6256,-1.5261,-1.4667,-1.3935,-1.3091,-3.2093,-2.8075,-2.699,-2.6439,-2.627,-2.595,-2.6075,-2.6497,-2.6568,-2.6833,-2.7161,-2.691,-2.6031,-2.4708,-2.4798,0.0,0.0,0.0,-2.8333,-2.9455,-3.0733,-3.092,-3.0196,-2.9868,-2.9231,-2.8391,-2.7998,-2.7777,-2.764,-2.7165,-2.5423,-2.2446,0.0,0.0,-2.0048,-2.1681,-2.273,-2.3207,-2.4475,-2.4729,-2.3881,-2.3894,-2.3972,-2.4048,-2.2651,-2.1491,-2.0718,-1.9978,-1.8265,-1.5433,-1.4582,-1.3363,0.0,0.0,0.0,0.0,0.0,0.0,0.0,0.0,0.0,0.0,0.0,-0.8815,-0.9066,0.0,0.0,0.0,-0.9864,-1.0525,-1.1474,-1.1508,0.0,0.0,0.0,0.0,0.0,0.0,0.0,-1.479,-1.5866,-1.6698,-1.718,-1.8427,-1.9078,-1.8574,-1.9626,-2.0988,-2.2445,0.0,-2.3715,-2.4926,-2.5318,-2.5445,-2.5448,-2.5591,-2.5755,-2.5883,-2.5902,-2.535,-2.3834,-2.3417,-2.3115,-2.235,-2.1594,-2.1069,-2.0914,-1.9838,-1.8804,-1.8278,-1.7115,-1.6037,-1.5243,-1.4324,-1.3471,-3.5369,-3.4181,-3.1798,-3.0464,-2.9837,-2.923,-2.9463,-3.0301,-3.0363,-3.0931,-3.1727,-3.0953,-3.0185,-2.9425,-2.8255,0.0,0.0,-3.0482,-3.1568,-3.2334,-3.3554,-3.3682,-3.2886,-3.2121,-3.138,-3.0553,-2.9637,-2.9223,-2.9273,-2.92,-2.879,-2.7942,-2.5338,-2.39,-2.3714,-2.4406,-2.4711,-2.4575,-2.4643,-2.4643,-2.456,-2.368,-2.3524,-2.418,-2.2589,-2.1398,-2.0718,-1.9929,-1.8216,-1.5467,-1.4708,-1.372,-1.2273,0.0,0.0,0.0,0.0,0.0,0.0,0.0,0.0,0.0,0.0,0.0,0.0,0.0,0.0,0.0,-1.1143,0.0,-1.2169,-1.2145,0.0,0.0,0.0,-1.2818,-1.392,-1.4395,-1.533,-1.706,0.0,0.0,0.0,0.0,-2.0804,-1.9017,-1.9796,-2.1097,-2.2542,-2.3257,-2.417,-2.5569,-2.6212,-2.6691,-2.7088,-2.7108,-2.6845,-2.6371,-2.6485,-2.6006,-2.4413,-2.439,-2.4128,-2.2749,-2.2304,-2.189,-2.0761,-2.0531,-2.012,-1.9091,-1.8008,-1.6836,-1.5416,-1.4592,-1.39,-3.9472,-3.8442,-3.7191,-3.5067,-3.2513,-3.2377,-3.252,-3.282,-3.3053,-3.3284,-3.3487,-3.3333,-3.3105,-3.2736,-3.1047,-3.1238,-3.2891,-3.2942,-3.33,-3.3848,-3.4021,-3.3682,-3.2904,-3.2712,-3.2173,-3.1306,-3.055,-3.0372,-3.0751,-3.0764,-3.0334,-2.9582,-2.9414,-2.8197,-2.6031,-2.6657,-2.6455,-2.5355,-2.5896,-2.588,-2.5258,-2.3964,-2.3804,-2.4896,-2.2402,-2.0929,-2.0685,-1.9462,-1.769,-1.5452,-1.5657,-1.4954,-1.2979,-1.2705,0.0,0.0,0.0,0.0,0.0,0.0,0.0,0.0,0.0,-1.0334,-1.0462,0.0,-1.1336,0.0,-1.2593,-1.3529,-1.4078,-1.4878,0.0,0.0,-1.5275,-1.5738,-1.5936,-1.5935,-1.6647,-1.8415,-1.8679,-1.9084,-2.0133,-2.0881,-2.1299,-2.1192,-2.1589,-2.2255,-2.319,-2.32,-2.3756,-2.53,-2.6223,-2.6901,-2.767,-2.8226,-2.8108,-2.6868,-2.7013,-2.6641,-2.4834,-2.4698,-2.4582,-2.3887,-2.2989,-2.2294,-2.1903,-2.1327,-2.0439,-1.9452,-1.8232,-1.6938,-1.5798,-1.5011,-1.4359,-4.1163,-4.0545,-4.0072,-3.867,-3.672,-3.5261,-3.4745,-3.4904,-3.5103,-3.5412,-3.5779,-3.5825,-3.5582,-3.5069,-3.4257,-3.4433,-3.5361,-3.519,-3.5232,-3.5457,-3.518,-3.4663,-3.3938,-3.3921,-3.3296,-3.2154,-3.1033,-3.0822,-3.1376,-3.0989,-3.0915,-3.1164,-3.1498,-3.0855,-2.9247,-2.8619,-2.7926,-2.7131,-2.7503,-2.7164,-2.6017,-2.516,-2.4894,-2.5113,-2.2967,-2.1247,-2.024,-1.9416,-1.8021,-1.5923,-1.6188,-1.568,-1.4171,-1.4081,-1.3575,0.0,0.0,0.0,0.0,0.0,0.0,0.0,0.0,0.0,0.0,0.0,-1.3513,0.0,-1.4987,0.0,-1.6458,-1.722,-1.7512,-1.7192,-1.7819,-1.8133,-1.7753,-1.7641,-1.8182,-1.9676,-1.974,-2.0071,-2.1188,-2.1625,-2.1917,-2.2249,-2.2318,-2.266,-2.3547,-2.3609,-2.4125,-2.5727,-2.657,-2.741,-2.8478,-2.8896,-2.8642,-2.7403,-2.7091,-2.6589,-2.5023,-2.4686,-2.4457,-2.3824,-2.3135,-2.2435,-2.1859,-2.131,-2.0558,-1.9556,-1.8594,-1.7511,-1.6283,-1.5548,-1.4945,-4.1757,-4.1505,-4.1487,-4.1338,-4.0935,-3.8025,-3.6838,-3.6864,-3.6948,-3.7465,-3.8209,-3.8228,-3.777,-3.6985,-3.7132,-3.7077,-3.6811,-3.6753,-3.6642,-3.6499,-3.6281,-3.5787,-3.5079,-3.5145,-3.4387,-3.2869,-3.138,-3.105,-3.1718,-3.0912,-3.1225,-3.2567,-3.2503,-3.2395,-3.2226,-3.0279,-2.923,-2.9145,-2.9044,-2.8364,-2.7042,-2.6772,-2.6266,-2.5429,-2.38,-2.1913,-1.9863,-1.9565,-1.8505,-1.6553,-1.6503,-1.6215,-1.5502,-1.5452,-1.5143,0.0,-1.4457,0.0,0.0,0.0,0.0,0.0,0.0,0.0,0.0,-1.501,-1.6156,-1.7824,-1.7757,-1.8035,-1.8989,-1.9383,-1.958,-1.959,-2.0175,-2.0306,-1.958,-1.9406,-1.9759,-2.0843,-2.088,-2.1241,-2.2349,-2.2544,-2.2597,-2.2931,-2.2756,-2.3039,-2.3959,-2.4028,-2.4319,-2.6086,-2.7068,-2.8102,-2.9341,-2.9446,-2.8844,-2.7746,-2.711,-2.6336,-2.5166,-2.47,-2.4166,-2.3303,-2.2914,-2.2371,-2.1109,-2.0824,-2.0494,-1.9686,-1.9112,-1.83,-1.6977,-1.6257,-1.5762,-4.3135,-4.251,-4.251,-4.2124,-4.1445,-4.0833,-4.0108,-3.9427,-3.9592,-3.9756,-3.9918,-3.9951,-3.9764,-3.939,-3.7989,-3.7174,-3.6821,-3.5828,-3.5242,-3.5037,-3.532,-3.5094,-3.4436,-3.4944,-3.4387,-3.2904,-3.1988,-3.1898,-3.2578,-3.2288,-3.2582,-3.3369,-3.3266,-3.2919,0.0,0.0,0.0,0.0,-2.9297,-2.9036,-2.9082,-2.7977,-2.7252,-2.6854,-2.4298,0.0,-2.0569,-1.9333,-1.7992,-1.6536,-1.6972,0.0,0.0,0.0,0.0,0.0,0.0,0.0,0.0,0.0,0.0,0.0,-1.9232,-1.8799,-1.6739,-1.7646,-1.8641,-1.9262,-2.0005,-2.0594,-2.1006,-2.172,-2.2164,-2.2214,-2.2788,-2.273,-2.1612,-2.0973,-2.0959,-2.1663,-2.1231,-2.1492,-2.3114,-2.3279,-2.3449,-2.4102,-2.397,-2.4162,-2.4983,-2.3749,-2.3199,-2.4532,-2.6977,-2.899,-3.0358,-3.0155,-2.9444,-2.8224,-2.7413,-2.6694,-2.5803,-2.4902,-2.4133,-2.3224,-2.2565,-2.1848,-2.087,-2.0308,-2.02,-2.0313,-1.9778,-1.8902,-1.773,-1.7341,-1.7122,-4.3199,0.0,-4.3225,-4.315,0.0,-4.2779,-4.2269,-4.143,-4.1115,-4.0977,-4.0977,-4.0996,-4.0692,-4.0089,-3.8317,-3.7124,-3.6381,-3.4742,-3.4089,-3.4217,-3.4619,-3.4772,-3.4787,-3.5428,-3.5145,-3.4007,-3.3283,-3.3298,-3.3962,-3.3782,-3.4055,-3.4768,-3.4219,-3.3575,-3.2814,-3.1732,-3.0835,-3.0108,-3.0074,-2.9962,-2.9699,-2.903,-2.8402,-2.7798,0.0,0.0,0.0,0.0,0.0,0.0,0.0,0.0,0.0,0.0,0.0,-1.741,-1.7992,-1.8664,-1.9301,-2.0292,-2.1159,-2.1842,-2.2815,-2.2539,-2.0401,-2.0903,-2.1601,-2.2267,-2.2586,-2.2822,-2.3056,-2.3523,-2.3829,-2.3896,-2.4708,-2.4728,-2.3217,-2.2352,-2.22,-2.2686,-2.2033,-2.2112,-2.3971,-2.4353,-2.45,-2.4801,-2.479,-2.4954,-2.5399,-2.4495,-2.4213,-2.6089,-2.8366,-3.0234,-3.1025,-3.1077,-3.0569,-2.9596,-2.8639,-2.7628,-2.6643,-2.5515,-2.4382,-2.3411,-2.2725,-2.2088,-2.124,-2.0959,-2.0983,-2.0983,-2.0836,-2.0575,-1.9968,-1.9355,-1.8785,-4.2858,-4.2872,-4.367,-4.4005,-4.4005,-4.4005,-4.3615,-4.2965,0.0,0.0,0.0,-4.1962,-4.1431,-4.0341,-3.8596,-3.7151,-3.5911,-3.3957,-3.3327,-3.3862,-3.421,-3.4733,-3.5402,-3.6042,-3.6011,-3.5428,-3.4786,-3.489,-3.5576,-3.5347,-3.5566,-3.6044,-3.5081,-3.4037,-3.3,-3.1799,-3.0835,-3.0192,-3.0818,-3.0856,-3.0151,-3.0034,-2.9585,-2.879,-2.6634,-2.4514,-2.2459,-2.0839,-1.9333,-1.7967,-1.7735,-1.7657,-1.7702,-1.8323,-1.8821,-1.9213,-2.0402,-2.1492,-2.2297,-2.2915,-2.3774,-2.4987,-2.5613,-2.5389,-2.3982,-2.3982,-2.437,-2.51,-2.4865,-2.4765,-2.5061,-2.5116,-2.5259,-2.5477,-2.6576,-2.6533,-2.4704,-2.3949,-2.3722,-2.376,-2.2846,-2.2801,-2.4466,-2.5066,-2.5414,-2.5293,-2.5366,-2.566,-2.5976,-2.5868,-2.6357,-2.8366,-3.0121,-3.1469,-3.1863,-3.1976,-3.1754,-3.1128,-2.997,-2.8811,-2.7813,-2.644,-2.5073,-2.3936,-2.3384,-2.2731,-2.1856,-2.1921,-2.2197,-2.1897,-2.2159,-2.2516,-2.2585,-2.1909,-2.1029,-4.2858,-4.2853,-4.367,-4.4005,-4.4005,-4.4005,-4.3931,-4.3763,-4.2965,-4.263,-4.2667,-4.3373,-4.2816,-4.1315,-3.9461,-3.7698,-3.5985,-3.4063,-3.3486,0.0,-3.4535,-3.5092,-3.575,-3.6241,-3.643,-3.6309,-3.6105,-3.6404,-3.7077,-3.7016,-3.6958,-3.6778,-3.5402,-3.3613,-3.1684,-3.1292,-3.0818,-3.014,-3.0835,-3.1361,-3.1662,-3.1059,-3.0586,-3.0145,-2.8127,-2.6254,-2.4679,-2.2609,-2.082,-1.9383,-1.8704,-1.8356,-1.8389,-1.9003,-2.0184,-2.1929,-2.2769,-2.4022,-2.5877,-2.6094,-2.6445,-2.717,-2.7365,-2.6814,-2.5486,-2.5875,-2.6137,-2.5923,-2.6047,-2.6306,-2.6946,-2.674,-2.691,-2.794,-2.8753,-2.842,-2.6605,-2.6283,-2.5618,-2.4254,-2.3267,-2.3302,-2.4597,-2.4875,-2.5236,-2.583,-2.6042,-2.6176,-2.6919,-2.7563,-2.8415,-2.9697,-3.1054,-3.2123,-3.2768,-3.2849,-3.2597,-3.2184,-3.0948,-2.9964,-2.96,-2.8116,-2.6497,-2.5157,-2.4442,-2.3578,-2.2407,-2.2541,-2.3035,-2.3324,-2.3763,-2.4248,-2.4657,-2.4661,-2.4092,-4.298,-4.2966,-4.3766,-4.4089,-4.4005,-4.4005,-4.4005,-4.3968,-4.3615,-4.3448,-4.3485,-4.3838,-4.3339,-4.2087,-4.0325,-3.8773,-3.7422,-3.5622,-3.5087,-3.5679,-3.6166,-3.645,-3.6669,-3.7452,-3.7571,-3.7195,-3.781,-3.8336,-3.8646,-3.8568,-3.8477,-3.8294,-3.5944,-3.3718,-3.187,-3.1004,-3.0446,-3.0123,-3.0818,-3.1058,-3.0771,-3.0841,-3.0753,-3.0493,-2.8787,-2.7216,-2.5739,-2.3951,-2.2129,-2.0274,-1.9876,-1.9515,-1.9138,-2.0136,-2.1315,-2.2604,-2.4028,-2.5556,-2.7181,-2.8357,-2.927,-2.9955,-3.0036,-2.9755,-2.913,-2.9011,-2.893,-2.8812,-2.8606,-2.8498,-2.8562,-2.8121,-2.8187,-2.9102,-2.9755,-2.9639,-2.855,-2.7998,-2.7343,-2.6097,-2.4766,-2.437,-2.528,-2.5626,-2.5737,-2.6119,-2.6662,-2.7512,-2.8025,-2.9504,-3.0642,-3.0937,-3.21,-3.3078,-3.3566,-3.371,-3.36,-3.3293,-3.2468,-3.1524,-3.0799,-2.9324,-2.7728,-2.5997,-2.512,-2.4305,-2.3268,-2.3713,-2.4254,-2.4554,-2.53,-2.5829,-2.6141,-2.6221,-2.5423,-4.3259,-4.3003,-4.3845,-4.4119,-4.4005,-4.4005,-4.4005,-4.4005,-4.4005,-4.4005,-4.4005,-4.4005,-4.3528,-4.2591,-4.1098,-3.9881,-3.8884,-3.7386,-3.7016,-3.7596,-3.7895,-3.799,-3.796,-3.8702,-3.8716,-3.8309,-3.9214,-3.9784,-3.9922,-3.9686,-3.9278,-3.8591,-3.5902,-3.3739,-3.2351,-3.1024,-3.0192,-2.9939,-3.0751,-3.0721,-2.9764,-3.0302,-3.0586,-3.0427,-2.9284,-2.8075,-2.6932,-2.5375,-2.3619,-2.1829,-2.1381,-2.092,-2.0458,-2.1702,-2.283,-2.3669,-2.5504,-2.7182,-2.8473,-3.0038,-3.1303,-3.2017,-3.2228,-3.2293,-3.2301,-3.1952,-3.154,-3.1274,-3.0594,-3.019,-2.9805,-2.9332,-2.9303,-3.0017,-3.0626,-3.0655,-2.9943,-2.9392,-2.8651,-2.7621,-2.5966,-2.5038,-2.5502,-2.5894,-2.6039,-2.6271,-2.759,-2.8709,-2.929,-3.1119,-3.2141,-3.2368,-3.3106,-3.379,-3.4018,-3.4177,-3.4168,-3.4037,-3.3532,-3.2749,-3.1739,-3.0521,-2.8935,-2.7162,-2.6006,-2.5305,-2.4621,-2.5023,-2.5636,-2.5913,-2.6622,-2.7284,-2.7438,-2.7397,-2.6529,-4.3849,-4.3164,-4.3931,-4.4101,-4.4042,-4.4023,-4.4005,-4.4005,-4.4005,-4.4005,-4.4005,-4.4005,-4.3559,-4.2745,-4.1752,-4.0861,-4.0,-3.8939,-3.8844,-3.9347,-3.9153,-3.9265,-3.9591,-3.9317,-3.9364,-3.9733,-3.9772,-4.0164,-4.067,-4.0008,-3.8613,-3.6526,-3.4618,-3.3356,-3.2468,-3.1537,-3.0448,-2.9179,-3.048,-3.0721,-2.9764,-2.9764,-3.0049,-3.0472,-2.9728,-2.9268,-2.892,-2.7096,-2.559,-2.4679,-2.3421,-2.2675,-2.2725,-2.3885,-2.5236,-2.6566,-2.8001,-2.9452,-3.0789,-3.115,-3.1641,-3.2295,-3.2943,-3.327,-3.3286,-3.3794,-3.334,-3.1916,-3.1074,-3.0856,-3.0752,-3.0306,-3.0396,-3.1304,-3.1909,-3.1859,-3.0772,-3.0467,-2.9537,-2.7099,-2.5825,-2.4839,-2.4955,-2.4718,-2.5009,-2.6486,-2.7881,-2.9174,-3.0147,-3.1555,-3.28,-3.3227,-3.3926,-3.4028,-3.38,-3.4047,-3.4105,-3.3699,-3.3558,-3.3322,-3.2768,-3.1586,-2.9928,-2.8535,-2.7575,-2.6654,-2.61,-2.6382,-2.6875,-2.7078,-2.7717,-2.8438,-2.8907,-2.8855,-2.7874,-4.5782,-4.5386,-4.5672,-4.5416,-4.4808,-4.4243,-4.4005,-4.4005,-4.4005,-4.4005,-4.4005,-4.4005,-4.3801,-4.3485,-4.3089,-4.274,-4.2372,-4.2011,-4.1923,-4.2097,-4.2157,-4.1722,-4.0893,-4.1633,-4.1356,-4.0242,-4.0729,-4.1015,-4.0774,-4.0101,-3.8515,-3.6324,-3.5018,-3.4042,-3.3084,-3.146,-3.0266,-2.9704,-2.9822,-2.9865,-2.988,-3.0208,-3.0436,-3.0481,-3.0208,-2.9612,-2.887,-2.8307,-2.7377,-2.5904,-2.5557,-2.531,-2.4878,-2.5787,-2.6922,-2.8329,-3.0089,-3.1483,-3.2449,-3.2548,-3.2859,-3.358,-3.3891,-3.4055,-3.4055,-3.4333,-3.4219,-3.3799,-3.2971,-3.2358,-3.2041,-3.1427,-3.132,-3.1928,-3.2341,-3.215,-3.1264,-3.1134,-3.0263,-2.8187,-2.6779,-2.5647,-2.5038,-2.4646,-2.5154,-2.6634,-2.8158,-2.9566,-3.0554,-3.2036,-3.3238,-3.3891,-3.4269,-3.4109,-3.3674,-3.4008,-3.4051,-3.3765,-3.3823,-3.3964,-3.3423,-3.271,-3.1287,-2.9597,-2.8762,-2.778,-2.655,-2.7088,-2.7642,-2.7876,-2.8122,-2.8679,-2.9196,-2.9051,-2.818,-4.7321,-4.7066,-4.6919,-4.643,-4.5693,-4.4984,-4.4544,-4.4358,-4.4358,-4.4228,-4.4023,-4.4005,-4.4005,-4.4005,-4.4005,-4.4005,-4.4005,-4.4005,-4.3945,-4.3878,-4.4198,-4.3431,-4.2056,-4.3026,-4.2582,-4.0946,-4.1544,-4.154,-4.0618,-4.0008,-3.8515,-3.6419,-3.5469,-3.4607,-3.3571,-3.1706,-3.0559,-3.0091,-2.9738,-2.9715,-2.9955,-3.0586,-3.0794,-3.0589,-3.0547,-2.995,-2.8774,-2.9152,-2.8602,-2.6932,-2.7332,-2.7448,-2.7129,-2.7777,-2.8801,-3.0153,-3.1819,-3.309,-3.3756,-3.3986,-3.4454,-3.5112,-3.521,-3.5227,-3.5227,-3.5227,-3.5407,-3.5684,-3.5071,-3.431,-3.354,-3.2849,-3.2552,-3.2795,-3.283,-3.2498,-3.1857,-3.164,-3.0756,-2.897,-2.7459,-2.63,-2.5295,-2.5197,-2.5894,-2.7012,-2.8536,-3.0059,-3.0959,-3.2324,-3.3427,-3.4254,-3.438,-3.4153,-3.3692,-3.3993,-3.4022,-3.3659,-3.3746,-3.4196,-3.3761,-3.3231,-3.2339,-3.051,-2.9906,-2.8986,-2.7684,-2.7792,-2.811,-2.8083,-2.8342,-2.8787,-2.922,-2.9027,-2.8757,-4.8007,-4.7217,-4.6847,-4.6698,-4.6531,-4.6376,-4.5918,-4.5247,-4.5247,-4.4785,-4.4172,-4.4116,-4.4042,-4.4098,-4.4116,-4.4005,-4.4005,-4.4061,-4.4051,-4.4015,-4.4396,-4.3944,-4.2899,-4.3036,-4.2622,-4.167,-4.2125,-4.1525,-3.9963,-3.9715,-3.8543,-3.6383,-3.5511,-3.4686,-3.3806,-3.2804,-3.1633,-3.0448,-3.07,-3.0695,-3.0109,-3.0642,-3.0895,-3.0712,-3.0692,-3.0248,-2.9417,-2.9363,-2.9052,-2.829,-2.8392,-2.8655,-2.9251,-2.998,-3.1023,-3.2398,-3.3309,-3.4064,-3.4826,-3.5447,-3.6117,-3.6762,-3.677,-3.6928,-3.6754,-3.6737,-3.6778,-3.7002,-3.6843,-3.6349,-3.5443,-3.4439,-3.4028,-3.4146,-3.378,-3.322,-3.2454,-3.1905,-3.0684,-2.9014,-2.7617,-2.6454,-2.5207,-2.5966,-2.6823,-2.7694,-2.8812,-3.0204,-3.1729,-3.244,-3.3137,-3.4022,-3.4341,-3.4182,-3.3688,-3.4008,-3.3804,-3.3441,-3.3761,-3.4351,-3.4081,-3.3595,-3.2454,-3.1506,-3.0822,-2.9914,-2.8741,-2.8288,-2.8453,-2.8585,-2.8799,-2.9169,-2.9407,-2.9742,-2.9456,-4.9131,-4.8658,-4.7969,-4.7623,-4.7492,-4.6845,-4.639,-4.6148,-4.6081,-4.59,-4.5639,-4.5584,-4.5584,-4.5565,-4.5064,-4.4525,-4.4098,-4.4562,-4.4774,-4.4807,-4.5733,-4.5663,-4.4777,-4.5318,-4.4507,-4.2917,-4.3395,-4.2642,-4.0584,-3.9957,-3.8801,-3.7129,-3.578,-3.4936,-3.436,-3.3222,-3.2182,-3.1549,-3.1343,-3.1019,-3.0779,-3.0996,-3.1072,-3.0895,-3.0773,-3.0085,-2.8807,-2.9632,-2.9777,-2.9085,-2.993,-3.0775,-3.1487,-3.2216,-3.3044,-3.4021,-3.4783,-3.5528,-3.6208,-3.6555,-3.6804,-3.7052,-3.7119,-3.7152,-3.7119,-3.7135,-3.7301,-3.7698,-3.7814,-3.7607,-3.7235,-3.5853,-3.4651,-3.4379,-3.4386,-3.383,-3.2671,-3.2273,-3.1555,-2.9371,-2.7859,-2.6836,-2.6615,-2.7039,-2.7756,-2.8346,-2.9435,-3.0626,-3.1553,-3.2191,-3.293,-3.3949,-3.408,-3.3877,-3.4153,-3.4225,-3.4182,-3.3775,-3.3819,-3.424,-3.4201,-3.4057,-3.3168,-3.2396,-3.1715,-3.104,-2.9941,-2.895,-2.9045,-2.9086,-2.9319,-2.9432,-2.9626,-2.9736,-2.9479,-5.0591,-5.038,-4.9762,-4.9276,-4.8887,-4.8133,-4.7513,-4.7018,-4.6917,-4.6754,-4.655,-4.6513,-4.6513,-4.642,-4.5918,-4.5398,-4.4859,-4.5175,-4.5236,-4.5319,-4.6612,-4.6709,-4.5952,-4.6488,-4.5595,-4.3616,-4.3933,-4.3339,-4.1799,-4.1078,-3.9767,-3.7892,-3.6749,-3.5666,-3.4607,-3.3502,-3.2719,-3.2052,-3.1447,-3.119,-3.119,-3.119,-3.1131,-3.1029,-3.1093,-3.0419,-2.8954,-3.0214,-3.0609,-3.012,-3.1231,-3.2459,-3.341,-3.4436,-3.5207,-3.5756,-3.6438,-3.7045,-3.7527,-3.7776,-3.7943,-3.7926,-3.7891,-3.7866,-3.7866,-3.784,-3.8063,-3.8427,-3.8576,-3.8632,-3.834,-3.7114,-3.5865,-3.5183,-3.5097,-3.4495,-3.2964,-3.2873,-3.1839,-2.9894,-2.8552,-2.788,-2.7744,-2.823,-2.8674,-2.897,-2.9958,-3.0785,-3.1424,-3.2075,-3.2698,-3.3583,-3.3862,-3.3862,-3.4008,-3.4138,-3.4124,-3.379,-3.3906,-3.4254,-3.4322,-3.4221,-3.3926,-3.3254,-3.2651,-3.2014,-3.116,-3.0034,-2.9656,-2.9628,-2.9617,-2.9732,-2.97,-2.9549,-2.9361,-5.2281,-5.2137,-5.219,-5.1427,-5.0598,-5.0228,-4.9314,-4.8075,-4.777,-4.7384,-4.6901,-4.6661,-4.6791,-4.6624,-4.6587,-4.6457,-4.629,-4.5732,-4.5472,-4.5663,-4.6883,-4.7002,-4.6195,-4.6426,-4.5623,-4.3786,-4.3576,-4.3471,-4.3111,-4.2827,-4.1447,-3.9134,-3.8439,-3.6861,-3.4037,-3.385,-3.2966,-3.1771,-3.1317,-3.121,-3.119,-3.119,-3.1185,-3.1187,-3.1705,-3.1358,-2.9984,-3.1256,-3.1596,-3.1045,-3.2145,-3.3595,-3.4962,-3.6308,-3.735,-3.7409,-3.8104,-3.8447,-3.8631,-3.9175,-3.9417,-3.9391,-3.9463,-3.9225,-3.9149,-3.912,-3.9116,-3.9149,-3.9156,-3.9148,-3.8799,-3.843,-3.7694,-3.6798,-3.5991,-3.5192,-3.4252,-3.341,-3.2237,-3.0437,-2.9418,-2.9085,-2.9076,-2.9443,-2.9782,-2.974,-3.0191,-3.0802,-3.1295,-3.1876,-3.2353,-3.2756,-3.3133,-3.3441,-3.3688,-3.3954,-3.3819,-3.3761,-3.4095,-3.4385,-3.4269,-3.4143,-3.4013,-3.3475,-3.3146,-3.2567,-3.1852,-3.0837,-3.0511,-3.0426,-3.0268,-3.0154,-3.0087,-2.9973,-2.9487,-5.24,-5.2317,-5.2269,-5.205,-5.1575,-5.092,-5.0223,-4.9641,-4.8988,-4.8528,-4.8306,-4.82,-4.8166,-4.8017,-4.759,-4.7348,-4.7256,-4.6531,-4.642,-4.7016,-4.793,-4.8122,-4.774,-4.7542,-4.6719,-4.5446,-4.4624,-4.4193,-4.393,-4.3465,-4.2102,-4.0377,-3.9134,-3.755,-3.5517,-3.4428,-3.3265,-3.2233,-3.1565,-3.1235,-3.119,-3.119,-3.1407,-3.1861,-3.2114,-3.2178,-3.2306,-3.2601,-3.2574,-3.2233,-3.3233,-3.4482,-3.5787,-3.6463,-3.7224,-3.8087,-3.7936,-3.8355,-3.9268,-3.9553,-3.9703,-3.9677,-3.9563,-3.9484,-3.9484,-3.9395,-3.9315,-3.9315,-3.9299,-3.9202,-3.9051,-3.9263,-3.8743,-3.7345,-3.694,-3.6187,-3.4797,-3.32,-3.1633,-3.065,-3.0188,-3.0013,-3.002,-3.0437,-3.0468,-3.0059,-3.047,-3.0953,-3.1068,-3.1299,-3.1735,-3.2353,-3.2643,-3.2991,-3.3325,-3.3761,-3.3978,-3.3949,-3.4196,-3.4167,-3.4051,-3.3891,-3.3775,-3.3705,-3.3425,-3.3059,-3.2335,-3.1771,-3.1359,-3.1206,-3.1129,-3.0985,-3.083,-3.0452,-2.9933,-5.3138,-5.3305,-5.3303,-5.3006,-5.2586,-5.1924,-5.1453,-5.097,-5.0019,-4.9732,-4.9867,-4.952,-4.9559,-4.9596,-4.8964,-4.863,-4.8537,-4.7757,-4.7497,-4.7664,-4.7813,-4.8044,-4.8034,-4.7539,-4.701,-4.6229,-4.5254,-4.4788,-4.4785,-4.4276,-4.3308,-4.174,-4.0221,-3.8503,-3.6681,-3.4847,-3.3459,-3.2548,-3.1723,-3.1274,-3.1193,-3.119,-3.1565,-3.2209,-3.2544,-3.3068,-3.3723,-3.3936,-3.3822,-3.3768,-3.47,-3.5954,-3.6827,-3.7211,-3.7689,-3.8085,-3.8253,-3.8488,-3.9354,-3.9656,-3.9858,-3.9833,-3.9694,-3.9606,-3.9537,-3.9432,-3.9315,-3.9315,-3.9315,-3.9344,-3.955,-3.9814,-3.954,-3.8704,-3.8231,-3.7168,-3.5411,-3.3682,-3.2632,-3.2123,-3.1629,-3.1259,-3.1217,-3.0758,-3.0774,-3.0276,-3.0454,-3.0822,-3.0807,-3.1085,-3.1563,-3.2038,-3.2472,-3.2759,-3.3064,-3.3543,-3.4095,-3.4196,-3.4283,-3.3964,-3.3721,-3.3441,-3.3235,-3.3408,-3.3289,-3.3388,-3.2783,-3.2266,-3.1853,-3.1888,-3.192,-3.1676,-3.1397,-3.0857,-3.0259,-5.4329,-5.5004,-5.4903,-5.4311,-5.3573,-5.3327,-5.2711,-5.1893,-5.0885,-5.0788,-5.1131,-5.0505,-5.0506,-5.0933,-5.0135,-4.9819,-4.9875,-4.8927,-4.8166,-4.7553,-4.7034,-4.6822,-4.7243,-4.668,-4.6382,-4.6241,-4.5488,-4.5227,-4.5459,-4.5381,-4.4811,-4.3138,-4.1585,-3.9807,-3.7538,-3.518,-3.3534,-3.2474,-3.1694,-3.1293,-3.1108,-3.119,-3.1613,-3.2395,-3.3,-3.3711,-3.4523,-3.516,-3.5234,-3.4824,-3.6468,-3.7578,-3.7872,-3.855,-3.8456,-3.8229,-3.8667,-3.8862,-3.9174,-3.9724,-4.0045,-4.0037,-3.9833,-3.9703,-3.9651,-3.9575,-3.9514,-3.9514,-3.9564,-3.9785,-4.0271,-4.0547,-4.0471,-4.0358,-3.9346,-3.7817,-3.5909,-3.4921,-3.4412,-3.4158,-3.3425,-3.2527,-3.2303,-3.1351,-3.0656,-3.023,-3.0305,-3.0631,-3.0808,-3.11,-3.1229,-3.1647,-3.2167,-3.2483,-3.2759,-3.3732,-3.4283,-3.4695,-3.468,-3.4269,-3.3823,-3.3485,-3.3541,-3.3638,-3.3605,-3.3654,-3.3382,-3.2856,-3.2625,-3.2707,-3.2582,-3.2277,-3.1847,-3.1322,-3.0552,-5.4045,-5.4191,-5.4676,-5.4693,-5.4286,-5.3707,-5.3217,-5.2738,-5.1729,-5.1384,-5.1481,-5.121,-5.0859,-5.0469,-5.0265,-4.9819,-4.9262,-4.8444,-4.7961,-4.7497,-4.6215,-4.6168,-4.6688,-4.647,-4.6337,-4.6395,-4.6013,-4.582,-4.576,-4.5667,-4.5036,-4.3983,-4.2482,-4.0584,-3.8284,-3.6056,-3.3802,-3.2068,-3.1634,-3.1111,-3.0618,-3.097,-3.1833,-3.3017,-3.3288,-3.4083,-3.5233,-3.6079,-3.6417,-3.6293,-3.761,-3.8553,-3.8584,-3.8439,-3.8582,-3.9089,-3.865,-3.8717,-3.9588,-3.9977,-4.0096,-4.0087,-3.9858,-3.9703,-3.972,-3.9957,-4.0088,-4.021,-4.0498,-4.0839,-4.1052,-4.1321,-4.1316,-4.0768,-3.9601,-3.8098,-3.6694,-3.6088,-3.5804,-3.525,-3.4487,-3.3783,-3.3124,-3.2333,-3.1409,-3.0739,-3.077,-3.1056,-3.1132,-3.116,-3.135,-3.14,-3.1772,-3.2121,-3.264,-3.3703,-3.4501,-3.5087,-3.5131,-3.4907,-3.4472,-3.4124,-3.4485,-3.4902,-3.4746,-3.4711,-3.4094,-3.3472,-3.3501,-3.3312,-3.2926,-3.2457,-3.2243,-3.1818,-3.0922,-5.369,-5.3981,-5.4629,-5.4826,-5.4642,-5.3799,-5.3518,-5.3395,-5.2216,-5.2038,-5.2359,-5.2084,-5.1639,-5.1138,-5.0803,-5.0209,-4.9373,-4.824,-4.772,-4.7516,-4.6387,-4.5839,-4.588,-4.6019,-4.6324,-4.6262,-4.6288,-4.6102,-4.5887,-4.577,-4.5329,-4.4587,-4.3258,-4.1516,-3.9618,-3.7301,-3.4943,-3.2892,-3.2149,-3.1504,-3.0702,-3.0954,-3.1952,-3.3068,-3.3457,-3.4303,-3.6282,-3.7313,-3.7719,-3.7872,-3.8466,-3.8914,-3.8954,-3.8616,-3.8633,-3.9191,-3.8599,-3.8785,-3.9445,-3.991,-4.0113,-4.0087,-3.9884,-3.9992,-4.0208,-4.0475,-4.0623,-4.105,-4.1405,-4.1626,-4.1754,-4.1852,-4.1534,-4.0807,-3.9801,-3.8622,-3.7413,-3.7045,-3.6881,-3.6462,-3.5684,-3.4683,-3.3994,-3.2916,-3.1884,-3.1227,-3.1198,-3.1367,-3.1486,-3.1456,-3.1381,-3.1416,-3.1787,-3.228,-3.2977,-3.3964,-3.514,-3.5726,-3.6075,-3.5778,-3.5212,-3.483,-3.5018,-3.5397,-3.5597,-3.5495,-3.4695,-3.3944,-3.3445,-3.3199,-3.2904,-3.2694,-3.25,-3.2465,-3.1509,-5.3238,-5.4034,-5.4558,-5.478,-5.4635,-5.3912,-5.3844,-5.396,-5.2685,-5.2693,-5.346,-5.2958,-5.2345,-5.2438,-5.1249,-5.0673,-4.9745,-4.8277,-4.772,-4.7332,-4.6689,-4.6095,-4.526,-4.5871,-4.623,-4.6212,-4.6318,-4.6167,-4.6003,-4.5871,-4.5658,-4.5062,-4.3949,-4.2447,-4.0584,-3.8582,-3.6315,-3.397,-3.2986,-3.2134,-3.1331,-3.1326,-3.2036,-3.2966,-3.4032,-3.5487,-3.755,-3.8717,-3.914,-3.936,-3.9191,-3.9242,-3.9225,-3.9208,-3.8836,-3.8548,-3.8802,-3.8988,-3.9225,-3.9842,-4.0113,-4.0087,-4.0062,-4.028,-4.08,-4.1054,-4.1431,-4.1872,-4.201,-4.2185,-4.2094,-4.1947,-4.1188,-4.0396,-3.9897,-3.9335,-3.8527,-3.7883,-3.7853,-3.8257,-3.6791,-3.5564,-3.4382,-3.311,-3.1809,-3.1795,-3.1884,-3.2109,-3.2152,-3.2105,-3.179,-3.1355,-3.1903,-3.26,-3.3398,-3.4254,-3.5503,-3.6475,-3.6983,-3.6881,-3.6098,-3.5693,-3.5538,-3.5683,-3.6284,-3.6014,-3.5068,-3.4381,-3.3691,-3.3361,-3.3262,-3.3045,-3.2813,-3.2926,-3.2375,-5.2472,-5.3204,-5.3786,-5.4318,-5.4626,-5.4382,-5.4251,-5.4213,-5.3699,-5.3497,-5.3721,-5.2996,-5.2252,-5.1621,-5.0748,-4.9633,-4.8481,-4.7813,-4.7404,-4.6828,-4.7313,-4.6769,-4.5971,-4.6029,-4.6337,-4.6647,-4.6181,-4.5988,-4.6052,-4.5922,-4.5684,-4.5294,-4.4501,-4.3,-4.0963,-3.9301,-3.6836,-3.4346,-3.3584,-3.2699,-3.1656,-3.1785,-3.2209,-3.2852,-3.4764,-3.7144,-3.9073,-3.9783,-4.0426,-4.1001,-4.0553,-4.0079,-4.029,-3.9597,-3.9208,-3.9368,-3.9165,-3.9283,-3.9732,-3.9977,-4.0113,-4.0189,-4.0492,-4.0836,-4.1038,-4.198,-4.2412,-4.2734,-4.2945,-4.2736,-4.1979,-4.1365,-4.0523,-3.965,-3.9092,-3.8577,-3.7997,-3.8342,-3.8796,-3.8676,-3.7778,-3.6552,-3.5415,-3.4427,-3.338,-3.2647,-3.2616,-3.2898,-3.2968,-3.293,-3.2359,-3.1862,-3.2324,-3.3006,-3.3296,-3.4298,-3.5648,-3.6562,-3.7128,-3.7593,-3.6809,-3.6584,-3.6411,-3.6712,-3.7243,-3.6589,-3.5614,-3.4775,-3.412,-3.3902,-3.3726,-3.3641,-3.3607,-3.3543,-3.3529,-5.2033,-5.2449,-5.3029,-5.3414,-5.3573,-5.3389,-5.3418,-5.3565,-5.3441,-5.333,-5.3256,-5.2772,-5.1955,-5.0785,-4.9912,-4.8834,-4.7831,-4.7274,-4.6921,-4.6754,-4.7311,-4.7595,-4.7306,-4.6488,-4.6375,-4.6855,-4.6171,-4.5939,-4.6115,-4.603,-4.5744,-4.5528,-4.5053,-4.3671,-4.1636,-4.0215,-3.8045,-3.5505,-3.4442,-3.3451,-3.2173,-3.2093,-3.2564,-3.3207,-3.5407,-3.7821,-3.9809,-4.0434,-4.161,-4.2405,-4.1627,-4.0747,-4.095,-4.0155,-3.9808,-3.991,-3.9808,-3.9656,-4.0011,-4.013,-4.0265,-4.0603,-4.0949,-4.1497,-4.195,-4.2818,-4.3109,-4.3231,-4.3195,-4.2785,-4.1445,-4.05,-3.9646,-3.8845,-3.811,-3.7477,-3.7259,-3.7868,-3.8446,-3.8302,-3.7464,-3.6537,-3.5669,-3.5055,-3.4801,-3.3962,-3.3986,-3.4248,-3.4413,-3.4236,-3.3235,-3.2824,-3.3111,-3.3402,-3.3398,-3.4269,-3.5735,-3.6388,-3.6722,-3.7186,-3.7128,-3.7179,-3.7345,-3.7564,-3.7715,-3.7173,-3.6258,-3.5416,-3.4761,-3.4641,-3.4534,-3.4478,-3.4534,-3.466,-3.4632,-5.177,-5.1849,-5.232,-5.2473,-5.2357,-5.2112,-5.2263,-5.2616,-5.2493,-5.2438,-5.2364,-5.2327,-5.1305,-5.0228,-4.915,-4.8259,-4.7293,-4.6698,-4.6252,-4.6624,-4.733,-4.8,-4.8116,-4.7294,-4.6617,-4.6617,-4.5929,-4.5886,-4.6223,-4.6154,-4.5879,-4.5667,-4.5589,-4.4284,-4.2489,-4.136,-3.9514,-3.6818,-3.5758,-3.4434,-3.2968,-3.2646,-3.294,-3.3846,-3.5571,-3.7973,-3.9935,-4.0967,-4.21,-4.4079,-4.2252,-4.1305,-4.1001,-4.0527,-4.0113,-4.0113,-4.0028,-4.0045,-4.0113,-4.0265,-4.0578,-4.1187,-4.1525,-4.2074,-4.301,-4.3328,-4.3489,-4.3339,-4.3078,-4.2093,-4.0779,-4.0002,-3.913,-3.8296,-3.7244,-3.6596,-3.6297,-3.6671,-3.6911,-3.7255,-3.6836,-3.6088,-3.5804,-3.5415,-3.5429,-3.5424,-3.5457,-3.5515,-3.5642,-3.5331,-3.4266,-3.3551,-3.375,-3.4114,-3.4167,-3.424,-3.5726,-3.617,-3.6417,-3.6809,-3.7259,-3.7585,-3.7721,-3.7812,-3.7776,-3.7343,-3.6869,-3.6108,-3.5642,-3.546,-3.5302,-3.5208,-3.5456,-3.578,-3.5653,-5.1318,-5.1873,-5.1741,-5.1961,-5.2295,-5.2037,-5.1815,-5.1795,-5.1693,-5.1602,-5.1509,-5.0859,-5.0488,-4.9707,-4.8519,-4.7125,-4.6011,-4.5565,-4.5862,-4.6494,-4.7274,-4.8036,-4.8503,-4.7697,-4.7371,-4.7188,-4.629,-4.5823,-4.633,-4.6301,-4.6013,-4.5786,-4.5597,-4.4542,-4.3162,-4.2102,-4.0416,-3.8012,-3.6903,-3.5459,-3.3805,-3.3128,-3.3405,-3.4155,-3.5757,-3.799,-4.0223,-4.1119,-4.1948,-4.32,-4.1441,-4.0882,-4.1001,-4.062,-4.0265,-4.0113,-4.0113,-4.0113,-4.0248,-4.0679,-4.1001,-4.1457,-4.2219,-4.2902,-4.3449,-4.3732,-4.3755,-4.3177,-4.2349,-4.1243,-4.0393,-3.9788,-3.8963,-3.8027,-3.73,-3.6611,-3.5489,-3.5145,-3.5624,-3.6252,-3.5998,-3.5908,-3.5908,-3.6025,-3.6216,-3.6343,-3.6427,-3.6458,-3.6544,-3.6064,-3.5137,-3.4583,-3.4254,-3.4661,-3.5058,-3.5043,-3.5566,-3.588,-3.6185,-3.6562,-3.707,-3.7752,-3.8026,-3.8037,-3.8011,-3.7801,-3.7291,-3.6675,-3.633,-3.6038,-3.5949,-3.5911,-3.6075,-3.623,-3.6385,-5.1042,-5.1279,-5.1028,-5.1025,-5.1199,-5.1224,-5.1141,-5.1029,-5.1265,-5.1138,-5.0729,-5.0265,-4.9578,-4.8742,-4.7664,-4.6178,-4.5008,-4.4636,-4.5324,-4.6345,-4.6958,-4.7794,-4.865,-4.7863,-4.8033,-4.7868,-4.6832,-4.6105,-4.6601,-4.6447,-4.6161,-4.5833,-4.543,-4.4462,-4.3205,-4.193,-4.0451,-3.8659,-3.7325,-3.5775,-3.3741,-3.2978,-3.2927,-3.407,-3.5453,-3.7483,-3.9597,-4.0967,-4.1694,-4.2405,-4.1813,-4.1542,-4.1525,-4.139,-4.0891,-4.0316,-4.0163,-4.0333,-4.0578,-4.1085,-4.1491,-4.2354,-4.3054,-4.3589,-4.3905,-4.4063,-4.368,-4.2584,-4.1705,-4.0578,-3.9844,-3.9646,-3.9187,-3.8502,-3.7599,-3.6537,-3.5612,-3.4607,-3.4878,-3.5552,-3.5624,-3.5863,-3.6417,-3.6623,-3.6973,-3.7179,-3.7351,-3.7405,-3.7433,-3.6741,-3.5913,-3.5165,-3.469,-3.4767,-3.5131,-3.5218,-3.5174,-3.543,-3.588,-3.6257,-3.6939,-3.7651,-3.8028,-3.8165,-3.8138,-3.8371,-3.7701,-3.7125,-3.6878,-3.6578,-3.6448,-3.6382,-3.6515,-3.6627,-3.6634,-5.0723,-5.0784,-5.0498,-5.0279,-5.0152,-5.027,-5.0279,-5.0282,-5.0615,-5.0469,-4.993,-4.9782,-4.9039,-4.7776,-4.6661,-4.5454,-4.4061,-4.4042,-4.4989,-4.6252,-4.6587,-4.7367,-4.8263,-4.8307,-4.8218,-4.8691,-4.7897,-4.7007,-4.7013,-4.6655,-4.6308,-4.587,-4.5162,-4.4329,-4.3368,-4.2102,-4.0377,-3.8813,-3.727,-3.5616,-3.3652,-3.2176,-3.1901,-3.3372,-3.4844,-3.6715,-3.9005,-4.0257,-4.1356,-4.2016,-4.21,-4.2066,-4.2252,-4.2286,-4.1728,-4.079,-4.0553,-4.0908,-4.1255,-4.1711,-4.2277,-4.3017,-4.3422,-4.3867,-4.3972,-4.3735,-4.3033,-4.1656,-4.082,-4.0196,-3.9595,-3.9275,-3.9065,-3.8571,-3.7419,-3.6282,-3.5627,-3.4923,-3.4503,-3.4921,-3.528,-3.5968,-3.6716,-3.731,-3.7675,-3.7896,-3.8028,-3.79,-3.7857,-3.7412,-3.6612,-3.5654,-3.5067,-3.4869,-3.4971,-3.5087,-3.4942,-3.4806,-3.5357,-3.5886,-3.6693,-3.7578,-3.7918,-3.8417,-3.9015,-3.9093,-3.8318,-3.7471,-3.7021,-3.6732,-3.6766,-3.661,-3.6341,-3.6328,-3.6358,-5.022,-5.0764,-5.0498,-5.0279,-5.0057,-4.9743,-4.949,-4.9403,-4.9367,-4.9169,-4.915,-4.9002,-4.8519,-4.7386,-4.603,-4.4915,-4.4246,-4.4098,-4.4896,-4.6308,-4.655,-4.7348,-4.8687,-4.8748,-4.8901,-4.9322,-4.893,-4.8467,-4.8036,-4.7228,-4.6411,-4.5975,-4.5075,-4.4416,-4.3594,-4.212,-4.1119,-3.9526,-3.7991,-3.5748,-3.3174,-3.1817,-3.2192,-3.3508,-3.4979,-3.6721,-3.8785,-3.9986,-4.095,-4.1999,-4.1711,-4.1745,-4.2134,-4.2303,-4.2269,-4.2083,-4.2033,-4.211,-4.2252,-4.2608,-4.2949,-4.3367,-4.3642,-4.3884,-4.3604,-4.3003,-4.2173,-4.1227,-4.0547,-3.9945,-3.9343,-3.8901,-3.8347,-3.7853,-3.724,-3.6088,-3.528,-3.5507,-3.5058,-3.5385,-3.6088,-3.6641,-3.7285,-3.7863,-3.8376,-3.8557,-3.8679,-3.8487,-3.8185,-3.7666,-3.7374,-3.649,-3.5507,-3.5204,-3.4911,-3.5004,-3.4565,-3.4283,-3.4894,-3.5522,-3.6266,-3.7195,-3.8355,-3.889,-3.9338,-3.9028,-3.7788,-3.707,-3.6889,-3.6522,-3.6137,-3.5937,-3.5817,-3.5871,-3.5897,-4.8964,-5.0081,-5.0306,-5.0279,-5.0038,-4.9592,-4.9321,-4.9179,-4.8976,-4.889,-4.8797,-4.8389,-4.7534,-4.6345,-4.5045,-4.4395,-4.4061,-4.4042,-4.4934,-4.6234,-4.6643,-4.7367,-4.8687,-4.9304,-4.9676,-4.9959,-5.0047,-4.9985,-4.9297,-4.8034,-4.6824,-4.5596,-4.4582,-4.36,-4.3093,-4.1492,-4.0198,-3.8641,-3.6732,-3.4507,-3.2966,-3.2241,-3.2713,-3.4535,-3.5673,-3.7195,-3.8759,-4.0172,-4.0899,-4.1779,-4.1948,-4.2564,-4.2861,-4.298,-4.3064,-4.3572,-4.3132,-4.2929,-4.2963,-4.324,-4.3485,-4.3573,-4.3648,-4.3303,-4.2707,-4.2078,-4.1444,-4.0771,-4.0335,-3.9758,-3.9187,-3.896,-3.8586,-3.8003,-3.7135,-3.6686,-3.5953,-3.5804,-3.5878,-3.6387,-3.6866,-3.7404,-3.7913,-3.8417,-3.8728,-3.8648,-3.8686,-3.8568,-3.817,-3.7659,-3.7482,-3.737,-3.6352,-3.5518,-3.5139,-3.4932,-3.4172,-3.3973,-3.464,-3.5244,-3.5807,-3.6726,-3.7748,-3.8246,-3.8257,-3.7738,-3.6931,-3.6598,-3.6375,-3.5843,-3.5332,-3.5154,-3.4989,-3.4964,-3.5073,-4.7805,-4.8951,-4.9778,-5.0122,-5.0082,-4.9669,-4.9402,-4.9244,-4.9047,-4.8943,-4.8647,-4.7885,-4.6605,-4.5379,-4.4525,-4.4079,-4.4023,-4.4209,-4.5194,-4.6122,-4.6865,-4.7664,-4.8761,-4.96,-5.025,-5.083,-5.0787,-5.078,-5.0317,-4.9121,-4.73,-4.5631,-4.439,-4.3201,-4.1916,-4.0578,-3.925,-3.7422,-3.5252,-3.3621,-3.2707,-3.2394,-3.3563,-3.5081,-3.6434,-3.7489,-3.8954,-4.0392,-4.117,-4.1762,-4.2632,-4.3206,-4.3291,-4.3318,-4.3301,-4.3589,-4.3284,-4.3291,-4.3403,-4.3629,-4.39,-4.3919,-4.3556,-4.2909,-4.1959,-4.1335,-4.0891,-4.0424,-4.0106,-3.9496,-3.8947,-3.8901,-3.8347,-3.7808,-3.721,-3.7105,-3.6926,-3.6477,-3.6417,-3.6896,-3.7434,-3.8138,-3.8631,-3.905,-3.9109,-3.8848,-3.8708,-3.8612,-3.8222,-3.7723,-3.761,-3.7589,-3.6878,-3.5781,-3.4944,-3.454,-3.3806,-3.3503,-3.4144,-3.4492,-3.4822,-3.5756,-3.6884,-3.7137,-3.7097,-3.6793,-3.6197,-3.602,-3.5776,-3.5101,-3.4551,-3.4308,-3.4166,-3.4182,-3.4343,-4.7144,-4.7399,-4.8788,-4.9644,-5.0121,-4.9824,-4.957,-4.9368,-4.9164,-4.8991,-4.8585,-4.74,-4.6178,-4.5212,-4.4432,-4.4005,-4.4042,-4.4841,-4.5639,-4.6457,-4.7274,-4.8017,-4.8947,-4.9729,-5.0435,-5.0885,-5.1282,-5.1399,-5.0808,-4.962,-4.8293,-4.7081,-4.4757,-4.3218,-4.1847,-4.044,-3.8336,-3.6521,-3.4583,-3.3656,-3.3014,-3.2856,-3.3647,-3.5419,-3.6518,-3.7483,-3.8971,-4.0527,-4.1542,-4.21,-4.3064,-4.3572,-4.3623,-4.3335,-4.3183,-4.3071,-4.3003,-4.3078,-4.332,-4.3956,-4.4488,-4.4397,-4.373,-4.2581,-4.16,-4.0897,-4.0416,-4.0086,-3.9803,-3.9555,-3.8957,-3.8437,-3.8018,-3.7375,-3.6851,-3.6402,-3.6417,-3.6731,-3.6761,-3.7315,-3.7958,-3.8661,-3.8945,-3.9239,-3.9133,-3.8855,-3.8598,-3.8501,-3.8352,-3.7976,-3.7794,-3.7601,-3.7127,-3.6091,-3.4681,-3.3932,-3.3168,-3.2826,-3.3111,-3.3258,-3.3326,-3.4494,-3.5843,-3.5776,-3.5696,-3.5628,-3.5537,-3.5211,-3.4802,-3.4186,-3.3709,-3.3427,-3.3581,-3.3794,-3.3952,-4.6624,-4.7155,-4.7638,-4.85,-4.9598,-4.9759,-4.9717,-4.9499,-4.9257,-4.8466,-4.751,-4.6752,-4.5751,-4.4711,-4.4265,-4.4005,-4.4135,-4.4896,-4.5751,-4.6531,-4.733,-4.8129,-4.9021,-4.9971,-5.0842,-5.1069,-5.1757,-5.2181,-5.1679,-4.9954,-4.8994,-4.7462,-4.5072,-4.3305,-4.1829,-4.044,-3.8284,-3.6383,-3.5036,-3.4298,-3.4127,-3.3985,-3.4808,-3.6834,-3.7753,-3.8623,-3.974,-4.1102,-4.183,-4.2506,-4.3453,-4.3859,-4.3809,-4.325,-4.2841,-4.2601,-4.2456,-4.2469,-4.3266,-4.3951,-4.4336,-4.3617,-4.2904,-4.2072,-4.1189,-4.0273,-3.9864,-3.9625,-3.9589,-3.9406,-3.8727,-3.8302,-3.7883,-3.706,-3.6462,-3.6013,-3.6118,-3.6641,-3.706,-3.7599,-3.8362,-3.914,-3.9254,-3.9358,-3.9141,-3.8855,-3.8612,-3.8389,-3.8277,-3.8127,-3.7901,-3.7404,-3.6911,-3.5742,-3.4263,-3.3327,-3.2478,-3.2254,-3.2108,-3.2162,-3.2281,-3.333,-3.4379,-3.4352,-3.4361,-3.4371,-3.4335,-3.4255,-3.3954,-3.3599,-3.3021,-3.2472,-3.2786,-3.3415,-3.3533,-4.5773,-4.6351,-4.6736,-4.7798,-4.9165,-4.9472,-4.9614,-4.9588,-4.9355,-4.8217,-4.6531,-4.6438,-4.5565,-4.4376,-4.4005,-4.4265,-4.4618,-4.5342,-4.6122,-4.694,-4.7757,-4.8351,-4.9171,-4.9972,-5.0674,-5.1031,-5.1715,-5.2172,-5.1573,-5.0008,-4.8894,-4.7455,-4.5491,-4.3635,-4.2244,-4.0526,-3.8577,-3.6659,-3.5524,-3.5012,-3.4873,-3.4793,-3.5671,-3.7547,-3.8488,-3.9233,-4.0163,-4.1305,-4.2117,-4.2743,-4.3504,-4.4293,-4.3972,-4.3386,-4.2831,-4.2435,-4.2064,-4.177,-4.2825,-4.3985,-4.4227,-4.3396,-4.2902,-4.1886,-4.0731,-3.985,-3.9526,-3.946,-3.9394,-3.923,-3.8676,-3.8467,-3.8167,-3.7509,-3.706,-3.6671,-3.6776,-3.715,-3.7479,-3.7883,-3.8691,-3.9418,-3.9808,-3.9846,-3.9432,-3.9025,-3.8501,-3.8352,-3.8277,-3.8089,-3.7863,-3.7275,-3.6598,-3.5186,-3.3709,-3.2606,-3.1591,-3.1074,-3.0996,-3.1164,-3.1513,-3.2472,-3.2911,-3.2922,-3.3001,-3.3136,-3.3449,-3.367,-3.3506,-3.318,-3.2889,-3.2805,-3.2995,-3.3585,-3.3183,-4.4631,-4.4742,-4.6216,-4.7683,-4.8954,-4.8929,-4.9155,-4.9518,-4.9346,-4.825,-4.6622,-4.6475,-4.5565,-4.4302,-4.4005,-4.4395,-4.5157,-4.5955,-4.6754,-4.7516,-4.824,-4.876,-4.9152,-4.9731,-5.0395,-5.0743,-5.1183,-5.1325,-5.1,-4.953,-4.8463,-4.7345,-4.5651,-4.4009,-4.3007,-4.0871,-3.8629,-3.6628,-3.5786,-3.55,-3.5398,-3.5347,-3.6463,-3.781,-3.8834,-3.9588,-4.0214,-4.1482,-4.2182,-4.2476,-4.3692,-4.4215,-4.3861,-4.3607,-4.3103,-4.2483,-4.1899,-4.1953,-4.2741,-4.4448,-4.4314,-4.3395,-4.29,-4.2189,-4.09,-4.0019,-3.9559,-3.9679,-3.9664,-3.9582,-3.9209,-3.8975,-3.8721,-3.8362,-3.7943,-3.7569,-3.7689,-3.8048,-3.8467,-3.8452,-3.899,-3.9657,-4.0189,-4.0404,-3.9868,-3.9333,-3.8564,-3.8283,-3.8234,-3.8007,-3.7758,-3.6911,-3.6122,-3.4792,-3.3291,-3.178,-3.0716,-3.0146,-3.0085,-3.0481,-3.0608,-3.1105,-3.1379,-3.1508,-3.1972,-3.2454,-3.2919,-3.3335,-3.3469,-3.3676,-3.371,-3.3716,-3.3788,-3.3606,-3.3165,-4.4072,-4.4585,-4.5007,-4.608,-4.7495,-4.8487,-4.8922,-4.9012,-4.902,-4.8199,-4.6768,-4.6513,-4.5565,-4.4432,-4.4098,-4.4488,-4.5361,-4.6122,-4.6921,-4.7757,-4.8556,-4.8797,-4.9079,-4.9491,-5.0041,-5.0339,-5.0548,-5.0597,-5.0652,-4.9099,-4.812,-4.7099,-4.5778,-4.4205,-4.2758,-4.1302,-4.0284,-3.8767,-3.7895,-3.7386,-3.7229,-3.7142,-3.7552,-3.8809,-3.9459,-3.9842,-4.0104,-4.1444,-4.1937,-4.2158,-4.339,-4.4083,-4.4138,-4.4105,-4.3726,-4.3365,-4.2977,-4.2591,-4.2944,-4.371,-4.3816,-4.3246,-4.2843,-4.214,-4.0834,-4.051,-4.0229,-4.0209,-4.0382,-4.0502,-4.0636,-4.0576,-4.0322,-3.9858,-3.9394,-3.8811,-3.8781,-3.9334,-3.9709,-3.929,-3.9454,-4.0322,-4.0965,-4.1047,-4.0586,-3.995,-3.925,-3.8542,-3.8304,-3.7965,-3.7594,-3.6528,-3.556,-3.4286,-3.2932,-3.1592,-3.0459,-2.9868,-2.9956,-3.0335,-3.0383,-3.0204,-3.0691,-3.1242,-3.1546,-3.1884,-3.2922,-3.3831,-3.4173,-3.4414,-3.4282,-3.4114,-3.4054,-3.3623,-3.3061,-4.3357,-4.4095,-4.4188,-4.4969,-4.6294,-4.7789,-4.8555,-4.8848,-4.9056,-4.8201,-4.6787,-4.6475,-4.5584,-4.4413,-4.4079,-4.4748,-4.5677,-4.6215,-4.7256,-4.8036,-4.8612,-4.8853,-4.9024,-4.9233,-4.9485,-4.9763,-4.9738,-4.9681,-4.9537,-4.8435,-4.7474,-4.6712,-4.5901,-4.4561,-4.3251,-4.2499,-4.1388,-3.9836,-3.871,-3.8463,-3.8562,-3.8733,-3.8996,-3.9844,-4.0332,-4.0459,-4.0566,-4.0963,-4.1554,-4.1932,-4.2655,-4.3727,-4.4191,-4.4315,-4.4097,-4.4018,-4.3538,-4.2893,-4.2606,-4.267,-4.2718,-4.244,-4.2361,-4.1864,-4.0988,-4.0631,-4.0694,-4.0808,-4.1242,-4.1324,-4.1429,-4.1497,-4.1294,-4.0801,-4.0591,-3.9993,-3.9948,-4.0502,-4.0472,-4.0053,-3.9963,-4.0823,-4.1584,-4.1548,-4.1395,-4.0683,-3.9987,-3.9162,-3.8288,-3.7767,-3.7275,-3.6321,-3.5223,-3.4054,-3.2861,-3.1591,-3.0538,-2.9628,-2.9704,-2.9955,-2.9852,-2.9663,-3.0321,-3.1071,-3.1699,-3.2503,-3.3577,-3.4366,-3.4559,-3.4607,-3.4547,-3.4378,-3.427,-3.3648,-3.2899,-4.2492,-4.3202,-4.3822,-4.4499,-4.5449,-4.6965,-4.8291,-4.9321,-4.9204,-4.8126,-4.6531,-4.6438,-4.5472,-4.4246,-4.4005,-4.4896,-4.6122,-4.6438,-4.746,-4.8407,-4.8834,-4.889,-4.882,-4.8807,-4.9061,-4.9036,-4.8922,-4.8726,-4.8252,-4.7665,-4.691,-4.6158,-4.565,-4.4742,-4.4035,-4.331,-4.2137,-4.0791,-4.0043,-3.9957,-4.0145,-3.9881,-4.0307,-4.0848,-4.1036,-4.0744,-4.0635,-4.065,-4.0889,-4.1198,-4.1656,-4.2582,-4.3249,-4.3686,-4.396,-4.3923,-4.34,-4.2612,-4.1991,-4.2055,-4.1766,-4.1661,-4.1582,-4.1355,-4.1121,-4.0805,-4.1055,-4.1347,-4.1713,-4.1639,-4.1624,-4.1683,-4.1713,-4.1579,-4.1579,-4.1324,-4.1205,-4.1235,-4.11,-4.0876,-4.0689,-4.1181,-4.1935,-4.2104,-4.1671,-4.0949,-4.0111,-3.907,-3.818,-3.7271,-3.6761,-3.6142,-3.5055,-3.3947,-3.2793,-3.1835,-3.0853,-3.0043,-2.9227,-2.9252,-2.9151,-2.9386,-3.0027,-3.0918,-3.2054,-3.3062,-3.3906,-3.4402,-3.4679,-3.4655,-3.4522,-3.4631,-3.4498,-3.3482,-3.2688,-4.167,-4.2394,-4.2958,-4.3656,-4.4624,-4.6487,-4.8117,-4.9212,-4.868,-4.7604,-4.6475,-4.59,-4.5064,-4.4061,-4.4023,-4.5064,-4.5955,-4.6717,-4.759,-4.8333,-4.889,-4.889,-4.882,-4.8733,-4.8841,-4.8727,-4.8469,-4.8095,-4.7931,-4.7333,-4.6572,-4.5873,-4.5511,-4.4967,-4.4492,-4.4087,-4.3155,-4.2361,-4.1705,-4.1705,-4.1822,-4.1686,-4.1818,-4.1588,-4.1221,-4.0721,-4.0026,-4.0292,-4.0573,-4.1098,-4.2108,-4.3248,-4.4581,-4.4723,-4.4797,-4.4281,-4.3548,-4.2749,-4.2124,-4.1455,-4.112,-4.1016,-4.0901,-4.0705,-4.0746,-4.1136,-4.1483,-4.1901,-4.2312,-4.2387,-4.2417,-4.2432,-4.2432,-4.2417,-4.2402,-4.2282,-4.2147,-4.2013,-4.1848,-4.136,-4.1173,-4.1483,-4.2252,-4.2162,-4.1705,-4.1042,-4.0147,-3.903,-3.7989,-3.7069,-3.6397,-3.5831,-3.5198,-3.4208,-3.3369,-3.242,-3.1417,-3.0457,-2.9654,-2.9089,-2.9251,-2.9573,-2.9948,-3.0851,-3.2135,-3.3131,-3.3921,-3.4342,-3.4703,-3.451,-3.4402,-3.4607,-3.4546,-3.3553,-3.2689,-4.133,-4.2041,-4.2574,-4.3578,-4.4969,-4.6189,-4.7438,-4.8273,-4.81,-4.7436,-4.6473,-4.5693,-4.4822,-4.4098,-4.4079,-4.4878,-4.642,-4.6568,-4.7348,-4.8556,-4.889,-4.889,-4.882,-4.8697,-4.8603,-4.8435,-4.8125,-4.7753,-4.7515,-4.6848,-4.608,-4.5795,-4.5528,-4.5191,-4.4872,-4.4734,-4.4544,-4.3923,-4.3526,-4.3483,-4.3416,-4.334,-4.2817,-4.2123,-4.1435,-4.019,-3.9358,-3.9899,-3.9923,-4.0658,-4.1797,-4.2874,-4.4216,-4.4717,-4.4618,-4.4045,-4.3334,-4.2543,-4.1872,-4.133,-4.1009,-4.087,-4.07,-4.11,-4.1219,-4.1535,-4.2059,-4.2575,-4.297,-4.3245,-4.326,-4.329,-4.326,-4.3245,-4.3155,-4.3065,-4.2985,-4.2851,-4.2375,-4.1772,-4.1755,-4.1979,-4.2117,-4.2017,-4.1521,-4.046,-3.959,-3.8711,-3.7669,-3.6664,-3.6129,-3.5673,-3.5181,-3.4578,-3.3783,-3.3058,-3.2068,-3.1072,-3.0093,-2.9679,-2.9626,-2.9655,-2.9945,-3.1034,-3.2321,-3.3198,-3.3959,-3.4414,-3.4739,-3.4438,-3.4246,-3.4438,-3.433,-3.3648,-3.2959,-4.1274,-4.1912,-4.2546,-4.3935,-4.5836,-4.5986,-4.6403,-4.6936,-4.7442,-4.7269,-4.6285,-4.5509,-4.4674,-4.4116,-4.4209,-4.5082,-4.6234,-4.6698,-4.7497,-4.8872,-4.889,-4.889,-4.8838,-4.8678,-4.8456,-4.8088,-4.7762,-4.7511,-4.697,-4.6471,-4.608,-4.5795,-4.5528,-4.5294,-4.5242,-4.5207,-4.507,-4.4889,-4.4285,-4.3906,-4.4139,-4.4077,-4.3737,-4.301,-4.1529,-3.9913,-3.9312,-3.8836,-3.8291,-3.9591,-4.0901,-4.199,-4.3246,-4.4127,-4.4044,-4.3575,-4.288,-4.216,-4.1561,-4.1117,-4.099,-4.1022,-4.1234,-4.1558,-4.1693,-4.1805,-4.2291,-4.2851,-4.323,-4.3305,-4.3305,-4.3305,-4.3305,-4.3305,-4.3245,-4.316,-4.3061,-4.2847,-4.2411,-4.1877,-4.1613,-4.1778,-4.1308,-4.1128,-4.0532,-3.9621,-3.897,-3.8173,-3.7514,-3.6514,-3.6168,-3.5793,-3.5516,-3.5171,-3.4413,-3.3652,-3.2772,-3.1763,-3.0771,-3.0115,-3.0024,-2.9995,-2.9898,-3.1064,-3.2223,-3.3131,-3.3887,-3.4221,-3.435,-3.4062,-3.3956,-3.4161,-3.3934,-3.3287,-3.2948,-4.0946,-4.1113,-4.2255,-4.3376,-4.4402,-4.5532,-4.6016,-4.6092,-4.6135,-4.5973,-4.5486,-4.4748,-4.4302,-4.4209,-4.4674,-4.5547,-4.642,-4.7107,-4.798,-4.863,-4.889,-4.8873,-4.8838,-4.8641,-4.8364,-4.8034,-4.7705,-4.7316,-4.6778,-4.6357,-4.6055,-4.5795,-4.5554,-4.5414,-4.5414,-4.5414,-4.538,-4.5345,-4.5035,-4.4552,-4.4602,-4.3943,-4.3335,-4.2047,-4.0431,-3.9047,-3.8473,-3.828,-3.867,-3.9783,-4.1403,-4.2561,-4.3547,-4.3762,-4.3223,-4.2386,-4.2402,-4.1786,-4.1163,-4.0929,-4.0991,-4.0818,-4.1017,-4.1543,-4.1871,-4.2066,-4.2417,-4.3015,-4.3305,-4.3305,-4.3305,-4.3305,-4.3305,-4.3305,-4.3364,-4.3255,-4.312,-4.2771,-4.2438,-4.1939,-4.1573,-4.1057,-4.0532,-4.0069,-3.9431,-3.8854,-3.8342,-3.7802,-3.7457,-3.6794,-3.6682,-3.6342,-3.6204,-3.5776,-3.5077,-3.4437,-3.3646,-3.2729,-3.1709,-3.1088,-3.0493,-3.0474,-3.0542,-3.1098,-3.2016,-3.3017,-3.3668,-3.3754,-3.3773,-3.3424,-3.3337,-3.3383,-3.2997,-3.2396,-3.2345,-4.0859,-4.0919,-4.2176,-4.3109,-4.3865,-4.4991,-4.5391,-4.5297,-4.519,-4.5017,-4.4817,-4.438,-4.4256,-4.4506,-4.5119,-4.603,-4.6884,-4.746,-4.8129,-4.8667,-4.8873,-4.8874,-4.8767,-4.8587,-4.8249,-4.7913,-4.7432,-4.6985,-4.6525,-4.6235,-4.5963,-4.577,-4.5554,-4.5414,-4.5414,-4.5397,-4.538,-4.5397,-4.5363,-4.505,-4.4597,-4.3685,-4.2778,-4.1333,-3.9609,-3.8219,-3.7832,-3.7809,-3.8571,-3.9831,-4.1467,-4.2715,-4.3331,-4.3279,-4.2648,-4.2063,-4.1827,-4.1725,-4.1021,-4.0826,-4.1131,-4.1136,-4.1333,-4.2066,-4.2596,-4.2791,-4.2806,-4.329,-4.3305,-4.3305,-4.3305,-4.3305,-4.3305,-4.3305,-4.3593,-4.3762,-4.3301,-4.2769,-4.2075,-4.1309,-4.0731,-3.996,-3.9615,-3.9496,-3.899,-3.9037,-3.8418,-3.8028,-3.7581,-3.7118,-3.7016,-3.6945,-3.6782,-3.648,-3.5855,-3.5278,-3.4643,-3.369,-3.2682,-3.1774,-3.109,-3.11,-3.1271,-3.1524,-3.2071,-3.31,-3.3569,-3.3515,-3.2959,-3.2448,-3.2443,-3.2521,-3.2028,-3.1469,-3.13,-4.097,-4.1111,-4.2403,-4.3293,-4.394,-4.4657,-4.499,-4.4893,-4.4645,-4.4543,-4.4547,-4.4341,-4.4656,-4.5095,-4.5509,-4.655,-4.7386,-4.7887,-4.8426,-4.8723,-4.8891,-4.8804,-4.8624,-4.842,-4.8053,-4.7606,-4.7125,-4.676,-4.6381,-4.6112,-4.5887,-4.5744,-4.5581,-4.5414,-4.538,-4.5276,-4.5156,-4.5061,-4.4845,-4.4369,-4.3759,-4.3019,-4.2055,-4.0561,-3.8808,-3.7401,-3.723,-3.7545,-3.8232,-3.957,-4.1186,-4.2402,-4.2894,-4.2771,-4.2109,-4.1601,-4.1586,-4.1311,-4.0893,-4.0882,-4.1413,-4.1866,-4.2194,-4.2521,-4.3015,-4.326,-4.3275,-4.3275,-4.329,-4.3305,-4.3305,-4.328,-4.328,-4.3285,-4.3662,-4.3838,-4.3178,-4.2461,-4.1466,-4.0575,-3.9796,-3.9009,-3.8868,-3.8746,-3.8756,-3.8823,-3.8733,-3.8477,-3.813,-3.7642,-3.7297,-3.7299,-3.7262,-3.691,-3.6609,-3.5994,-3.5382,-3.4632,-3.3632,-3.253,-3.1624,-3.1312,-3.1252,-3.1582,-3.2265,-3.2969,-3.3237,-3.3186,-3.2498,-3.1698,-3.1478,-3.1447,-3.0886,-3.0379,-3.0052,-4.1203,-4.1651,-4.3138,-4.4113,-4.4706,-4.5451,-4.5763,-4.559,-4.4852,-4.4767,-4.4969,-4.4606,-4.468,-4.5361,-4.603,-4.6865,-4.7608,-4.8184,-4.8593,-4.8872,-4.8856,-4.8696,-4.8476,-4.8229,-4.7793,-4.7306,-4.6835,-4.6525,-4.6235,-4.5963,-4.5778,-4.5641,-4.5502,-4.538,-4.5294,-4.5096,-4.4751,-4.4699,-4.4234,-4.3683,-4.2816,-4.1992,-4.1038,-3.9455,-3.7645,-3.6973,-3.6831,-3.7264,-3.7924,-3.9062,-4.0601,-4.1909,-4.2371,-4.2217,-4.1509,-4.1155,-4.117,-4.0913,-4.0639,-4.0608,-4.1036,-4.161,-4.1886,-4.2252,-4.2737,-4.3275,-4.329,-4.329,-4.3305,-4.3265,-4.3265,-4.3315,-4.3289,-4.3129,-4.3341,-4.2934,-4.2364,-4.1295,-4.0209,-3.9486,-3.8792,-3.8424,-3.8332,-3.8156,-3.7995,-3.8018,-3.7914,-3.7745,-3.8136,-3.7874,-3.7676,-3.7727,-3.7802,-3.7789,-3.7651,-3.6624,-3.5937,-3.531,-3.4264,-3.2544,-3.1444,-3.1147,-3.119,-3.124,-3.1766,-3.2532,-3.2663,-3.2694,-3.2104,-3.1312,-3.0731,-3.0354,-2.9772,-2.9201,-2.8743]},{"header":{"parameterUnit":"m.s-1","parameterCategory":1,"la1":31.0,"la2":29.5877,"lo1":-88.7671,"lo2":-86.6584,"dy":0.0162,"dx":0.0185,"nx":115,"ny":88,"refTime":"2026-03-20T12:00:00:Z","depth":0,"parameterNumber":3,"parameterNumberName":"V-component_of_WINDS"},"data":[0.0,0.0,0.0,0.0,0.0,0.0,0.0,0.0,0.0,0.0,0.0,0.0,0.0,0.0,0.0,0.0,0.0,0.0,0.0,0.0,0.0,0.0,0.0,0.0,0.0,0.0,0.0,0.0,0.0,0.0,0.0,0.0,0.0,0.0,0.0,0.0,0.0,0.0,0.0,0.0,0.0,0.0,0.0,0.0,0.0,0.0,0.0,0.0,0.0,0.0,0.0,0.0,0.0,0.0,0.0,0.0,0.0,0.0,0.0,0.0,0.0,0.0,0.0,0.0,0.0,0.0,0.0,0.0,0.0,0.0,0.0,0.0,0.0,0.0,0.0,0.0,0.0,0.0,0.0,0.0,0.0,0.0,0.0,0.0,0.0,0.0,0.0,0.0,0.0,0.0,0.0,0.0,0.0,0.0,0.0,0.0,0.0,0.0,0.0,0.0,0.0,0.0,0.0,0.0,0.0,0.0,0.0,0.0,0.0,0.0,0.0,0.0,0.0,0.0,0.0,0.0,0.0,0.0,0.0,0.0,0.0,0.0,0.0,0.0,0.0,0.0,0.0,0.0,0.0,0.0,0.0,0.0,0.0,0.0,0.0,0.0,0.0,0.0,0.0,0.0,0.0,0.0,0.0,0.0,0.0,0.0,0.0,0.0,0.0,0.0,0.0,0.0,0.0,0.0,0.0,0.0,0.0,0.0,0.0,0.0,0.0,0.0,0.0,0.0,0.0,0.0,0.0,0.0,0.0,0.0,0.0,0.0,0.0,0.0,0.0,0.0,0.0,0.0,0.0,0.0,0.0,0.0,0.0,0.0,0.0,0.0,0.0,0.0,0.0,0.0,0.0,0.0,0.0,0.0,0.0,0.0,0.0,0.0,0.0,0.0,0.0,0.0,0.0,0.0,0.0,0.0,0.0,0.0,0.0,0.0,0.0,0.0,0.0,0.0,0.0,0.0,0.0,0.0,0.0,0.0,0.0,0.0,0.0,0.0,0.0,0.0,0.0,0.0,0.0,0.0,0.0,0.0,0.0,0.0,0.0,0.0,0.0,0.0,0.0,0.0,0.0,0.0,0.0,0.0,0.0,0.0,0.0,0.0,0.0,0.0,0.0,0.0,0.0,0.0,0.0,0.0,0.0,0.0,0.0,0.0,0.0,0.0,0.0,0.0,0.0,0.0,0.0,0.0,0.0,0.0,0.0,0.0,0.0,0.0,0.0,0.0,0.0,0.0,0.0,0.0,0.0,0.0,0.0,0.0,0.0,0.0,0.0,0.0,0.0,0.0,0.0,0.0,0.0,0.0,0.0,0.0,0.0,0.0,0.0,0.0,0.0,0.0,0.0,0.0,0.0,0.0,0.0,0.0,0.0,0.0,0.0,0.0,0.0,0.0,0.0,0.0,0.0,0.0,0.0,0.0,0.0,0.0,0.0,0.0,0.0,0.0,0.0,0.0,0.0,0.0,0.0,0.0,0.0,0.0,0.0,0.0,0.0,0.0,0.0,0.0,0.0,0.0,0.0,0.0,0.0,0.0,0.0,0.0,0.0,0.0,0.0,0.0,0.0,0.0,0.0,0.0,0.0,0.0,0.0,0.0,0.0,0.0,0.0,0.0,0.0,0.0,0.0,0.0,0.0,0.0,0.0,0.0,0.0,0.0,0.0,0.0,0.0,0.0,0.0,0.0,0.0,0.0,0.0,0.0,0.0,0.0,0.0,0.0,0.0,0.0,0.0,0.0,0.0,0.0,0.0,0.0,0.0,0.0,0.0,0.0,0.0,0.0,0.0,0.0,0.0,0.0,0.0,0.0,0.0,0.0,0.0,0.0,0.0,0.0,0.0,0.0,0.0,0.0,0.0,0.0,0.0,0.0,0.0,0.0,0.0,0.0,0.0,0.0,0.0,0.0,0.0,0.0,0.0,0.0,0.0,0.0,0.0,0.0,0.0,0.0,0.0,0.0,0.0,0.0,0.0,0.0,0.0,0.0,0.0,0.0,0.0,0.0,0.0,0.0,0.0,0.0,0.0,0.0,0.0,0.0,0.0,0.0,0.0,0.0,0.0,0.0,0.0,0.0,0.0,0.0,0.0,0.0,0.0,0.0,0.0,0.0,0.0,0.0,0.0,0.0,0.0,0.0,0.0,0.0,0.0,0.0,0.0,0.0,0.0,0.0,0.0,0.0,0.0,0.0,0.0,0.0,0.0,0.0,0.0,0.0,0.0,0.0,0.0,0.0,0.0,0.0,0.0,0.0,0.0,0.0,0.0,0.0,0.0,0.0,0.0,0.0,0.0,0.0,0.0,0.0,0.0,0.0,0.0,0.0,0.0,0.0,0.0,0.0,0.0,0.0,0.0,0.0,0.0,0.0,0.0,0.0,0.0,0.0,0.0,0.0,0.0,0.0,0.0,0.0,0.0,0.0,0.0,0.0,0.0,0.0,0.0,0.0,0.0,0.0,0.0,0.0,0.0,0.0,0.0,0.0,0.0,0.0,0.0,0.0,0.0,0.0,0.0,0.0,0.0,0.0,0.0,0.0,0.0,0.0,0.0,0.0,0.0,0.0,0.0,0.0,0.0,0.0,0.0,0.0,0.0,0.0,0.0,0.0,0.0,0.0,0.0,0.0,0.0,0.0,0.0,0.0,0.0,0.0,0.0,0.0,0.0,0.0,0.0,0.0,0.0,0.0,0.0,0.0,0.0,0.0,0.0,0.0,0.0,0.0,0.0,0.0,0.0,0.0,0.0,0.0,0.0,0.0,0.0,0.0,0.0,0.0,0.0,0.0,0.0,0.0,0.0,0.0,0.0,0.0,0.0,0.0,0.0,0.0,0.0,0.0,0.0,0.0,0.0,0.0,0.0,0.0,0.0,0.0,0.0,0.0,0.0,0.0,0.0,0.0,0.0,0.0,0.0,0.0,0.0,0.0,0.0,0.0,0.0,0.0,0.0,0.0,0.0,0.0,0.0,0.0,0.0,0.0,0.0,0.0,0.0,0.0,0.0,0.0,0.0,0.0,0.0,0.0,0.0,0.0,0.0,0.0,0.0,0.0,0.0,0.0,0.0,0.0,0.0,0.0,0.0,0.0,0.0,0.0,0.0,0.0,0.0,0.0,0.0,0.0,0.0,0.0,0.0,0.0,0.0,0.0,0.0,0.0,0.0,0.0,0.0,0.0,0.0,0.0,0.0,0.0,0.0,0.0,0.0,0.0,0.0,0.0,0.0,0.0,0.0,0.0,0.0,0.0,0.0,0.0,0.0,0.0,0.0,0.0,0.0,0.0,0.0,0.0,0.0,0.0,0.0,0.0,0.0,0.0,0.0,0.0,0.0,0.0,0.0,0.0,0.0,0.0,0.0,0.0,0.0,0.0,0.0,0.0,0.0,0.0,0.0,0.0,0.0,0.0,0.0,0.0,0.0,0.0,0.0,0.0,0.0,0.0,0.0,0.0,0.0,0.0,0.0,0.0,0.0,0.0,0.0,0.0,0.0,0.0,0.0,0.0,0.0,0.0,0.0,0.0,0.0,0.0,0.0,0.0,0.0,0.0,0.0,0.0,0.0,0.0,0.0,0.0,0.0,0.0,0.0,0.0,0.0,0.0,0.0,0.0,0.0,0.0,0.0,0.0,0.0,0.0,0.0,0.0,0.0,0.0,0.0,0.0,0.0,0.0,0.0,0.0,0.0,0.0,0.0,0.0,0.0,0.0,0.0,0.0,0.0,0.0,0.0,0.0,0.0,0.0,0.0,0.0,0.0,0.0,0.0,0.0,0.0,0.0,0.0,0.0,0.0,0.0,0.0,0.0,0.0,0.0,0.0,0.0,0.0,0.0,0.0,0.0,0.0,0.0,0.0,0.0,0.0,0.0,0.0,0.0,0.0,0.0,0.0,0.0,0.0,0.0,0.0,0.0,0.0,0.0,0.0,0.0,0.0,0.0,0.0,0.0,0.0,0.0,0.0,0.0,0.0,0.0,0.0,0.0,0.0,0.0,0.0,0.0,0.0,0.0,0.0,0.0,0.0,0.0,0.0,0.0,0.0,0.0,0.0,0.0,0.0,0.0,0.0,0.0,0.0,0.0,0.0,0.0,0.0,0.0,0.0,0.0,0.0,0.0,0.0,0.0,0.0,0.0,0.0,0.0,0.0,0.0,0.0,0.0,0.0,0.0,0.0,0.0,0.0,0.0,0.0,0.0,0.0,0.0,0.0,0.0,0.0,0.0,0.0,0.0,0.0,0.0,0.0,0.0,0.0,0.0,0.0,0.0,0.0,0.0,0.0,0.0,0.271,0.0,0.0,0.0,0.0,0.0,0.0,0.0,0.0,0.0,0.0,0.0,0.0,0.0,0.0,0.0,0.0,0.0,0.0,0.0,0.0,0.0,0.0,0.0,0.0,0.0,0.0,0.0,0.0,0.0,0.0,0.0,0.0,0.0,0.0,0.0,0.0,0.0,0.0,0.0,0.0,0.0,0.0,0.0,0.0,0.0,0.0,0.0,0.0,0.0,0.0,0.0,0.0,0.0,0.0,0.0,0.0,0.0,0.0,0.0,0.0,0.0,0.0,0.0,0.0,0.0,0.0,0.0,0.0,0.0,0.0,0.0,0.0,0.0,0.0,0.0,0.0,0.0,0.0,0.0,0.0,0.0,0.0,0.0,0.0,0.0,0.0,0.0,0.0,0.0,0.0,0.0,0.0,0.0,0.0,0.0,0.0,0.0,0.0,0.0,0.0,0.0,0.0,0.0,0.0,0.0,0.0,0.0,0.0,0.0,0.0,0.2407,0.2342,0.2636,0.2737,0.2669,0.0,0.0,0.0,0.0,0.0,0.0,0.0,0.0,0.0,0.0,0.0,0.0,0.0,0.0,0.0,0.0,0.0,0.0,0.0,0.0,0.0,0.0,0.0,0.0,0.0,0.0,0.0,0.0,0.0,0.0,0.0,0.0,0.0,0.0,0.0,0.0,0.0,0.0,0.0,0.0,0.0,0.0,0.0,0.0,0.0,0.0,0.0,0.0,0.0,0.0,0.0,0.0,0.0,0.0,0.0,0.0,0.0,0.0,0.0,0.0,0.0,0.0,0.0,0.0,0.0,0.0,0.0,0.0,0.0,0.0,0.0,0.0,0.0,0.0,0.0,0.0,0.0,0.0,0.0,0.0,0.0,0.0,0.0,0.0,0.0,0.0,0.0,0.0,0.0,0.0,0.0,0.0,0.0,0.0,0.0,0.0,0.0,0.0,0.0,0.0,0.0,0.0,0.0,0.0,0.0,0.0,0.0,0.0,0.0,0.0,0.0,0.0,0.2601,0.2785,0.2816,0.0,0.0,0.0,0.0,0.0,0.0,0.0,0.0,0.0,0.0,0.0,0.0,0.0,0.0,0.0,0.0,0.0,0.0,0.0,0.0,0.0,0.0,0.0,0.0,0.0,0.0,0.0,0.0,0.0,0.0,0.0,0.0,0.0,0.0,0.0,0.0,0.0,0.0,0.0,0.0,0.0,0.0,0.0,0.0,0.0,0.0,0.0,0.0,0.0,0.0,0.0,0.0,0.0,0.0,0.0,0.0,0.0,0.0,0.0,0.0,0.0,0.0,0.0,0.0,0.0,0.0,0.0,0.0,0.0,0.0,0.0,0.0,0.0,0.0,0.0,0.0,0.0,0.0,0.0,0.0,0.0,0.0,0.0,0.0,0.0,0.0,0.0,0.0,0.0,0.0,0.0,0.0,0.0,0.0,0.0,0.0,0.0,0.0,0.0,0.0,0.0,0.0,0.0,0.0,0.0,0.0,0.0,0.0,0.0,0.0,0.2417,0.2821,0.2878,0.0,0.3391,0.0,0.0,0.0,0.0,0.0,0.0,0.0,0.0,0.0,0.0,0.0,0.0,0.0,0.0,0.0,0.0,0.0,0.0,0.0,0.0,0.0,0.0,0.0,0.0,0.0,0.0,0.0,0.0,0.0,0.0,0.0,0.0,0.0,0.0,0.0,0.0,0.0,0.0,0.0,0.0,0.0,0.0,0.0,0.0,0.0,0.0,0.0,0.0,0.0,0.0,0.0,0.0,0.0,0.0,0.0,0.0,0.0,0.0,0.0,0.0,0.0,0.0,0.0,0.0,0.0,0.0,0.0,0.0,0.0,0.0,0.0,0.0,0.0,0.0,0.0,0.0,0.0,0.0,0.0,0.0,0.0,0.0,0.0,0.0,0.0,0.0,0.0,0.0,0.0,0.0,0.0,0.0,0.0,0.0,0.0,0.0,0.0,0.0,0.0,0.0,0.0,0.0,0.0,0.0,0.0,0.0,0.0,0.0,0.0,0.0,0.2637,0.283,0.2959,0.3138,0.0,0.0,0.0,0.0,0.0,0.0,0.0,0.0,0.0,0.0,0.0,0.0,0.0,0.0,0.0,0.0,0.0,0.0,0.0,0.0,0.0,0.0,0.0,0.0,0.0,0.0,0.0,0.0,0.0,0.0,0.0,0.0,0.0,0.0,0.0,0.0,0.0,0.0,0.0,0.0,0.0,0.0,0.0,0.0,0.0,0.0,0.0,0.0,0.0,0.0,0.0,0.0,0.0,0.0,0.0,0.0,0.0,0.0,0.0,0.0,0.0,0.0,0.0,0.0,0.0,0.0,0.0,0.0,0.0,0.0,0.0,0.0,0.0,0.0,0.0,0.0,0.0,0.0,0.0,0.0,0.0,0.0,0.0,0.0,0.0,0.0,0.0,0.0,0.0,0.0,0.0,0.0,0.0,0.0,0.0,0.0,0.0,0.0,0.0,0.0,0.0,0.0,0.0,0.0,0.0,0.0,0.0,0.0,0.0,0.0,0.3006,0.2946,0.294,0.318,0.3318,0.3381,0.0,0.0,0.0,0.0,0.0,0.0,0.0,0.0,0.0,0.0,0.0,0.0,0.0,0.0,0.0,0.0,0.0,0.0,0.0,0.0,0.0,0.0,0.0,0.0,0.0,0.0,0.0,0.0,0.0,0.0,0.0,0.0,0.0,0.0,0.0,0.0,0.0,0.0,0.0,0.0,0.0,0.0,0.0,0.0,0.0,0.0,0.0,0.0,0.0,0.0,0.0,0.0,0.0,0.0,0.0,0.0,0.0,0.0,0.0,0.0,0.0,0.0,0.0,0.0,0.0,0.0,0.0,0.0,0.0,0.0,0.0,0.0,0.0,0.0,0.0,0.0,0.0,0.0,0.0,0.0,0.0,0.0,0.0,0.0,0.0,0.0,0.0,0.0,0.0,0.0,0.0,0.0,0.0,0.0,0.0,0.0,0.0,0.0,0.0,0.0,0.0,0.0,0.0,0.0,0.0,0.0,0.0,0.0,0.0,0.3429,0.3357,0.3291,0.3596,0.3703,0.0,0.0,0.0,0.0,0.0,0.0,0.0,0.0,0.0,0.0,0.0,0.0,0.0,0.0,0.0,0.0,0.0,0.0,0.0,0.0,0.0,0.0,0.0,0.0,0.0,0.0,0.0,0.0,0.0,0.0,0.0,0.0,0.0,0.0,0.0,0.0,0.0,0.0,0.0,0.0,0.0,0.0,0.0,0.0,0.0,0.0,0.0,0.0,0.0,0.0,0.0,0.0,0.0,0.0,0.0,0.0,0.0,0.0,0.0,0.0,0.0,0.0,0.0,0.0,0.0,0.0,0.0,0.0,0.0,0.0,0.0,0.0,0.0,0.0,0.0,0.0,0.0,0.0,0.0,0.0,0.0,0.0,0.0,0.0,0.0,0.0,0.0,0.0,0.0,0.0,0.0,0.0,0.0,0.0,0.0,0.0,0.0,0.0,0.0,0.0,0.0,0.0,0.0,0.0,0.0,0.0,0.0,0.0,0.0,0.393,0.3866,0.3831,0.3815,0.3719,0.3648,0.0,0.0,0.0,0.0,0.0,0.0,0.0,0.0,0.0,0.0,0.0,0.0,0.0,0.0,0.0,0.0,0.0,0.0,0.0,0.0,0.0,0.0,0.0,0.0,0.0,0.0,0.0,0.0,0.0,0.0,0.0,0.0,0.0,0.0,0.0,0.0,0.0,0.0,0.0,0.0,0.0,0.0,0.0,0.0,0.0,0.0,0.0,0.0,0.0,0.0,0.0,0.0,0.0,0.0,0.0,0.0,0.0,0.0,0.0,0.0,0.0,0.0,0.0,0.0,0.0,0.0,0.0,0.0,0.0,0.0,0.0,0.0,0.0,0.0,0.0,0.0,0.0,0.0,0.0,0.0,0.0,0.0,0.0,0.0,0.0,0.0,0.0,0.0,0.0,0.0,0.0,0.0,0.0,0.0,0.0,0.0,0.0,0.0,0.0,0.0,0.0,0.0,0.0,0.0,0.0,0.0,0.0,0.0,0.0,0.4215,0.0,0.4246,0.0,0.3915,0.3837,0.0,0.0,0.0,0.0,0.0,0.0,0.0,0.0,0.0,0.0,0.0,0.0,0.0,0.0,0.0,0.0,0.0,0.0,0.0,0.0,0.0,0.0,0.0,0.0,0.0,0.0,0.0,0.0,0.0,0.0,0.0,0.0,0.0,0.0,0.0,0.0,0.0,0.0,0.0,0.0,0.0,0.0,0.0,0.0,0.0,0.0,0.0,0.0,0.0,0.0,0.0,0.0,0.0,0.0,0.0,0.0,0.0,0.0,0.0,0.0,0.0,0.0,0.0,0.0,0.0,0.0,0.0,0.0,0.0,0.0,0.0,0.0,0.0,0.0,0.0,0.0,0.0,0.0,0.0,0.0,0.0,0.0,0.0,0.0,0.0,0.0,0.0,0.0,0.0,0.0,0.0,0.0,0.0,0.0,0.0,0.0,0.0,0.0,0.0,0.0,0.0,0.0,0.0,0.0,0.0,0.0,0.0,0.0,0.4484,0.4421,0.4668,0.4563,0.4028,0.4196,0.4314,0.0,0.0,0.0,0.0,0.0,0.0,0.0,0.0,0.0,0.0,0.0,0.0,0.0,0.0,0.0,0.0,0.0,0.0,0.0,0.0,0.0,0.0,0.0,0.0,0.0,0.0,0.0,0.0,0.0,0.0,0.0,0.0,0.0,0.0,0.0,0.0,0.0,0.0,0.0,0.0,0.0,0.0,0.0,0.0,0.0,0.0,0.0,0.0,0.0,0.0,0.0,0.0,0.0,0.0,0.0,0.0,0.0,0.0,0.0,0.0,0.0,0.0,0.0,0.0,0.0,0.0,0.0,0.0,0.0,0.0,0.0,0.0,0.0,0.0,0.0,0.0,0.0,0.0,0.0,0.0,0.0,0.0,0.0,0.0,0.0,0.0,0.0,0.0,0.0,0.0,0.0,0.0,0.0,0.0,0.0,0.0,0.0,0.0,0.0,0.0,0.0,0.0,0.0,0.0,0.0,0.0,0.0,0.0,0.0,0.4967,0.5206,0.5063,0.4442,0.4429,0.4343,0.0,0.0,0.0,0.0,0.0,0.0,0.0,0.0,0.0,0.0,0.0,0.0,0.0,0.0,0.0,0.0,0.0,0.0,0.0,0.0,0.0,0.0,0.0,0.0,0.0,0.0,0.0,0.0,0.0,0.0,0.0,0.0,0.0,0.0,0.0,0.0,0.0,0.0,0.0,0.0,0.0,0.0,0.0,0.0,0.0,0.0,0.0,0.0,0.0,0.0,0.0,0.0,0.0,0.0,0.0,0.0,0.0,0.0,0.0,0.0,0.0,0.0,0.0,0.0,0.0,0.0,0.0,0.0,0.0,0.0,0.0,0.0,0.0,0.0,0.0,0.0,0.0,0.0,0.0,0.0,0.0,0.0,0.0,0.0,0.0,0.0,0.0,0.0,0.0,0.0,0.0,0.0,0.0,0.0,0.0,0.0,0.0,0.0,0.0,0.0,0.0,0.0,0.0,0.0,0.0,0.0,0.0,0.0,0.0,0.573,0.5753,0.5441,0.4808,0.4719,0.4637,0.4529,0.0,0.0,0.0,0.0,0.0,0.0,0.0,0.0,0.0,0.0,0.0,0.0,0.0,0.0,0.0,0.0,0.0,0.0,0.0,0.0,0.0,0.0,0.0,0.0,0.0,0.0,0.0,0.0,0.0,0.0,0.0,0.0,0.0,0.0,0.0,0.0,0.0,0.0,0.0,0.0,0.0,0.0,0.0,0.0,0.0,0.0,0.0,0.0,0.0,0.0,0.0,0.0,0.0,0.0,0.0,0.0,0.0,0.0,0.0,0.0,0.0,0.0,0.0,0.0,0.0,0.0,0.0,0.0,0.0,0.0,0.0,0.0,0.0,0.0,0.0,0.0,0.0,0.0,0.0,0.0,0.0,0.0,0.0,0.0,0.0,0.0,0.0,0.0,0.0,0.0,0.0,0.0,0.0,0.0,0.0,0.0,0.0,0.0,0.0,0.0,0.0,0.0,0.0,0.0,0.0,0.0,0.0,0.0,0.6579,0.6237,0.5772,0.5167,0.508,0.5146,0.0,0.0,0.0,0.0,0.0,0.0,0.0,0.0,0.0,0.0,0.0,0.0,0.0,0.0,0.0,0.0,0.0,0.0,0.0,0.0,0.0,0.0,0.0,0.0,0.0,0.0,0.0,0.0,0.0,0.0,0.0,0.0,0.0,0.0,0.0,0.0,0.0,0.0,0.0,0.0,0.0,0.0,0.0,0.0,0.0,0.0,0.0,0.0,0.0,0.0,0.0,0.0,0.0,0.0,0.0,0.0,0.0,0.0,0.0,0.0,0.0,0.0,0.0,0.0,0.0,0.0,0.0,0.0,0.0,0.0,0.0,0.0,0.0,0.0,0.0,0.0,0.0,0.0,0.0,0.0,0.0,0.0,0.0,0.0,0.0,0.0,0.0,0.0,0.0,0.0,0.0,0.0,0.0,0.0,0.0,0.0,0.0,0.0,0.0,0.0,0.0,0.0,0.0,0.0,0.0,0.0,0.0,0.0,0.0,0.6528,0.6767,0.646,0.5653,0.5691,0.5533,0.0,0.0,0.0,0.0,0.0,0.0,0.0,0.0,0.0,0.0,0.0,0.0,0.0,0.0,0.0,0.0,0.0,0.0,0.0,0.0,0.0,0.0,0.0,0.0,0.0,0.0,0.0,0.0,0.0,0.0,0.0,0.0,0.0,0.0,0.0,0.0,0.0,0.0,0.0,0.0,0.0,0.0,0.0,0.0,0.0,0.0,0.0,0.0,0.0,0.0,0.0,0.0,0.0,0.0,0.0,0.0,0.0,0.0,0.0,0.0,0.0,0.0,0.0,0.0,0.0,0.0,0.0,0.0,0.0,0.0,0.0,0.0,0.0,0.0,0.0,0.0,0.0,0.0,0.0,0.0,0.0,0.0,0.0,0.0,0.0,0.0,0.0,0.0,0.0,0.0,0.0,0.0,0.0,0.0,0.0,0.0,0.0,0.0,0.0,0.0,0.0,0.0,0.0,0.0,0.0,0.0,0.0,0.0,0.6336,0.6661,0.7297,0.7282,0.6607,0.6207,0.584,0.0,0.0,0.0,0.0,0.0,0.0,0.0,0.0,0.0,0.0,0.0,0.0,0.0,0.0,0.0,0.0,0.0,0.0,0.0,0.0,0.0,0.0,0.0,0.0,0.0,0.0,0.0,0.0,0.0,0.0,0.0,0.0,0.0,0.0,0.0,0.0,0.0,0.0,0.0,0.0,0.0,0.0,0.0,0.0,0.0,0.0,0.0,0.0,0.0,0.0,0.0,0.0,0.0,0.0,0.0,0.0,0.0,0.0,0.0,0.0,0.0,0.0,0.0,0.0,0.0,0.0,0.0,0.0,0.0,0.0,0.0,0.0,0.0,0.0,0.0,0.0,0.0,0.0,0.0,0.0,0.0,0.0,0.0,0.0,0.0,0.0,0.0,0.0,0.0,0.0,0.0,0.0,0.0,0.0,0.0,0.0,0.0,0.0,0.0,0.0,0.0,0.0,0.0,0.0,0.0,0.0,0.0,0.0,0.6449,0.697,0.7802,0.8114,0.7807,0.6739,0.618,0.0,0.0,0.0,0.0,0.0,0.0,0.0,0.0,0.0,0.0,0.0,0.0,0.0,0.0,0.0,0.0,0.0,0.0,0.0,0.0,0.0,0.0,0.0,0.0,0.0,0.0,0.0,0.0,0.0,0.0,0.0,0.0,0.0,0.0,0.0,0.0,0.0,0.0,0.0,0.0,0.0,0.0,0.0,0.0,0.0,0.0,0.0,0.0,0.0,0.0,0.0,0.0,0.0,0.0,0.0,0.0,0.0,0.0,0.0,0.0,0.0,0.0,0.0,0.0,0.0,0.0,0.0,0.0,0.0,0.0,0.0,0.0,0.0,0.0,0.0,0.0,0.0,0.0,0.0,0.0,0.0,0.0,0.0,0.0,0.0,0.0,0.0,0.0,0.0,0.0,0.0,0.0,0.0,0.0,0.0,0.0,0.0,0.0,0.0,0.0,0.0,0.0,0.0,0.0,0.0,0.0,0.0,0.0,0.7019,0.7458,0.8201,0.8615,0.8632,0.7728,0.7001,0.0,0.0,0.0,0.0,0.0,0.0,0.0,0.0,0.0,0.0,0.0,0.0,0.0,0.0,0.0,0.0,0.0,0.0,0.0,0.0,0.0,0.0,0.0,0.0,0.0,0.0,0.0,0.0,0.0,0.0,0.0,0.0,0.0,0.0,0.0,0.0,0.0,0.0,0.0,0.0,0.0,0.0,0.0,0.0,0.0,0.0,0.0,0.0,1.0533,0.0,0.0,0.0,0.0,0.0,0.0,0.0,0.0,0.0,0.0,0.0,0.0,0.0,0.0,0.0,0.0,0.0,0.0,0.0,0.0,0.0,0.0,0.0,0.0,0.0,0.0,0.0,0.0,0.0,0.0,0.0,0.0,0.0,0.0,0.0,0.0,0.0,0.0,0.0,0.0,0.0,0.0,0.0,0.0,0.0,0.0,0.0,0.0,0.0,0.0,0.0,0.0,0.0,0.0,0.0,0.0,0.0,0.0,0.0,0.7307,0.7817,0.8559,0.9082,0.9371,0.8951,0.8284,0.0,0.0,0.0,0.0,0.0,0.0,0.0,0.0,0.0,0.0,0.0,0.0,0.0,0.0,0.0,0.0,0.0,0.0,0.0,0.0,0.0,0.0,0.0,0.0,0.0,0.0,0.0,0.0,0.0,0.0,0.0,0.0,0.0,0.0,0.0,0.0,0.0,0.0,0.0,0.0,0.0,0.0,0.0,0.0,0.0,0.0,0.0,0.0,0.0,0.0,0.0,0.0,0.0,0.0,0.0,0.0,0.0,0.0,0.0,0.0,0.0,0.0,0.0,0.0,0.0,0.0,0.0,0.0,0.0,0.0,0.0,0.0,0.0,0.0,0.0,0.0,0.0,0.0,0.0,0.0,0.0,0.0,0.0,0.0,0.0,0.0,0.0,0.0,0.0,0.0,0.0,0.0,0.0,0.0,0.0,0.0,0.0,0.0,0.0,0.0,0.0,0.0,0.0,0.0,0.0,0.0,0.0,0.6684,0.757,0.8216,0.8952,0.9567,1.0087,1.0096,0.9539,0.8352,0.0,0.0,0.0,0.0,0.0,0.0,0.0,0.0,0.0,0.0,0.0,0.0,0.0,0.0,0.0,0.0,0.0,0.0,0.0,0.0,0.0,0.0,0.0,0.0,0.0,0.0,0.0,0.0,0.0,0.0,0.0,0.0,0.0,0.0,0.0,0.0,0.0,0.0,0.717,0.901,0.0,0.0,0.0,0.0,0.0,0.0,0.0,0.0,1.0514,0.0,0.0,0.0,0.0,0.0,0.0,0.0,0.0,0.0,0.0,0.0,0.0,0.0,0.0,0.0,0.0,0.0,0.0,0.0,0.0,0.0,0.0,0.0,0.0,0.0,0.0,0.0,0.0,0.0,0.0,0.0,0.0,0.0,0.0,0.0,0.0,0.0,0.0,0.0,0.0,0.0,0.0,0.0,0.0,0.0,0.0,0.0,0.0,0.0,0.0,0.0,0.0,0.0,0.0,0.0,0.0,0.6328,0.7393,0.8209,0.8759,0.9475,1.01,1.0557,1.0532,1.0117,0.9282,0.0,0.0,0.0,0.0,0.0,0.0,0.0,0.0,0.0,0.0,0.0,0.0,0.0,0.0,0.0,0.0,0.0,0.0,0.0,0.0,0.0,0.0,0.0,0.0,0.0,0.0,0.0,0.0,0.0,0.0,0.0,0.0,0.0,0.0,0.0,0.0,0.0,0.0,0.0,1.0892,1.2068,0.0,0.0,0.0,0.0,0.0,0.0,0.0,0.0,1.0602,0.0,0.0,0.0,0.0,0.0,0.0,0.0,0.0,0.0,0.0,0.0,0.0,0.0,0.0,0.0,0.0,0.0,0.0,0.0,0.0,0.0,0.0,0.0,0.0,0.0,0.0,0.0,0.0,0.0,0.0,0.0,0.0,0.0,0.0,0.0,0.0,0.0,0.0,0.0,0.0,0.0,0.0,0.0,0.0,0.0,0.0,0.0,0.0,0.0,0.0,0.0,0.0,0.0,0.0,0.0,0.6515,0.7759,0.8755,0.9456,0.9959,1.0437,1.088,1.0783,1.0343,0.0,0.0,0.0,0.0,0.0,0.0,0.0,0.0,0.0,0.0,0.0,0.0,0.0,0.0,0.0,0.0,0.0,0.0,0.0,0.0,0.0,0.0,0.0,0.0,0.0,0.0,0.0,0.0,0.0,0.0,0.0,0.0,0.0,0.0,0.0,0.0,0.0,0.0,0.0,0.0,1.2199,1.3169,1.2457,0.0,0.0,0.0,0.0,0.0,0.0,1.0777,1.0608,0.0,0.0,0.0,0.0,0.0,0.0,0.0,0.0,0.0,0.0,0.0,0.0,0.0,0.0,0.0,0.0,0.0,0.0,0.0,0.0,0.0,0.0,0.0,0.0,0.0,0.0,0.0,0.0,0.0,0.0,0.0,0.0,0.0,0.0,0.0,0.0,0.0,0.0,0.0,0.0,0.0,0.0,0.0,0.0,0.0,0.0,0.0,0.0,0.0,0.0,0.0,0.0,0.0,0.0,0.0,0.6726,0.8099,0.9283,1.0167,1.0518,1.0919,1.137,1.1139,1.0576,0.0,0.0,0.0,0.0,0.0,0.0,0.0,0.0,0.0,0.0,0.0,0.0,0.0,0.0,0.0,0.0,0.0,0.0,0.0,0.0,0.0,0.0,0.0,0.0,0.0,0.0,0.0,0.0,0.0,0.0,0.0,0.0,0.0,0.0,0.0,0.0,0.0,0.0,0.0,0.0,0.0,1.4019,1.3433,1.374,0.0,0.0,0.0,0.0,1.1022,1.1204,0.0,0.0,0.0,0.0,0.0,0.0,0.0,0.0,0.0,0.0,0.0,0.0,0.0,0.0,0.0,0.0,0.0,0.0,0.0,0.0,0.0,0.0,0.0,0.0,0.0,0.0,0.0,0.0,0.0,0.0,0.0,0.0,0.0,0.0,0.0,0.0,0.0,0.0,0.0,0.0,0.0,0.0,0.0,0.0,0.0,0.0,0.0,0.0,0.0,0.0,0.0,0.0,0.0,0.0,0.0,0.0,0.7383,0.8654,0.9835,1.0847,1.1455,1.1913,1.2322,1.1916,1.1145,0.0,0.0,0.0,0.0,0.0,0.0,0.0,0.0,0.0,0.0,0.0,0.0,0.0,0.0,0.0,0.0,0.0,0.0,0.0,0.0,0.0,0.0,0.0,0.0,0.0,0.0,0.0,0.0,0.0,0.0,0.0,0.0,0.0,0.0,0.0,0.0,0.0,0.0,0.0,0.0,0.0,1.4746,1.4528,1.5238,1.5366,0.0,0.0,1.2919,1.2444,1.2883,0.0,0.0,0.0,0.0,0.0,0.0,0.0,0.0,0.0,0.0,0.0,0.0,0.0,0.0,0.0,0.0,0.0,0.0,0.0,0.0,0.0,0.0,0.0,0.0,0.0,0.0,0.0,0.0,0.0,0.0,0.0,0.0,0.0,0.0,0.0,0.0,0.0,0.0,0.0,0.0,0.0,0.0,0.0,0.0,0.0,0.0,0.0,0.0,0.0,0.0,0.0,0.0,0.0,0.0,0.0,0.6651,0.7733,0.9082,1.0332,1.1359,1.1845,1.2248,1.2601,1.191,1.1028,0.0,0.0,0.0,0.0,0.0,0.0,0.0,0.0,0.0,0.0,0.0,0.0,0.0,0.0,0.0,0.0,0.0,0.0,0.0,0.0,0.0,0.0,0.0,0.0,0.0,0.0,0.0,0.0,0.0,0.0,0.0,0.0,0.0,0.0,0.0,0.0,0.0,0.0,0.0,0.0,0.0,0.0,1.4818,1.612,0.0,0.0,0.0,1.5344,1.4436,0.0,0.0,0.0,0.0,0.0,0.0,0.0,0.0,0.0,0.0,0.0,0.0,0.0,0.0,0.0,0.0,0.0,0.0,0.0,0.0,0.0,0.0,0.0,0.0,0.0,0.0,0.0,0.0,0.0,0.0,0.0,0.0,0.0,0.0,0.0,0.0,0.0,0.0,0.0,0.0,0.0,0.0,0.0,0.0,0.0,0.0,0.0,0.0,0.0,0.0,0.0,0.0,0.0,0.0,0.0,0.0,0.0,0.8182,0.9563,1.0854,1.1951,1.2314,1.2575,1.2706,1.2027,0.0,0.0,0.0,0.0,0.0,0.0,0.0,0.0,0.0,0.0,0.0,0.0,0.0,0.0,0.0,0.0,0.0,0.0,0.0,0.0,0.0,0.0,0.0,0.0,0.0,0.0,0.0,0.501,0.0,0.0,0.0,0.0,0.0,0.0,0.0,0.0,0.0,0.0,0.0,0.0,0.0,0.0,1.583,1.5375,1.6931,1.7772,0.0,0.0,1.7483,1.6299,1.6775,1.6409,0.0,0.0,0.0,0.0,0.0,0.0,0.0,0.0,0.0,0.0,0.0,0.0,0.0,0.0,0.0,0.0,0.0,0.0,0.0,0.0,0.0,0.0,0.0,0.0,0.0,0.0,0.0,0.0,0.0,0.0,0.0,0.0,0.0,0.0,0.0,0.0,0.0,0.0,0.0,0.0,0.0,0.0,0.0,0.0,0.0,0.0,0.0,0.0,0.0,0.0,0.0,0.0,0.0,0.0,0.0,0.8907,1.0198,1.1472,1.2751,1.3099,1.3086,1.2788,1.2613,1.1668,0.0,0.0,0.0,0.0,0.0,0.0,0.0,0.0,0.0,0.0,0.0,0.0,0.0,0.0,0.0,0.0,0.0,0.0,0.0,0.0,0.0,0.0,0.0,0.0,0.0,0.0,0.0,0.0,0.0,0.0,0.0,0.0,0.0,0.0,0.0,0.0,0.0,0.0,0.0,0.0,0.0,1.6584,1.6744,1.7896,1.8597,0.0,0.0,1.884,1.7669,1.8106,1.774,1.5264,0.0,0.0,0.0,0.0,0.0,0.0,0.0,0.0,0.0,0.0,0.0,0.0,0.0,0.0,0.0,0.0,0.0,0.0,0.0,0.0,0.0,0.0,0.0,0.0,0.0,0.0,0.0,0.0,0.0,0.0,0.0,0.0,0.0,0.0,0.0,0.0,0.0,0.0,0.0,0.0,0.0,0.0,0.0,0.0,0.0,0.0,0.0,0.0,0.0,0.0,0.0,0.0,0.0,0.7503,0.8917,1.0536,1.1842,1.2859,1.3066,1.3121,1.3002,1.2268,1.1287,0.0,0.0,0.0,0.0,0.0,0.0,0.0,0.0,0.0,0.0,0.0,0.0,0.0,0.0,0.0,0.0,0.0,0.0,0.0,0.0,0.0,0.0,0.0,0.0,0.0,0.0,0.0,0.0,0.5152,0.5349,0.5387,0.0,0.0,0.0,0.0,0.0,0.0,0.0,0.0,0.0,0.0,1.727,1.7424,1.9279,0.0,0.0,2.1456,2.1568,2.0369,2.0142,1.909,1.6147,1.4525,0.0,0.0,0.0,0.0,0.0,0.0,0.0,0.0,0.0,0.0,0.0,0.0,0.0,0.0,0.0,0.0,0.0,0.0,0.0,0.0,0.0,0.0,0.0,0.0,0.0,0.0,0.0,0.0,0.0,0.0,0.0,0.0,0.0,0.0,0.0,0.0,0.0,0.0,0.0,0.0,0.0,0.0,0.0,0.0,0.0,0.0,0.0,0.0,0.0,0.0,0.0,0.0,0.7868,0.9332,1.1075,1.2302,1.2895,1.313,1.3169,1.2948,1.2075,1.1215,0.0,0.0,0.0,0.0,0.0,0.0,0.0,0.0,0.0,0.0,0.0,0.0,0.0,0.0,0.0,0.0,0.0,0.0,0.0,0.0,0.0,0.0,0.0,0.0,0.0,0.0,0.0,0.0,0.526,0.5475,0.567,0.0,0.0,0.0,0.0,0.0,0.0,0.0,0.0,0.0,0.0,1.7733,1.814,2.0122,2.1625,2.1954,2.271,2.2806,2.1621,2.1125,1.994,1.705,0.0,0.0,0.0,0.0,0.0,0.0,0.0,0.0,0.0,0.0,0.0,0.0,0.0,0.0,0.0,0.0,0.0,0.0,0.0,0.0,0.0,0.0,0.0,0.0,0.0,0.0,0.0,0.0,0.0,0.0,0.0,0.0,0.0,0.0,0.0,0.0,0.0,0.0,0.0,0.0,0.0,0.0,0.0,0.0,0.0,0.0,0.0,0.0,0.0,0.0,0.0,0.0,0.0,0.8575,1.0352,1.1984,1.2886,1.2925,1.3416,1.3342,1.2642,1.2262,1.1685,1.086,0.0,0.0,0.0,0.0,0.0,0.0,0.0,0.0,0.0,0.0,0.0,0.0,0.0,0.0,0.0,0.0,0.0,0.0,0.0,0.0,0.0,0.0,0.0,0.0,0.0,0.0,0.5492,0.5151,0.5147,0.0,0.0,0.0,0.0,0.0,0.0,0.0,0.0,0.0,0.0,1.6436,1.7956,1.8927,2.015,2.1097,2.1341,2.1971,2.2011,2.0784,2.0663,2.0,0.0,0.0,0.0,0.0,0.0,0.0,0.0,0.0,0.0,0.0,0.0,0.0,0.0,0.0,0.0,0.0,0.0,0.0,0.0,0.0,0.0,0.0,0.0,0.0,0.0,0.0,0.0,0.4644,0.4418,0.0,0.0,0.0,0.0,0.0,0.0,0.0,0.0,0.0,0.0,0.0,0.9541,0.937,0.0,0.0,0.0,0.0,0.0,0.0,0.0,0.0,0.0,0.0,0.0,0.0,0.918,1.0912,1.2517,1.3301,1.3301,1.3564,1.3293,1.249,1.223,1.1429,1.0025,0.0,0.0,0.0,0.0,0.0,0.0,0.0,0.0,0.0,0.0,0.0,0.0,0.0,0.0,0.0,0.0,0.0,0.0,0.0,0.0,0.0,0.0,0.0,0.0,0.0,0.6023,0.0,0.0,0.0,0.0,0.0,0.0,0.0,0.0,0.0,0.0,0.0,1.2605,1.4687,1.6965,1.8669,1.9461,2.1006,2.2169,0.0,0.0,0.0,0.0,0.0,0.0,0.0,0.0,0.0,0.0,0.0,0.0,0.0,0.0,1.8486,1.7728,1.7034,1.6439,1.6086,0.0,0.0,0.0,0.0,0.0,0.0,0.0,0.0,0.0,0.0,0.0,0.0,0.0,0.0,0.5824,0.0,0.5626,0.0,0.0,0.0,0.0,0.0,0.0,0.0,0.0,1.1773,1.2304,1.1749,1.1459,1.109,0.0,1.0775,1.0103,0.0,0.0,0.0,0.0,0.0,0.0,0.0,0.0,1.0047,1.1522,1.2968,1.3584,1.3311,1.3564,1.3363,1.2712,1.2475,1.1706,1.0244,1.0049,0.9262,0.0,0.0,0.0,0.0,0.0,0.0,0.0,0.0,0.0,0.0,0.0,0.0,0.0,0.0,0.0,0.0,0.0,0.0,0.0,0.0,0.0,0.0,0.0,0.6371,0.0,0.0,0.0,0.0,0.0,0.0,0.0,0.0,0.0,1.0633,1.1963,1.3545,1.5165,1.7165,1.8903,2.0059,0.0,0.0,0.0,0.0,0.0,0.0,0.0,2.0717,2.0362,1.9957,2.002,2.087,2.1372,2.1862,2.2565,0.0,0.0,2.1167,2.0135,1.9432,1.9267,1.8548,1.7821,1.7401,1.7821,1.8328,0.0,0.0,0.0,0.0,0.0,0.0,0.0,0.0,0.7209,0.709,0.0,0.6824,0.0,0.0,0.0,0.0,0.0,0.0,0.0,0.0,1.3611,1.4323,1.3892,1.3273,1.2971,1.295,1.2817,1.2749,1.2609,1.0284,0.0,0.0,0.0,0.0,0.0,0.0,1.1193,1.2144,1.3455,1.375,1.2993,1.3446,1.3581,1.3278,1.3024,1.2458,1.1583,1.109,1.0162,0.8687,0.7753,0.0,0.0,0.0,0.0,0.0,0.0,0.0,0.0,0.0,0.0,0.0,0.0,0.0,0.0,0.0,0.0,0.0,0.0,0.0,0.0,0.6571,0.0,0.0,0.0,0.0,0.0,0.0,0.0,0.0,0.0,0.0,1.2128,1.3308,1.4678,1.5987,0.0,0.0,0.0,0.0,2.3315,2.405,2.4174,2.3887,2.3097,2.2342,2.1921,2.2078,0.0,0.0,2.3297,2.4378,2.5099,2.4906,2.5523,2.5645,2.4314,2.2839,2.1792,2.1624,2.1118,2.0432,1.9484,1.9823,2.039,0.9327,0.0,0.0,0.0,0.0,0.8432,0.838,0.8234,0.8171,0.8094,0.7998,0.7722,0.0,0.0,0.0,0.0,0.0,0.0,1.1927,1.3153,1.4673,1.5139,1.4775,1.4545,1.4453,1.4402,1.4364,1.4437,1.4565,1.3603,1.2128,1.0194,0.0,0.0,0.0,0.0,1.206,1.271,1.3945,1.4189,1.335,1.3844,1.4194,1.4328,1.3624,1.3019,1.2511,1.2088,1.1016,0.926,0.8628,0.0,0.0,0.0,0.0,0.0,0.0,0.0,0.0,0.0,0.0,0.0,0.0,0.0,0.0,0.0,0.0,0.0,0.0,0.0,0.783,0.7923,0.7875,0.0,0.0,0.0,0.0,0.0,0.0,0.0,0.0,0.0,1.4156,1.5256,1.6362,0.0,0.0,1.9817,2.1969,2.3178,2.4264,2.5428,0.0,0.0,0.0,2.3814,2.3645,2.4188,2.5072,2.5821,2.6155,2.6799,2.7518,2.8287,2.7942,2.751,2.7488,2.5677,2.396,2.3233,2.2374,2.1693,2.144,2.1458,2.1573,1.0816,0.977,0.979,0.9984,1.0315,1.0222,1.0009,0.9775,0.9637,0.9535,0.9485,0.9135,0.8868,0.8689,0.8903,0.0,0.0,0.0,1.3819,1.4766,1.6041,1.6441,1.6056,1.5923,1.5789,1.5616,1.556,1.5635,1.5797,1.5644,1.4678,1.2959,0.0,0.0,1.1604,1.2486,1.309,1.3398,1.4131,1.4277,1.3753,1.4004,1.4333,1.4773,1.3949,1.3299,1.2915,1.2514,1.1386,0.9504,0.9024,0.8209,0.0,0.0,0.0,0.0,0.0,0.0,0.0,0.0,0.0,0.0,0.0,0.5575,0.5762,0.0,0.0,0.0,0.6923,0.7842,0.8884,0.9032,0.0,0.0,0.0,0.0,0.0,0.0,0.0,1.3171,1.4602,1.5743,1.6483,1.7525,1.8144,1.7936,1.887,2.0356,2.2494,0.0,2.51,2.6266,2.6621,2.6581,2.5953,2.5258,2.5035,2.5658,2.7117,2.803,2.7906,2.8662,2.9454,2.9795,2.9383,2.88,2.8719,2.7304,2.5882,2.4815,2.3994,2.3389,2.303,2.2924,2.2984,1.192,1.2188,1.177,1.1924,1.2435,1.1958,1.1643,1.148,1.1314,1.1182,1.1041,1.0771,1.0541,1.0348,1.0705,0.0,0.0,1.458,1.5825,1.6431,1.756,1.7862,1.7486,1.7259,1.6905,1.6546,1.647,1.645,1.652,1.6689,1.658,1.6173,1.4629,1.3799,1.3691,1.4055,1.4231,1.4153,1.4192,1.4192,1.418,1.3983,1.4205,1.4818,1.4012,1.3338,1.2915,1.2483,1.1355,0.9524,0.908,0.8449,0.7447,0.0,0.0,0.0,0.0,0.0,0.0,0.0,0.0,0.0,0.0,0.0,0.0,0.0,0.0,0.0,0.8189,0.0,0.9832,1.0168,0.0,0.0,0.0,1.0427,1.1577,1.2377,1.3593,1.5496,0.0,0.0,0.0,0.0,1.9872,1.8405,1.9117,2.0552,2.2591,2.4242,2.5637,2.6652,2.7442,2.7821,2.7325,2.6697,2.6323,2.6661,2.834,2.933,2.8901,2.9985,3.0744,3.0326,3.0073,2.965,2.8444,2.8129,2.763,2.6157,2.5659,2.5137,2.4198,2.4226,2.4382,1.3447,1.3613,1.3399,1.3286,1.3219,1.2876,1.2565,1.2271,1.1745,1.1501,1.1449,1.1113,1.1117,1.1352,1.1492,1.2463,1.4089,1.5361,1.6422,1.7246,1.7805,1.7862,1.7495,1.7439,1.7287,1.7042,1.6717,1.6836,1.7398,1.7494,1.7381,1.7122,1.6982,1.6279,1.4991,1.5391,1.5312,1.4639,1.4951,1.4979,1.4767,1.4116,1.4232,1.5219,1.3795,1.2983,1.2894,1.2161,1.1054,0.9585,0.9736,0.9276,0.8051,0.79,0.0,0.0,0.0,0.0,0.0,0.0,0.0,0.0,0.0,0.6679,0.6876,0.0,0.7503,0.0,0.9446,1.0883,1.1631,1.2623,0.0,0.0,1.2789,1.3118,1.352,1.3821,1.4728,1.6618,1.7342,1.811,1.9189,1.9989,2.0568,2.0735,2.0803,2.1491,2.3241,2.4025,2.5088,2.6719,2.7513,2.7918,2.8096,2.8287,2.8046,2.746,2.8968,3.0046,2.9465,3.0364,3.1183,3.113,3.0438,2.9788,2.9398,2.856,2.7371,2.6109,2.562,2.535,2.4858,2.5045,2.538,1.3873,1.4109,1.4043,1.4075,1.405,1.3491,1.3034,1.2661,1.2216,1.1978,1.1928,1.1727,1.1776,1.2075,1.2553,1.352,1.4919,1.6223,1.7184,1.7872,1.8411,1.843,1.8045,1.8036,1.7797,1.7322,1.685,1.691,1.7482,1.7533,1.7625,1.7857,1.8139,1.7769,1.6843,1.6523,1.6123,1.5664,1.5879,1.5762,1.5325,1.4894,1.4921,1.5352,1.4143,1.3212,1.2648,1.2162,1.1261,0.9901,1.0066,0.9774,0.8834,0.8756,0.8462,0.0,0.0,0.0,0.0,0.0,0.0,0.0,0.0,0.0,0.0,0.0,0.9201,0.0,1.1397,0.0,1.3718,1.4903,1.5459,1.5143,1.5524,1.5728,1.5569,1.5608,1.6264,1.7873,1.8208,1.8799,2.0063,2.0567,2.1165,2.2055,2.2124,2.2611,2.4014,2.4824,2.5814,2.7229,2.7938,2.8322,2.8478,2.8833,2.8893,2.8438,2.9243,2.9988,2.9689,3.0147,3.0609,3.0561,3.0082,2.9437,2.8942,2.828,2.7281,2.6129,2.5769,2.5718,2.5498,2.5748,2.6215,1.382,1.414,1.4133,1.4385,1.4647,1.3793,1.3226,1.2919,1.2677,1.249,1.2415,1.2421,1.25,1.269,1.3561,1.4372,1.5248,1.6798,1.7723,1.8148,1.8836,1.8978,1.8603,1.8687,1.8284,1.7477,1.6905,1.6859,1.7266,1.7312,1.7711,1.8473,1.8624,1.8656,1.8559,1.7438,1.6833,1.6785,1.6726,1.6458,1.6009,1.5967,1.5861,1.5583,1.4764,1.3693,1.2442,1.2255,1.1591,1.0293,1.0262,1.0059,0.9616,0.9585,0.9417,0.0,0.9077,0.0,0.0,0.0,0.0,0.0,0.0,0.0,0.0,1.0124,1.1182,1.295,1.3595,1.4474,1.5898,1.6999,1.763,1.7678,1.8166,1.8283,1.763,1.7473,1.7869,1.9057,1.9133,1.9635,2.1024,2.1301,2.1727,2.2782,2.3258,2.3909,2.5083,2.5824,2.6539,2.767,2.8461,2.8848,2.8771,2.8999,2.916,2.8921,2.9199,2.9507,2.9466,2.9502,2.9512,2.9231,2.9066,2.8697,2.7697,2.7447,2.7012,2.6006,2.5947,2.6074,2.6143,2.6528,2.7232,1.4067,1.3966,1.3966,1.389,1.3767,1.3564,1.3517,1.3576,1.3151,1.2965,1.297,1.2933,1.3064,1.3323,1.3546,1.4177,1.5017,1.5905,1.6621,1.7183,1.8142,1.8366,1.8022,1.8483,1.8284,1.7495,1.7053,1.7139,1.7688,1.7852,1.8247,1.8879,1.9061,1.8958,0.0,0.0,0.0,0.0,1.6872,1.6933,1.7431,1.6769,1.6496,1.6658,1.5147,0.0,1.2822,1.211,1.127,1.0283,1.058,0.0,0.0,0.0,0.0,0.0,0.0,0.0,0.0,0.0,0.0,0.0,1.2911,1.268,1.1264,1.1875,1.2842,1.4027,1.5316,1.6528,1.7626,1.9132,2.0044,2.0046,2.0518,2.0466,1.946,1.8885,1.8872,1.9549,1.9327,1.9737,2.132,2.1803,2.2447,2.3737,2.4393,2.524,2.6616,2.5975,2.5709,2.6714,2.8304,2.918,2.9125,2.9504,2.9444,2.8784,2.8887,2.9131,2.891,2.8584,2.8319,2.7986,2.7618,2.7344,2.6772,2.6169,2.6031,2.6116,2.601,2.5956,2.6536,2.7418,2.8425,1.3932,0.0,1.4045,1.402,0.0,1.39,1.3887,1.3812,1.3458,1.3314,1.3314,1.332,1.3369,1.3511,1.3381,1.3696,1.4331,1.4926,1.558,1.6412,1.7497,1.8053,1.8109,1.8738,1.8687,1.8082,1.7697,1.7752,1.8249,1.8581,1.8974,1.9421,1.9558,1.9385,1.8945,1.832,1.7803,1.7383,1.7363,1.7517,1.7845,1.7443,1.7235,1.7286,0.0,0.0,0.0,0.0,0.0,0.0,0.0,0.0,0.0,0.0,0.0,1.0985,1.149,1.2034,1.2594,1.3399,1.4105,1.4595,1.5389,1.5203,1.3728,1.4066,1.4846,1.6104,1.7214,1.8276,1.9346,2.072,2.155,2.1564,2.2296,2.2216,2.0859,2.0126,2.0033,2.0427,1.9926,2.0129,2.1917,2.2512,2.3098,2.4055,2.479,2.5616,2.6706,2.6615,2.6715,2.7855,2.9055,2.9841,2.97,2.9815,2.9974,2.9596,2.9334,2.9114,2.8886,2.8275,2.7742,2.7471,2.7385,2.7276,2.7003,2.6826,2.6857,2.6857,2.6971,2.7366,2.8124,2.8762,2.9416,1.3719,1.393,1.4189,1.4298,1.4298,1.4298,1.4171,1.396,0.0,0.0,0.0,1.3634,1.3562,1.3498,1.329,1.3338,1.365,1.4022,1.4751,1.5745,1.6917,1.7745,1.8282,1.8913,1.9097,1.8738,1.8447,1.8502,1.8916,1.9342,1.9714,1.9979,1.9899,1.9602,1.9053,1.8359,1.7803,1.7432,1.7793,1.804,1.8117,1.8046,1.7997,1.7946,1.6643,1.5318,1.4,1.3053,1.211,1.12,1.1055,1.1033,1.1034,1.1477,1.1933,1.2299,1.3123,1.399,1.4758,1.5275,1.5923,1.6814,1.7317,1.7125,1.6138,1.6138,1.6749,1.8153,1.8865,1.9787,2.1029,2.2074,2.2794,2.299,2.3929,2.389,2.2243,2.1564,2.1407,2.1394,2.057,2.062,2.2273,2.2919,2.3493,2.4107,2.4819,2.5716,2.6665,2.7499,2.8326,2.9246,3.0121,3.0589,3.0236,3.0145,3.0265,3.0324,2.958,2.9,2.8802,2.8168,2.7543,2.7354,2.7622,2.776,2.7662,2.8057,2.8411,2.8027,2.8491,2.9277,3.0107,3.0434,3.0741,1.3719,1.3924,1.4189,1.4298,1.4298,1.4298,1.4274,1.422,1.396,1.3851,1.3863,1.4093,1.3912,1.3474,1.3539,1.3489,1.3454,1.3762,1.4387,0.0,1.6334,1.7115,1.7679,1.8615,1.9015,1.8951,1.9046,1.9356,1.9714,1.9993,2.0223,2.0387,1.9927,1.9163,1.8247,1.8066,1.7793,1.7445,1.7803,1.8335,1.8978,1.8616,1.8606,1.8837,1.7533,1.6366,1.5421,1.4128,1.301,1.2141,1.1716,1.1498,1.1519,1.2048,1.292,1.4105,1.4928,1.5937,1.7168,1.7477,1.7795,1.8327,1.8458,1.8086,1.7191,1.7453,1.8005,1.8748,1.9762,2.1019,2.2611,2.3451,2.423,2.5158,2.589,2.5646,2.3955,2.3613,2.3067,2.1838,2.0949,2.1027,2.2245,2.2694,2.3226,2.4193,2.4821,2.5555,2.686,2.8418,2.9361,2.9827,3.065,3.0953,3.0557,3.0498,3.0397,2.975,2.8986,2.8435,2.8336,2.7872,2.7439,2.7334,2.7871,2.8225,2.8296,2.8787,2.9417,2.9787,3.0484,3.1246,3.1917,3.2504,3.2783,1.3397,1.3702,1.3957,1.4166,1.4298,1.4298,1.4298,1.4286,1.4171,1.4117,1.4129,1.4244,1.4134,1.3878,1.3787,1.373,1.3621,1.3585,1.4043,1.4916,1.5961,1.6804,1.7441,1.8775,1.9402,1.9363,1.9998,2.0383,2.0549,2.0778,2.0946,2.0954,2.0078,1.9174,1.8354,1.79,1.7578,1.7435,1.7793,1.8158,1.8489,1.8486,1.8707,1.9054,1.7988,1.6965,1.6122,1.4966,1.3828,1.2668,1.242,1.2224,1.2017,1.2705,1.3579,1.4644,1.5716,1.6875,1.8205,1.9082,1.9789,2.0205,2.026,2.0117,1.9648,1.9614,1.9976,2.0885,2.1753,2.2719,2.3966,2.4661,2.538,2.6203,2.6791,2.6687,2.5707,2.521,2.4566,2.3498,2.2349,2.1943,2.2712,2.3175,2.343,2.3881,2.4646,2.5711,2.6421,2.8182,2.9591,3.0072,3.0864,3.1253,3.096,3.089,3.0721,3.0507,2.9817,2.9141,2.8658,2.8256,2.8093,2.794,2.8393,2.8966,2.9383,3.0351,3.1043,3.1428,3.2382,3.3134,3.3534,3.3942,3.3814,1.3019,1.3456,1.3772,1.407,1.4298,1.4298,1.4298,1.4298,1.4298,1.4298,1.4298,1.4298,1.4248,1.4096,1.4001,1.3878,1.377,1.3607,1.3932,1.4762,1.5794,1.6617,1.7399,1.8981,1.978,1.9889,2.0686,2.1154,2.1227,2.138,2.1271,2.0899,1.9952,1.9137,1.8537,1.7867,1.7432,1.7285,1.7754,1.7961,1.7928,1.8207,1.8606,1.9013,1.8299,1.7543,1.6829,1.5856,1.4759,1.3607,1.3328,1.3072,1.2815,1.3627,1.4474,1.5371,1.6563,1.7779,1.898,2.0118,2.0966,2.1444,2.1585,2.1629,2.1583,2.14,2.1626,2.2514,2.3107,2.3853,2.4733,2.5442,2.6154,2.6909,2.7575,2.7602,2.6961,2.6465,2.5741,2.487,2.338,2.2544,2.2962,2.3315,2.3446,2.3655,2.4788,2.5793,2.6315,2.802,2.9451,3.0184,3.0939,3.1235,3.1103,3.1044,3.0968,3.1053,3.0592,2.9944,2.934,2.9153,2.9125,2.8937,2.933,3.009,3.0953,3.2028,3.2813,3.3167,3.4075,3.4922,3.5198,3.5304,3.4887,1.2885,1.3197,1.3693,1.4064,1.431,1.4304,1.4298,1.4298,1.4298,1.4298,1.4298,1.4298,1.4153,1.394,1.4021,1.397,1.3773,1.3789,1.4282,1.5055,1.5868,1.6718,1.7679,1.8965,1.9841,2.0409,2.0925,2.1355,2.1568,2.1273,2.0693,1.9832,1.9288,1.8824,1.837,1.8071,1.7535,1.6804,1.7598,1.7961,1.7928,1.7928,1.8324,1.9088,1.8621,1.8288,1.8071,1.6972,1.6029,1.5459,1.4635,1.4169,1.42,1.5107,1.6077,1.7006,1.8097,1.9126,2.0043,2.0277,2.0597,2.1023,2.1496,2.1709,2.172,2.2051,2.2277,2.2556,2.2889,2.373,2.4902,2.5656,2.6539,2.7695,2.8543,2.8686,2.7646,2.7372,2.6537,2.44,2.3304,2.2414,2.2519,2.2256,2.2518,2.3796,2.5049,2.6211,2.7085,2.8412,2.9598,3.0115,3.0682,3.0773,3.0501,3.0723,3.0775,3.0409,3.0215,3.0069,2.9895,2.9648,2.9539,3.0004,3.0626,3.1277,3.252,3.3767,3.4398,3.4736,3.5476,3.6399,3.6999,3.7016,3.6244,1.302,1.3336,1.3746,1.4048,1.4289,1.4322,1.4298,1.4298,1.4298,1.4298,1.4298,1.4298,1.4232,1.4129,1.4209,1.4145,1.4075,1.4108,1.4486,1.5166,1.6236,1.7069,1.7728,1.9691,2.0619,2.0615,2.1372,2.1751,2.1623,2.1266,2.0587,1.9671,1.9211,1.8918,1.867,1.789,1.7342,1.7106,1.7174,1.7373,1.7733,1.8061,1.8514,1.9,1.8922,1.8548,1.804,1.7688,1.7149,1.6226,1.597,1.5777,1.5546,1.6192,1.7028,1.8091,1.94,2.0445,2.1073,2.1137,2.1339,2.1807,2.2009,2.2115,2.2115,2.2296,2.2542,2.2959,2.3194,2.378,2.4753,2.562,2.6573,2.7694,2.8675,2.8948,2.815,2.8033,2.7249,2.538,2.4112,2.3093,2.2544,2.2191,2.2648,2.3981,2.5354,2.6621,2.7451,2.8782,2.9928,3.0516,3.0856,3.0712,3.032,3.062,3.066,3.0335,3.0388,3.0581,3.016,3.0303,3.0412,3.0582,3.1183,3.1957,3.286,3.4131,3.5063,3.5599,3.6076,3.6707,3.7369,3.7184,3.6477,1.2957,1.3218,1.3731,1.414,1.4407,1.4508,1.4473,1.4413,1.4413,1.437,1.4304,1.4298,1.4298,1.4298,1.4298,1.4298,1.4298,1.4298,1.4544,1.5108,1.636,1.7163,1.769,1.9892,2.0826,2.0695,2.1626,2.1971,2.154,2.1273,2.0587,1.962,1.9158,1.8986,1.88,1.7893,1.7421,1.7373,1.7126,1.7243,1.7645,1.8151,1.864,1.8975,1.9042,1.867,1.7936,1.8216,1.7916,1.6829,1.7037,1.711,1.6993,1.7357,1.804,1.9117,2.032,2.1233,2.1713,2.1861,2.2109,2.253,2.2594,2.2604,2.2604,2.2604,2.2829,2.3229,2.3378,2.3802,2.4875,2.578,2.6774,2.7824,2.8918,2.9261,2.8747,2.8551,2.7693,2.6028,2.467,2.3681,2.2725,2.2688,2.3315,2.4321,2.5694,2.7125,2.7876,2.9104,3.0098,3.0843,3.1024,3.0751,3.027,3.0607,3.0634,3.0307,3.0385,3.079,3.0398,3.0718,3.0756,3.0643,3.1584,3.2404,3.3066,3.4167,3.534,3.5784,3.6276,3.6846,3.74,3.7153,3.7141,1.2583,1.2817,1.3766,1.4333,1.4671,1.4901,1.492,1.4647,1.4647,1.4552,1.4352,1.4334,1.431,1.4328,1.4334,1.4298,1.4298,1.4316,1.4472,1.4888,1.6104,1.6923,1.7441,1.9161,2.0159,2.038,2.1522,2.1789,2.1193,2.1117,2.0493,1.9396,1.9081,1.8882,1.8739,1.8371,1.7943,1.7535,1.7725,1.7811,1.7691,1.8095,1.8472,1.8774,1.8808,1.8672,1.8382,1.8393,1.8154,1.7678,1.7699,1.7905,1.8278,1.8733,1.9385,2.0245,2.0814,2.1337,2.1814,2.2257,2.2623,2.3027,2.3088,2.3131,2.3078,2.3067,2.3149,2.3234,2.3302,2.3888,2.5281,2.6247,2.7311,2.8462,2.9494,2.9715,2.9222,2.8665,2.7628,2.6067,2.4758,2.3715,2.2647,2.338,2.4151,2.4936,2.5999,2.7256,2.8569,2.9209,2.9836,3.0634,3.0921,3.0777,3.0333,3.062,3.0438,3.0111,3.0398,3.0998,3.0889,3.0784,3.0663,3.0692,3.1433,3.2219,3.3063,3.4088,3.5215,3.5936,3.6613,3.7167,3.7302,3.7983,3.7958,1.2993,1.3323,1.3755,1.4106,1.4406,1.4714,1.4794,1.4717,1.4861,1.4914,1.4829,1.4811,1.4811,1.4805,1.4642,1.4467,1.4328,1.4479,1.471,1.5046,1.6195,1.6959,1.7582,1.9353,2.0224,2.0356,2.1695,2.2139,2.1522,2.1245,2.0631,1.9742,1.9075,1.887,1.8948,1.8463,1.8161,1.8169,1.8096,1.7954,1.786,1.8031,1.8212,1.8472,1.8674,1.8527,1.7957,1.8516,1.8652,1.8175,1.8702,1.923,1.9675,2.0131,2.0648,2.1259,2.1735,2.2201,2.2625,2.2842,2.2998,2.3153,2.3194,2.3215,2.3194,2.3205,2.3308,2.3557,2.3629,2.4247,2.5234,2.6048,2.6709,2.7778,2.9239,2.9733,2.8715,2.8427,2.7795,2.5871,2.4485,2.3638,2.3651,2.4027,2.4719,2.5467,2.6504,2.7575,2.8472,2.9048,2.9715,3.0568,3.0686,3.0503,3.0751,3.0817,3.0777,3.0411,3.0451,3.083,3.093,3.1003,3.093,3.081,3.1371,3.2283,3.3253,3.4273,3.5312,3.5758,3.6449,3.6508,3.7079,3.7216,3.7394,1.3202,1.3617,1.38,1.4014,1.4307,1.4716,1.4867,1.4881,1.5131,1.5191,1.5125,1.5113,1.5113,1.5083,1.492,1.4751,1.4576,1.4678,1.4807,1.5054,1.6107,1.6828,1.7467,1.9137,1.9943,2.0107,2.1665,2.2321,2.2108,2.1841,2.1145,2.0095,1.954,1.9164,1.8986,1.8523,1.8323,1.8273,1.811,1.8008,1.8008,1.8008,1.811,1.8323,1.8636,1.8504,1.783,1.8652,1.8942,1.873,1.9421,2.0184,2.0725,2.1258,2.1681,2.2019,2.2439,2.2868,2.3166,2.332,2.3422,2.3412,2.3505,2.3546,2.3546,2.3588,2.3784,2.4012,2.4105,2.4493,2.5197,2.5687,2.6297,2.7426,2.906,2.9592,2.8467,2.8513,2.7677,2.5986,2.482,2.4343,2.4438,2.4921,2.548,2.6028,2.6915,2.7719,2.8294,2.8943,2.9506,3.0304,3.049,3.049,3.062,3.0738,3.0725,3.0424,3.0529,3.0843,3.0972,3.1084,3.1088,3.101,3.1531,3.2507,3.3488,3.4475,3.5031,3.5387,3.5218,3.5121,3.5632,3.6086,3.6339,1.3217,1.3544,1.3801,1.4081,1.4509,1.4938,1.5194,1.51,1.5349,1.5339,1.5182,1.5161,1.5203,1.5149,1.5137,1.5095,1.504,1.4859,1.4775,1.4947,1.5858,1.6471,1.6871,1.8405,1.9483,1.9781,2.1371,2.2449,2.2802,2.2712,2.198,2.0753,2.0438,1.9703,1.8481,1.8619,1.832,1.7975,1.7944,1.7974,1.8008,1.8008,1.8095,1.8325,1.8676,1.861,1.8016,1.8781,1.9126,1.8978,1.965,2.0537,2.1372,2.1978,2.2442,2.2533,2.2895,2.3158,2.3269,2.3539,2.3743,2.3786,2.4006,2.4096,2.4108,2.4267,2.4383,2.4404,2.4467,2.47,2.5137,2.5557,2.6393,2.7855,2.9015,2.9465,2.9125,2.8788,2.8023,2.6343,2.5461,2.5339,2.5556,2.5878,2.6291,2.6544,2.7065,2.7613,2.8116,2.8638,2.9131,2.9558,2.9899,3.0111,3.0333,3.0505,3.0451,3.0398,3.0699,3.096,3.0856,3.0878,3.076,3.0742,3.1523,3.2425,3.3128,3.4023,3.4185,3.439,3.4061,3.4083,3.4687,3.5249,3.5454,1.3065,1.3469,1.3578,1.3947,1.4424,1.4661,1.4817,1.5058,1.5387,1.5417,1.5405,1.5545,1.565,1.5602,1.5463,1.5384,1.5354,1.5119,1.5083,1.5333,1.5805,1.6277,1.6847,1.8012,1.9651,2.1313,2.2249,2.2883,2.3174,2.305,2.2327,2.1412,2.0753,2.0071,1.9234,1.8742,1.8345,1.819,1.7904,1.7852,1.8008,1.8008,1.8179,1.8487,1.8635,1.8719,1.8887,1.9348,1.9621,1.9656,2.0117,2.077,2.1556,2.1909,2.2311,2.2885,2.2794,2.3046,2.3536,2.3707,2.3797,2.3841,2.4067,2.4196,2.4196,2.4378,2.4507,2.4507,2.4497,2.4615,2.4998,2.5498,2.6317,2.7383,2.8602,2.9239,2.8748,2.7858,2.6839,2.6005,2.5613,2.5577,2.581,2.6284,2.6486,2.6419,2.684,2.7325,2.7608,2.7936,2.8387,2.9131,2.9392,2.9706,3.0006,3.0398,3.0594,3.0568,3.079,3.0764,3.066,3.0516,3.0411,3.075,3.1512,3.2205,3.2904,3.3261,3.3408,3.3684,3.3675,3.3888,3.424,3.442,3.451,1.2757,1.3229,1.3475,1.377,1.4213,1.4339,1.4572,1.4977,1.5292,1.5561,1.5783,1.5971,1.6103,1.6115,1.591,1.5801,1.5771,1.5517,1.5433,1.5487,1.5535,1.5959,1.6715,1.813,2.0015,2.1988,2.2563,2.3006,2.3563,2.3356,2.2846,2.2135,2.133,2.0526,1.9709,1.8871,1.8356,1.8228,1.7902,1.7784,1.7964,1.8008,1.8178,1.8549,1.8789,1.9092,1.9519,1.989,2.0122,2.029,2.0747,2.139,2.191,2.2028,2.2256,2.2546,2.2645,2.2784,2.3239,2.3418,2.3537,2.358,2.3851,2.4034,2.411,2.4282,2.4507,2.4507,2.4507,2.4645,2.5015,2.5364,2.6109,2.7164,2.8484,2.9104,2.8739,2.8013,2.7381,2.6954,2.654,2.6404,2.6544,2.627,2.64,2.6261,2.6473,2.6912,2.7196,2.7501,2.8109,2.8721,2.9174,2.9497,2.9771,3.0202,3.0699,3.079,3.0869,3.0581,3.0296,3.0111,2.999,3.0613,3.1315,3.1892,3.2569,3.2478,3.2556,3.2877,3.3199,3.2945,3.2942,3.3235,3.3386,1.2294,1.2762,1.3435,1.3793,1.3917,1.4164,1.4494,1.488,1.5194,1.5649,1.606,1.6288,1.641,1.6549,1.629,1.6187,1.6205,1.5897,1.565,1.5451,1.5339,1.561,1.6787,1.8506,2.0288,2.187,2.2309,2.292,2.3665,2.3687,2.3514,2.2876,2.2053,2.111,2.0012,1.8953,1.8302,1.8,1.7795,1.775,1.7915,1.8008,1.8252,1.8656,1.9053,1.9463,1.9932,2.0351,2.0496,2.0462,2.1481,2.2135,2.2253,2.2369,2.2259,2.2183,2.2324,2.2494,2.2617,2.2993,2.3178,2.3232,2.358,2.3797,2.3884,2.4311,2.4631,2.4631,2.4662,2.4861,2.5225,2.5521,2.622,2.7415,2.8783,2.9479,2.9733,2.9302,2.8875,2.8662,2.8047,2.7415,2.7468,2.6717,2.6298,2.6105,2.6228,2.6627,2.7077,2.7454,2.7751,2.8308,2.89,2.9248,2.9497,3.0372,3.0869,3.1171,3.1158,3.0856,3.0388,3.015,3.0467,3.1026,3.1406,3.1867,3.2096,3.2217,3.2201,3.2423,3.2299,3.1719,3.1847,3.2364,3.2478,1.2043,1.2636,1.3379,1.3954,1.4356,1.4328,1.4571,1.5122,1.5507,1.5771,1.5985,1.6392,1.6525,1.6398,1.6332,1.6187,1.6006,1.5741,1.5584,1.5433,1.5016,1.5897,1.7398,1.8716,2.0148,2.1634,2.2256,2.2783,2.3379,2.3646,2.3632,2.3325,2.2529,2.1522,2.0356,1.9222,1.8258,1.7684,1.758,1.7557,1.7633,1.7881,1.8379,1.9062,1.9219,1.9678,2.0342,2.083,2.1025,2.1006,2.2043,2.2597,2.2389,2.2249,2.2275,2.2568,2.2314,2.2353,2.2799,2.3023,2.3091,2.3144,2.3537,2.3797,2.3807,2.4546,2.4928,2.5065,2.5306,2.5643,2.5965,2.6451,2.7672,2.9484,2.9977,3.0101,3.0316,3.0281,3.0043,2.9578,2.8938,2.841,2.7918,2.7311,2.6589,2.608,2.6164,2.6583,2.7122,2.7327,2.7554,2.8087,2.8608,2.8922,2.9454,3.0346,3.1065,3.1523,3.1562,3.1431,3.1039,3.0725,3.1461,3.2334,3.233,3.2653,3.2567,3.2536,3.2422,3.2169,3.1865,3.1619,3.1754,3.2097,3.1881,1.1473,1.2153,1.3241,1.3988,1.4386,1.429,1.4654,1.5311,1.5653,1.5972,1.6321,1.6672,1.6779,1.6616,1.6507,1.6314,1.6042,1.5674,1.5505,1.5439,1.5184,1.5952,1.7382,1.8476,1.9783,2.1083,2.1954,2.261,2.3129,2.3447,2.366,2.3645,2.294,2.2016,2.101,1.9833,1.8776,1.8092,1.782,1.7734,1.7681,1.7871,1.8447,1.9092,1.9316,1.9805,2.0947,2.1543,2.1777,2.1865,2.232,2.2637,2.249,2.2295,2.2305,2.2627,2.2285,2.2393,2.2773,2.2984,2.3101,2.3144,2.3493,2.3733,2.3981,2.4561,2.4955,2.5155,2.5435,2.5822,2.6536,2.757,2.915,3.0681,3.1096,3.1136,3.1254,3.1085,3.0947,3.0595,2.9942,2.9038,2.8461,2.762,2.6813,2.626,2.6294,2.679,2.725,2.7284,2.746,2.804,2.8621,2.9065,2.9693,3.0581,3.164,3.2098,3.2411,3.2215,3.1705,3.143,3.1948,3.272,3.305,3.3245,3.3068,3.2779,3.2368,3.206,3.1775,3.1711,3.1799,3.1973,3.1716,1.0771,1.1547,1.3035,1.3849,1.4257,1.432,1.4869,1.5537,1.5856,1.6299,1.6856,1.708,1.7008,1.7038,1.6652,1.6465,1.6163,1.5686,1.5505,1.5436,1.5452,1.5928,1.6697,1.7896,1.9149,2.0334,2.1476,2.2206,2.2811,2.3247,2.3705,2.3834,2.3306,2.251,2.1522,2.0461,1.9564,1.8685,1.8284,1.8088,1.7998,1.8086,1.8496,1.9033,1.9648,2.0488,2.168,2.2353,2.2598,2.2725,2.2627,2.2656,2.2646,2.2637,2.2422,2.2256,2.2402,2.251,2.2646,2.2945,2.3101,2.3144,2.3422,2.3668,2.4093,2.4546,2.5017,2.5346,2.5305,2.6105,2.7271,2.8829,3.0201,3.1348,3.1949,3.2209,3.2114,3.1788,3.1763,3.2102,3.0871,2.9842,2.885,2.7783,2.6751,2.6738,2.6813,2.7303,2.7704,2.7908,2.7941,2.8108,2.8726,2.9353,3.0072,3.0843,3.1967,3.2842,3.33,3.3208,3.2502,3.228,3.2422,3.2841,3.3688,3.3805,3.3497,3.3057,3.2535,3.2286,3.2191,3.1911,3.1757,3.2005,3.1954,1.0318,1.1127,1.2479,1.3606,1.4446,1.4826,1.53,1.5994,1.6482,1.6803,1.7003,1.7092,1.6978,1.6773,1.6489,1.6127,1.5753,1.5535,1.5403,1.5215,1.543,1.5706,1.6223,1.7095,1.8311,1.9621,2.0501,2.1445,2.2399,2.3147,2.3655,2.402,2.3599,2.2803,2.1723,2.0897,1.9792,1.8892,1.8616,1.8359,1.8139,1.8305,1.8549,1.8919,2.0021,2.1445,2.2559,2.2969,2.334,2.3672,2.3354,2.3081,2.3262,2.2861,2.2637,2.2672,2.2555,2.2623,2.2939,2.3023,2.3101,2.3203,2.3614,2.3994,2.4113,2.4975,2.5547,2.5995,2.651,2.7357,2.8851,3.0191,3.1024,3.1539,3.1797,3.1871,3.1743,3.2244,3.2554,3.2453,3.17,3.067,2.9716,2.8888,2.8009,2.7454,2.7551,2.7974,2.8282,2.8626,2.8566,2.8625,2.9104,2.9719,2.998,3.0882,3.2097,3.2921,3.343,3.3849,3.3143,3.3013,3.3146,3.3714,3.4578,3.442,3.3944,3.3436,3.2878,3.2738,3.264,3.2558,3.2453,3.2463,3.2449,0.9702,1.0433,1.1756,1.2947,1.3917,1.4681,1.5443,1.6185,1.6786,1.7071,1.7047,1.7083,1.6881,1.6501,1.6217,1.5867,1.5541,1.536,1.5246,1.5191,1.5372,1.5637,1.5886,1.6462,1.7454,1.9169,2.0136,2.1178,2.2181,2.2887,2.3497,2.3954,2.3766,2.3037,2.208,2.1383,2.0389,1.9378,1.9042,1.8734,1.8296,1.8436,1.8754,1.9124,2.0391,2.1836,2.3041,2.3403,2.4023,2.4482,2.4033,2.3525,2.3643,2.3184,2.2925,2.2984,2.2925,2.2838,2.3042,2.311,2.3188,2.3383,2.3761,2.414,2.4526,2.5285,2.5903,2.6492,2.7254,2.8319,3.0181,3.0797,3.1324,3.1667,3.1485,3.1238,3.1195,3.1775,3.2332,3.2139,3.1436,3.0658,2.993,2.9415,2.9202,2.8561,2.8835,2.925,2.9718,2.9892,2.9404,2.9425,2.9748,3.0009,3.0072,3.0856,3.2176,3.2764,3.3064,3.3483,3.343,3.3549,3.3773,3.4345,3.4787,3.474,3.4258,3.3756,3.3422,3.3379,3.3349,3.3295,3.3349,3.3471,3.3444,0.907,0.9727,1.1061,1.2175,1.3236,1.4391,1.5357,1.6149,1.6803,1.6975,1.7014,1.7002,1.667,1.632,1.597,1.568,1.5366,1.5173,1.5028,1.5149,1.5378,1.5654,1.5866,1.6227,1.7025,1.8716,1.9614,2.073,2.1862,2.2636,2.3188,2.3646,2.3795,2.3299,2.2473,2.1934,2.1121,1.999,1.9567,1.9136,1.8557,1.8611,1.8922,1.9541,2.0537,2.1924,2.3057,2.3652,2.4307,2.5449,2.4394,2.3848,2.3672,2.3398,2.3101,2.3101,2.3052,2.3062,2.3101,2.3188,2.3428,2.3779,2.3975,2.4352,2.4957,2.5458,2.6067,2.695,2.7908,2.9269,3.1009,3.1535,3.1687,3.178,3.1182,3.0708,3.0457,3.0771,3.0972,3.126,3.0909,3.0281,3.0043,2.9716,2.9729,2.9856,3.015,3.0534,3.0983,3.0984,3.0449,3.0077,3.0322,3.0649,3.0764,3.083,3.2098,3.2568,3.279,3.3143,3.3548,3.3916,3.4114,3.4421,3.4692,3.4671,3.4607,3.419,3.3971,3.402,3.4016,3.4,3.4165,3.4477,3.4355,0.8588,0.938,1.0586,1.1877,1.316,1.437,1.5287,1.5897,1.6547,1.6767,1.6736,1.6525,1.6404,1.6151,1.5765,1.5312,1.495,1.4805,1.4902,1.5107,1.536,1.5608,1.5877,1.6133,1.7066,1.8173,1.9056,2.0103,2.1543,2.2333,2.2878,2.3329,2.361,2.3311,2.2829,2.2327,2.1546,2.0532,2.0037,1.9504,1.898,1.8791,1.9093,1.967,2.0644,2.1934,2.3223,2.374,2.4219,2.4941,2.3926,2.3603,2.3672,2.3393,2.3188,2.3101,2.3101,2.3101,2.3179,2.3486,2.3672,2.3935,2.4375,2.4832,2.5212,2.5696,2.6421,2.7573,2.9037,3.0588,3.1701,3.2148,3.2047,3.1768,3.1298,3.0721,2.9779,2.949,2.9892,3.0419,3.0206,3.0131,3.0131,3.0295,3.0524,3.0767,3.118,3.1623,3.2119,3.1836,3.1292,3.1003,3.0843,3.1209,3.1497,3.1484,3.1954,3.2306,3.2581,3.2921,3.3378,3.3992,3.4389,3.4551,3.4754,3.4867,3.4699,3.45,3.4551,3.4574,3.4639,3.4679,3.4761,3.491,3.5059,0.797,0.8696,0.9861,1.1137,1.2469,1.4085,1.5088,1.5662,1.6348,1.6616,1.6483,1.6332,1.6169,1.5837,1.5487,1.5004,1.4624,1.4503,1.4727,1.5059,1.5258,1.5529,1.5866,1.6189,1.7246,1.8255,1.8862,1.9749,2.1422,2.203,2.2577,2.2976,2.321,2.3084,2.2791,2.2236,2.1565,2.0772,2.0161,1.9576,1.8896,1.8658,1.8867,1.9621,2.0469,2.1641,2.2861,2.3652,2.4072,2.4482,2.4141,2.3984,2.3975,2.3896,2.3549,2.3218,2.313,2.3227,2.3428,2.3721,2.3955,2.4453,2.492,2.5166,2.5477,2.602,2.703,2.8656,2.9954,3.156,3.2481,3.2754,3.2664,3.2235,3.1549,3.0658,2.9816,2.9038,2.9201,2.9765,2.9892,3.0093,3.0557,3.0798,3.1231,3.1683,3.2113,3.2587,3.3118,3.2721,3.2124,3.1524,3.1235,3.1236,3.1562,3.1641,3.1602,3.1901,3.2306,3.2646,3.326,3.3901,3.4241,3.4439,3.4643,3.5083,3.5003,3.4848,3.4996,3.5169,3.5275,3.5287,3.5262,3.5371,3.5532,0.7467,0.81,0.9302,1.0515,1.1809,1.3646,1.4834,1.5433,1.6202,1.6398,1.6223,1.6175,1.5934,1.5523,1.5161,1.4769,1.4316,1.431,1.4618,1.5028,1.5137,1.539,1.5856,1.6339,1.7134,1.8508,1.8988,1.9772,2.1178,2.1817,2.2274,2.2683,2.2702,2.2831,2.2817,2.2327,2.1412,2.0692,1.9974,1.9338,1.8654,1.8251,1.8418,1.9268,2.0117,2.1251,2.2519,2.3242,2.3877,2.4258,2.4307,2.4287,2.4394,2.4414,2.4092,2.3491,2.3354,2.3559,2.3818,2.4082,2.447,2.5024,2.5259,2.5582,2.6096,2.6867,2.8013,2.9988,3.1181,3.2045,3.2785,3.2955,3.278,3.2365,3.1399,3.0444,2.9828,2.9239,2.8888,2.9302,2.9603,3.0181,3.0809,3.1377,3.1823,3.2438,3.2912,3.3238,3.3641,3.3465,3.2894,3.2032,3.1575,3.1327,3.1419,3.1523,3.1393,3.1339,3.1836,3.2241,3.3038,3.3835,3.4217,3.4743,3.5129,3.5509,3.5343,3.5249,3.544,3.5627,3.5816,3.5976,3.6026,3.6012,3.612,0.7393,0.8097,0.9302,1.0515,1.1787,1.3503,1.4542,1.5104,1.5743,1.5976,1.597,1.5922,1.5765,1.5396,1.4956,1.4594,1.4377,1.4328,1.4588,1.5046,1.5125,1.5384,1.5878,1.6193,1.7137,1.8441,1.9028,2.0076,2.1136,2.1648,2.2013,2.2424,2.2658,2.2876,2.3058,2.2336,2.1806,2.1016,2.02,1.9258,1.8389,1.8093,1.8539,1.9346,2.0195,2.1201,2.2393,2.3086,2.3643,2.4248,2.4082,2.4102,2.4326,2.4424,2.4404,2.4297,2.4268,2.4251,2.4394,2.46,2.4984,2.5545,2.5964,2.6433,2.7115,2.806,2.9257,3.0576,3.1536,3.2202,3.2721,3.2641,3.2177,3.1763,3.1248,3.0281,2.9603,2.9728,2.9352,2.9691,3.0281,3.0746,3.1286,3.1842,3.2416,3.3077,3.3623,3.3901,3.4007,3.3766,3.3799,3.3,3.2253,3.1977,3.192,3.1935,3.1604,3.1277,3.1765,3.2266,3.3159,3.4083,3.484,3.5325,3.5733,3.5841,3.5625,3.5642,3.5858,3.6204,3.6533,3.673,3.6847,3.6822,3.6769,0.7209,0.8044,0.9267,1.0515,1.1782,1.3462,1.4493,1.5035,1.5618,1.5885,1.5855,1.5722,1.5445,1.5059,1.4636,1.4425,1.4316,1.431,1.46,1.5022,1.5155,1.539,1.5878,1.6377,1.7226,1.8122,1.8899,1.9816,2.0925,2.1764,2.2146,2.2177,2.2289,2.2455,2.2793,2.2061,2.1374,2.06,1.9737,1.8882,1.832,1.8334,1.8887,1.9989,2.0596,2.1475,2.2321,2.3193,2.3613,2.4121,2.4219,2.4636,2.4746,2.4814,2.4863,2.5156,2.4902,2.4785,2.4805,2.5028,2.5423,2.6117,2.6747,2.7521,2.8402,2.9326,3.0249,3.1214,3.1869,3.2339,3.2664,3.2692,3.2378,3.1888,3.116,3.0783,3.0168,3.0043,3.0105,3.0532,3.0934,3.1386,3.1813,3.2307,3.2786,3.3301,3.3704,3.3898,3.3994,3.3834,3.3971,3.4094,3.3384,3.2761,3.2768,3.2789,3.2286,3.2098,3.2729,3.3227,3.3684,3.4473,3.5354,3.5822,3.6067,3.6047,3.5899,3.6044,3.6296,3.6794,3.7313,3.7534,3.7768,3.7658,3.7529,0.7038,0.7808,0.9114,1.0311,1.1505,1.3251,1.4283,1.4821,1.5523,1.5785,1.5748,1.5501,1.5143,1.4745,1.4467,1.4322,1.4304,1.4364,1.4684,1.4986,1.5228,1.5487,1.5902,1.6416,1.7119,1.8125,1.8926,1.9875,2.0971,2.187,2.2371,2.2194,2.2193,2.225,2.2053,2.1575,2.0869,1.9897,1.919,1.8589,1.8223,1.8421,1.9329,2.0254,2.1035,2.159,2.249,2.332,2.3769,2.4111,2.4675,2.5008,2.5057,2.501,2.5,2.5166,2.499,2.5057,2.5059,2.5253,2.5795,2.6716,2.7815,2.8943,3.0137,3.0726,3.1024,3.1725,3.2189,3.2413,3.2464,3.2641,3.2177,3.1725,3.1223,3.1135,3.0984,3.0608,3.0557,3.0959,3.1411,3.2001,3.2416,3.2767,3.3182,3.3547,3.3797,3.3937,3.3965,3.3966,3.4237,3.452,3.454,3.3881,3.3598,3.3427,3.3005,3.2923,3.3553,3.3895,3.4145,3.5061,3.6088,3.6415,3.6455,3.6873,3.7077,3.6895,3.6805,3.7477,3.8037,3.8439,3.8618,3.8551,3.8225,0.6836,0.7242,0.8658,0.9818,1.0882,1.2654,1.3689,1.4331,1.5148,1.5506,1.5494,1.5287,1.5004,1.469,1.4437,1.4298,1.431,1.457,1.4829,1.5095,1.536,1.5602,1.5963,1.6398,1.6998,1.8144,1.911,2.0117,2.111,2.2092,2.2648,2.2963,2.2376,2.2259,2.2017,2.1502,2.0383,1.947,1.8826,1.8608,1.8394,1.8636,1.9377,2.0449,2.1084,2.1641,2.25,2.3398,2.3984,2.4307,2.4863,2.5156,2.5185,2.5019,2.4932,2.493,2.4891,2.4996,2.52,2.5506,2.6336,2.7541,2.8944,3.0443,3.1705,3.1595,3.1862,3.2245,3.2593,3.2679,3.2544,3.2252,3.1901,3.1361,3.0922,3.0545,3.0557,3.0821,3.0846,3.1311,3.1851,3.2441,3.2679,3.2998,3.3275,3.3628,3.3924,3.4063,3.423,3.4269,3.4556,3.491,3.5386,3.5082,3.4455,3.4154,3.3974,3.3844,3.4139,3.4214,3.4284,3.5409,3.6713,3.6805,3.6883,3.7544,3.8192,3.8174,3.8231,3.847,3.8863,3.9311,3.9667,3.9743,3.9143,0.6604,0.689,0.7972,0.9044,1.0147,1.1774,1.2916,1.3727,1.4708,1.5223,1.5265,1.5134,1.4865,1.4527,1.4383,1.4298,1.434,1.4588,1.4865,1.5119,1.5378,1.5638,1.5987,1.6599,1.732,1.821,1.9287,2.0423,2.1406,2.2111,2.2716,2.2893,2.2533,2.2303,2.2008,2.1502,2.0356,1.9396,1.8974,1.8817,1.8966,1.9179,1.9945,2.1319,2.1797,2.2243,2.2886,2.373,2.415,2.4541,2.5088,2.5322,2.5293,2.4971,2.4859,2.4844,2.4822,2.4954,2.5486,2.5825,2.6706,2.8938,3.0392,3.1632,3.2836,3.2758,3.2643,3.281,3.2853,3.292,3.2423,3.2139,3.1788,3.1097,3.0595,3.0218,3.0306,3.0746,3.1097,3.1549,3.219,3.2842,3.3011,3.3099,3.3356,3.3628,3.3937,3.4189,3.4314,3.4481,3.4729,3.5263,3.5723,3.5742,3.5171,3.5042,3.4982,3.4816,3.4659,3.4716,3.4845,3.5977,3.7028,3.708,3.7417,3.8173,3.8808,3.9319,3.958,3.9601,3.9881,4.0279,4.0578,4.0898,4.0141,0.6484,0.6721,0.7559,0.8536,0.9724,1.1194,1.237,1.3403,1.4444,1.4972,1.5119,1.5089,1.4805,1.4419,1.4298,1.4383,1.4497,1.4733,1.4986,1.5252,1.5517,1.571,1.6095,1.666,1.7387,1.8259,1.94,2.0551,2.156,2.1939,2.2605,2.2953,2.2743,2.2473,2.2226,2.1548,2.0512,1.9543,1.9138,1.9059,1.9231,1.9535,2.0285,2.1568,2.2165,2.2594,2.313,2.3848,2.4316,2.4678,2.5117,2.5508,2.5323,2.5049,2.4916,2.4934,2.5025,2.5098,2.5732,2.6757,2.7703,2.9617,3.1099,3.2359,3.3279,3.3364,3.302,3.3038,3.3056,3.2918,3.2453,3.2277,3.2026,3.1474,3.1097,3.0771,3.0859,3.1173,3.1449,3.1788,3.2466,3.3149,3.3626,3.3732,3.3827,3.3999,3.4063,3.423,3.4314,3.4522,3.4771,3.5372,3.6044,3.5962,3.5756,3.574,3.5629,3.52,3.5112,3.5302,3.5697,3.6622,3.7199,3.7293,3.7796,3.8712,3.9599,4.0484,4.0646,4.061,4.1071,4.1612,4.1761,4.194,4.1161,0.6471,0.6787,0.7475,0.8515,0.9682,1.0847,1.2028,1.321,1.4266,1.4867,1.5092,1.5101,1.4805,1.4395,1.4298,1.4425,1.4672,1.4932,1.5191,1.5439,1.5674,1.5843,1.6089,1.6579,1.7537,1.8594,1.9647,2.0672,2.1714,2.2247,2.2792,2.3091,2.2947,2.2727,2.2747,2.1731,2.0539,1.9476,1.9229,1.9225,1.937,1.9745,2.063,2.1501,2.2308,2.2799,2.3276,2.401,2.4477,2.4709,2.5416,2.5721,2.5515,2.5367,2.5263,2.5275,2.5676,2.5961,2.632,2.7977,2.9123,2.9894,3.1169,3.2446,3.3194,3.3283,3.3194,3.3294,3.3282,3.3287,3.2973,3.2704,3.2491,3.219,3.1838,3.1524,3.1625,3.1926,3.2277,3.2265,3.2717,3.335,3.4022,3.4432,3.4428,3.4418,3.4344,3.4395,3.4653,3.4903,3.5287,3.5723,3.6439,3.6344,3.6251,3.6398,3.6283,3.5768,3.5538,3.5689,3.5837,3.6259,3.6822,3.7302,3.8187,3.9108,4.047,4.1815,4.1983,4.2242,4.2665,4.3057,4.315,4.2821,4.1975,0.6096,0.6514,0.7481,0.8488,0.9609,1.0583,1.1576,1.2675,1.4056,1.4966,1.5083,1.5113,1.4805,1.4437,1.4328,1.4455,1.4739,1.4986,1.5246,1.5517,1.5777,1.5855,1.6125,1.668,1.772,1.9009,2.0039,2.0958,2.2222,2.244,2.2695,2.2972,2.3388,2.3196,2.2675,2.1961,2.142,2.0613,2.0255,2.0088,2.0214,2.0535,2.1084,2.1957,2.2553,2.3061,2.3388,2.423,2.4703,2.5019,2.5814,2.6292,2.639,2.637,2.6468,2.6835,2.7379,2.733,2.7755,2.8726,2.9554,3.0211,3.0914,3.2189,3.3214,3.3394,3.3458,3.3665,3.3884,3.3985,3.4098,3.4048,3.3834,3.3445,3.3056,3.2566,3.2541,3.3006,3.3319,3.2968,3.3106,3.3834,3.4526,3.5213,3.5359,3.5813,3.5887,3.5706,3.5875,3.5949,3.6225,3.6448,3.6824,3.6768,3.6736,3.6665,3.6219,3.5517,3.5621,3.5992,3.6129,3.6076,3.6738,3.7398,3.8439,3.9549,4.1296,4.2818,4.3543,4.3949,4.3879,4.3762,4.3587,4.3229,4.2602,0.5852,0.6492,0.7642,0.869,0.9629,1.0485,1.1601,1.2918,1.4356,1.5024,1.5089,1.5101,1.4811,1.4431,1.4322,1.4539,1.4841,1.5016,1.5354,1.5608,1.5795,1.5873,1.6166,1.6712,1.7767,1.904,1.9907,2.0769,2.1991,2.2201,2.2644,2.3226,2.3831,2.3569,2.2997,2.2538,2.2006,2.1181,2.0637,2.0559,2.0829,2.125,2.1783,2.2428,2.2993,2.3477,2.3836,2.4431,2.5154,2.5696,2.646,2.7324,2.7614,2.7893,2.8093,2.8791,2.9091,2.8932,2.9146,2.919,2.9842,3.0202,3.0847,3.1906,3.3117,3.3493,3.3845,3.4166,3.453,3.4675,3.4763,3.4743,3.465,3.4236,3.406,3.3558,3.352,3.3985,3.396,3.3608,3.3533,3.4331,3.5125,3.58,3.6303,3.6954,3.7534,3.7327,3.7137,3.7195,3.7275,3.7447,3.7443,3.7327,3.7061,3.6744,3.6153,3.531,3.54,3.5699,3.5734,3.5587,3.6538,3.7692,3.9146,4.068,4.2496,4.3789,4.4134,4.4295,4.4218,4.4101,4.3963,4.3457,4.2875,0.5689,0.6649,0.8023,0.8952,0.9661,1.0681,1.2264,1.4143,1.475,1.5001,1.5119,1.5089,1.4775,1.4377,1.4298,1.4588,1.4986,1.5089,1.5421,1.5728,1.5867,1.5885,1.6099,1.6568,1.7675,1.87,1.958,2.037,2.142,2.21,2.269,2.3329,2.389,2.3727,2.3352,2.2968,2.2346,2.1632,2.1291,2.1245,2.1514,2.1879,2.24,2.2993,2.3454,2.388,2.4295,2.491,2.5674,2.6499,2.7441,2.8519,2.9172,2.9536,3.0072,3.047,3.0672,3.0465,3.0159,3.0136,3.0137,3.0547,3.1406,3.231,3.3077,3.3712,3.4145,3.4618,3.5002,3.4939,3.4926,3.4977,3.5002,3.4889,3.4889,3.4675,3.4575,3.46,3.4487,3.4299,3.4218,3.4785,3.5737,3.644,3.7111,3.7935,3.8566,3.907,3.8853,3.8511,3.8569,3.8589,3.8424,3.7951,3.7641,3.7357,3.6526,3.5804,3.4831,3.4861,3.4895,3.5411,3.6426,3.7842,3.9939,4.1658,4.3107,4.3934,4.4387,4.4456,4.4286,4.4425,4.4255,4.3437,4.2889,0.5347,0.6241,0.7865,0.8882,0.9689,1.1429,1.3005,1.4169,1.4593,1.4838,1.5101,1.4914,1.4642,1.4316,1.4304,1.4642,1.4932,1.5179,1.5463,1.5704,1.5885,1.5885,1.6099,1.6543,1.7596,1.8522,1.9399,2.0106,2.1278,2.2072,2.2715,2.3373,2.3945,2.3846,2.3657,2.338,2.2885,2.2465,2.2117,2.2117,2.2354,2.2811,2.318,2.347,2.3799,2.4226,2.4769,2.5669,2.6601,2.7786,2.894,3.0072,3.0927,3.1098,3.1367,3.2025,3.2004,3.1705,3.117,3.0956,3.0916,3.1118,3.1812,3.2596,3.3291,3.3986,3.4577,3.5082,3.5504,3.5567,3.5592,3.5604,3.5604,3.5592,3.5579,3.5479,3.5366,3.5253,3.5115,3.4936,3.4855,3.5665,3.6568,3.7057,3.7717,3.8693,3.9538,4.0153,4.0472,4.0101,3.9895,3.9881,3.9609,3.9179,3.8641,3.8296,3.7276,3.6297,3.534,3.4666,3.5015,3.5636,3.6491,3.8098,4.0399,4.2027,4.3417,4.4055,4.4517,4.4271,4.4132,4.4394,4.4416,4.3629,4.3183,0.5075,0.6096,0.7795,0.9163,1.0382,1.1892,1.3044,1.3899,1.4419,1.4786,1.5044,1.4791,1.4564,1.4328,1.4322,1.4582,1.5083,1.5131,1.5384,1.5777,1.5885,1.5885,1.6099,1.653,1.745,1.8411,1.9261,1.9963,2.1155,2.2095,2.2787,2.3397,2.3954,2.3965,2.3859,2.3785,2.3684,2.3354,2.3143,2.3059,2.3267,2.3654,2.3795,2.3953,2.4285,2.4689,2.5316,2.6346,2.7567,2.8934,3.0228,3.1436,3.2347,3.2788,3.279,3.3265,3.2877,3.2497,3.2057,3.1929,3.1896,3.2075,3.2665,3.3506,3.3978,3.4545,3.5136,3.5646,3.6056,3.6367,3.638,3.6405,3.638,3.6367,3.6292,3.6216,3.6069,3.5956,3.5793,3.5598,3.5978,3.6733,3.7344,3.775,3.8381,3.9414,4.0287,4.0972,4.1379,4.1441,4.1288,4.1218,4.092,4.0486,3.9906,3.9137,3.8133,3.703,3.5863,3.537,3.5464,3.5974,3.6897,3.8754,4.0999,4.2396,4.3661,4.4148,4.4464,4.4278,4.413,4.4278,4.4337,4.395,4.3639,0.4885,0.603,0.7837,0.964,1.1375,1.2053,1.276,1.3459,1.4166,1.4734,1.4927,1.4787,1.4515,1.4334,1.4364,1.4648,1.5022,1.5173,1.5433,1.5879,1.5885,1.5885,1.6045,1.6524,1.7397,1.8279,1.9116,1.9984,2.1035,2.1979,2.2787,2.3397,2.3954,2.4146,2.4119,2.4101,2.4027,2.3868,2.3547,2.3345,2.3655,2.4057,2.4431,2.4644,2.4892,2.5244,2.5958,2.6941,2.814,2.9699,3.1172,3.2512,3.3409,3.409,3.4102,3.3815,3.3276,3.2865,3.2617,3.2487,3.2898,3.3293,3.399,3.4487,3.4752,3.4923,3.5408,3.5956,3.6355,3.6417,3.6417,3.6417,3.6417,3.6417,3.6367,3.6377,3.6373,3.6353,3.6383,3.6404,3.7059,3.7782,3.8352,3.8774,3.9312,4.023,4.0887,4.1659,4.2123,4.2376,4.2441,4.2375,4.2046,4.1545,4.083,4.0016,3.897,3.7853,3.6671,3.6049,3.6099,3.663,3.7336,3.9229,4.1151,4.2597,4.3766,4.4397,4.4765,4.4592,4.4452,4.4319,4.4223,4.4273,4.4526,0.4665,0.5961,0.8118,0.9815,1.1071,1.1935,1.2545,1.2999,1.3556,1.4165,1.467,1.4539,1.4395,1.4364,1.4515,1.4799,1.5083,1.5306,1.559,1.5801,1.5885,1.5939,1.6045,1.6571,1.7364,1.8258,1.9153,2.0145,2.1318,2.2173,2.2837,2.3397,2.3904,2.4211,2.4211,2.4211,2.4192,2.4174,2.4009,2.3876,2.4154,2.4421,2.4705,2.5015,2.5264,2.5722,2.6504,2.7558,2.8876,3.032,3.2058,3.3178,3.3946,3.4114,3.3694,3.3116,3.3128,3.2868,3.2743,3.2849,3.3268,3.3573,3.4038,3.4627,3.5056,3.5219,3.5592,3.6094,3.6417,3.6417,3.6417,3.6417,3.6417,3.6417,3.6468,3.6537,3.6666,3.6773,3.689,3.7515,3.8094,3.8707,3.9312,3.9895,4.0389,4.0944,4.1478,4.2075,4.2617,4.2985,4.3235,4.3215,4.305,4.2542,4.1803,4.104,4.0098,3.9005,3.7873,3.7297,3.6827,3.7549,3.8397,3.9625,4.1163,4.2932,4.4376,4.4997,4.5227,4.517,4.5258,4.5321,4.5313,4.5313,4.5661,0.4385,0.566,0.8007,0.9755,1.0886,1.1688,1.2162,1.2509,1.2958,1.3549,1.4131,1.4153,1.422,1.4461,1.466,1.4956,1.5234,1.5421,1.5638,1.5813,1.5939,1.5998,1.6258,1.6789,1.7681,1.8572,1.9768,2.0858,2.1818,2.2426,2.2979,2.3447,2.3904,2.4211,2.4211,2.4202,2.4192,2.4202,2.4183,2.427,2.453,2.4842,2.5198,2.5515,2.5969,2.639,2.711,2.8169,2.9396,3.0771,3.2325,3.3298,3.3778,3.3813,3.332,3.2863,3.2753,3.282,3.2702,3.2913,3.353,3.3986,3.4452,3.5219,3.5742,3.5906,3.5918,3.6405,3.6417,3.6417,3.6417,3.6417,3.6417,3.6417,3.6742,3.6966,3.7146,3.7343,3.7802,3.8437,3.9077,3.9699,4.04,4.1439,4.1995,4.2695,4.3044,4.3077,4.3519,4.3556,4.3822,4.3932,4.3738,4.3379,4.2731,4.2043,4.1377,4.0239,3.9122,3.8631,3.8307,3.875,3.9489,4.0531,4.1984,4.3925,4.5159,4.6024,4.6207,4.6234,4.6333,4.6445,4.6384,4.6435,4.7066,0.4261,0.5549,0.7859,0.9647,1.0905,1.1497,1.1845,1.2134,1.2591,1.3088,1.3619,1.3821,1.4187,1.4544,1.4787,1.5125,1.5396,1.5559,1.5734,1.5831,1.5945,1.6211,1.6683,1.7265,1.8206,1.9294,2.049,2.131,2.2123,2.2677,2.3129,2.3497,2.3854,2.4211,2.4192,2.4137,2.4073,2.396,2.4033,2.4216,2.4632,2.5214,2.5645,2.6153,2.6672,2.7174,2.7801,2.868,2.9803,3.0915,3.2178,3.3128,3.3513,3.3416,3.2899,3.2503,3.2491,3.2713,3.2893,3.3032,3.3987,3.4819,3.5249,3.568,3.6094,3.638,3.6392,3.6392,3.6405,3.6417,3.6417,3.6477,3.6477,3.6562,3.6963,3.7359,3.7617,3.7898,3.8584,3.9268,4.0057,4.0661,4.1681,4.2749,4.3423,4.4172,4.4459,4.4655,4.4644,4.4366,4.4351,4.4451,4.4407,4.3988,4.3629,4.2895,4.2261,4.164,4.0618,4.0082,3.9757,4.0078,4.0545,4.1252,4.2817,4.5068,4.6489,4.7505,4.7506,4.7552,4.7557,4.7624,4.7222,4.7457,4.8563,0.4649,0.683,0.8385,0.983,1.1146,1.186,1.2209,1.2323,1.265,1.3155,1.3641,1.3691,1.398,1.4739,1.4956,1.5228,1.5469,1.5656,1.5789,1.5879,1.6051,1.6471,1.7107,1.7793,1.8826,2.0019,2.1097,2.1818,2.2426,2.2979,2.3388,2.3696,2.4003,2.4192,2.4146,2.3978,2.3794,2.3767,2.3643,2.3718,2.4472,2.5107,2.5768,2.6238,2.6666,2.7296,2.8007,2.8853,2.9563,3.0518,3.1721,3.2743,3.3104,3.2984,3.243,3.2154,3.2166,3.2398,3.2616,3.2811,3.3677,3.476,3.5069,3.5454,3.594,3.6392,3.6405,3.6405,3.6417,3.6465,3.6465,3.6587,3.6647,3.6836,3.7099,3.7569,3.7977,3.8424,3.8999,4.0006,4.1057,4.1933,4.3042,4.3796,4.4193,4.4611,4.4392,4.4586,4.5049,4.4937,4.49,4.5061,4.5151,4.5035,4.487,4.3743,4.3019,4.255,4.1843,4.0822,4.0519,4.1239,4.1768,4.2412,4.4227,4.6461,4.7748,4.893,4.9319,4.9387,4.906,4.8812,4.8346,4.8122,4.8919]}]]